[[{"header":{"parameterUnit":"m.s-1","parameterCategory":1,"la1":30.6,"la2":28.766,"lo1":-90.7593,"lo2":-88.6598,"dy":0.0162,"dx":0.0183,"nx":116,"ny":114,"refTime":"2023-10-18T06:00:00:Z","depth":0,"parameterNumber":2,"parameterNumberName":"U-component_of_WINDS"},"data":[0.0,0.0,0.0,0.0,0.0,0.0,0.0,0.0,0.0,0.0,0.0,0.0,0.0,0.0,0.0,0.0,0.0,0.0,0.0,0.0,0.0,0.0,0.0,0.0,0.0,0.0,0.0,0.0,0.0,0.0,0.0,0.0,0.0,0.0,0.0,0.0,0.0,0.0,0.0,0.0,0.0,0.0,0.0,0.0,0.0,0.0,0.0,0.0,0.0,0.0,0.0,0.0,0.0,0.0,0.0,0.0,0.0,0.0,0.0,0.0,0.0,0.0,0.0,0.0,0.0,0.0,0.0,0.0,0.0,0.0,0.0,0.0,0.0,0.0,0.0,0.0,0.0,0.0,0.0,0.0,0.0,0.0,0.0,0.0,0.0,0.0,0.0,0.0,0.0,0.0,0.0,0.0,0.0,0.0,0.0,0.0,0.0,0.0,0.0,0.0,0.0,0.0,0.0,0.0,0.0,0.0,0.0,0.0,0.0,0.0,0.0,0.0,0.0,0.0,0.0,0.0,0.0,0.0,0.0,0.0,0.0,0.0,0.0,0.0,0.0,0.0,0.0,0.0,0.0,0.0,0.0,0.0,0.0,0.0,0.0,0.0,0.0,0.0,0.0,0.0,0.0,0.0,0.0,0.0,0.0,0.0,0.0,0.0,0.0,0.0,0.0,0.0,0.0,0.0,0.0,0.0,0.0,0.0,0.0,0.0,0.0,0.0,0.0,0.0,0.0,0.0,0.0,0.0,0.0,0.0,0.0,0.0,0.0,0.0,0.0,0.0,0.0,0.0,0.0,0.0,0.0,0.0,0.0,0.0,0.0,0.0,0.0,0.0,0.0,0.0,0.0,0.0,0.0,0.0,0.0,0.0,0.0,0.0,0.0,0.0,0.0,0.0,0.0,0.0,0.0,0.0,0.0,0.0,0.0,0.0,0.0,0.0,0.0,0.0,0.0,0.0,0.0,0.0,0.0,0.0,0.0,0.0,0.0,0.0,0.0,0.0,0.0,0.0,0.0,0.0,0.0,0.0,0.0,0.0,0.0,0.0,0.0,0.0,0.0,0.0,0.0,0.0,0.0,0.0,0.0,0.0,0.0,0.0,0.0,0.0,0.0,0.0,0.0,0.0,0.0,0.0,0.0,0.0,0.0,0.0,0.0,0.0,0.0,0.0,0.0,0.0,0.0,0.0,0.0,0.0,0.0,0.0,0.0,0.0,0.0,0.0,0.0,0.0,0.0,0.0,0.0,0.0,0.0,0.0,0.0,0.0,0.0,0.0,0.0,0.0,0.0,0.0,0.0,0.0,0.0,0.0,0.0,0.0,0.0,0.0,0.0,0.0,0.0,0.0,0.0,0.0,0.0,0.0,0.0,0.0,0.0,0.0,0.0,0.0,0.0,0.0,0.0,0.0,0.0,0.0,0.0,0.0,0.0,0.0,0.0,0.0,0.0,0.0,0.0,0.0,0.0,0.0,0.0,0.0,0.0,0.0,0.0,0.0,0.0,0.0,0.0,0.0,0.0,0.0,0.0,0.0,0.0,0.0,0.0,0.0,0.0,0.0,0.0,0.0,0.0,0.0,0.0,0.0,0.0,0.0,0.0,0.0,0.0,0.0,0.0,0.0,0.0,0.0,0.0,0.0,0.0,0.0,0.0,0.0,0.0,0.0,0.0,0.0,0.0,0.0,0.0,0.0,0.0,0.0,0.0,0.0,0.0,0.0,0.0,0.0,0.0,0.0,0.0,0.0,0.0,0.0,0.0,0.0,0.0,0.0,0.0,0.0,0.0,0.0,0.0,0.0,0.0,0.0,0.0,0.0,0.0,0.0,0.0,0.0,0.0,0.0,0.0,0.0,0.0,0.0,0.0,0.0,0.0,0.0,0.0,0.0,0.0,0.0,0.0,0.0,0.0,0.0,0.0,0.0,0.0,0.0,0.0,0.0,0.0,0.0,0.0,0.0,0.0,0.0,0.0,0.0,0.0,0.0,0.0,0.0,0.0,0.0,0.0,0.0,0.0,0.0,0.0,0.0,0.0,0.0,0.0,0.0,0.0,0.0,0.0,0.0,0.0,0.0,0.0,0.0,0.0,0.0,0.0,0.0,0.0,0.0,0.0,0.0,0.0,0.0,0.0,0.0,0.0,0.0,0.0,0.0,0.0,0.0,0.0,0.0,0.0,0.0,0.0,0.0,0.0,0.0,0.0,0.0,0.0,0.0,0.0,0.0,0.0,0.0,0.0,0.0,0.0,0.0,0.0,0.0,0.0,0.0,0.0,0.0,0.0,0.0,0.0,0.0,0.0,0.0,0.0,0.0,0.0,0.0,0.0,0.0,0.0,0.0,0.0,0.0,0.0,0.0,0.0,0.0,0.0,0.0,0.0,0.0,0.0,0.0,0.0,0.0,0.0,0.0,0.0,0.0,0.0,0.0,0.0,0.0,0.0,0.0,0.0,0.0,0.0,0.0,0.0,0.0,0.0,0.0,0.0,0.0,0.0,0.0,0.0,0.0,0.0,0.0,0.0,0.0,0.0,0.0,0.0,0.0,0.0,0.0,0.0,0.0,0.0,0.0,0.0,0.0,0.0,0.0,0.0,0.0,0.0,0.0,0.0,0.0,0.0,0.0,0.0,0.0,0.0,0.0,0.0,0.0,0.0,0.0,0.0,0.0,0.0,0.0,0.0,0.0,0.0,0.0,0.0,0.0,0.0,0.0,0.0,0.0,0.0,0.0,0.0,0.0,0.0,0.0,0.0,0.0,0.0,0.0,0.0,0.0,0.0,0.0,0.0,0.0,0.0,0.0,0.0,0.0,0.0,0.0,0.0,0.0,0.0,0.0,0.0,0.0,0.0,0.0,0.0,0.0,0.0,0.0,0.0,0.0,0.0,0.0,0.0,0.0,0.0,0.0,0.0,0.0,0.0,0.0,0.0,0.0,0.0,0.0,0.0,0.0,0.0,0.0,0.0,0.0,0.0,0.0,0.0,0.0,0.0,0.0,0.0,0.0,0.0,0.0,0.0,0.0,0.0,0.0,0.0,0.0,0.0,0.0,0.0,0.0,0.0,0.0,0.0,0.0,0.0,0.0,0.0,0.0,0.0,0.0,0.0,0.0,0.0,0.0,0.0,0.0,0.0,0.0,0.0,0.0,0.0,0.0,0.0,0.0,0.0,0.0,0.0,0.0,0.0,0.0,0.0,0.0,0.0,0.0,0.0,0.0,0.0,0.0,0.0,0.0,0.0,0.0,0.0,0.0,0.0,0.0,0.0,0.0,0.0,0.0,0.0,0.0,0.0,0.0,0.0,0.0,0.0,0.0,0.0,0.0,0.0,0.0,0.0,0.0,0.0,0.0,0.0,0.0,0.0,0.0,0.0,0.0,0.0,0.0,0.0,0.0,0.0,0.0,0.0,0.0,0.0,0.0,0.0,0.0,0.0,0.0,0.0,0.0,0.0,0.0,0.0,0.0,0.0,0.0,0.0,0.0,0.0,0.0,0.0,0.0,0.0,0.0,0.0,0.0,0.0,0.0,0.0,0.0,0.0,0.0,0.0,0.0,0.0,0.0,0.0,0.0,0.0,0.0,0.0,0.0,0.0,0.0,0.0,0.0,0.0,0.0,0.0,0.0,0.0,0.0,0.0,0.0,0.0,0.0,0.0,0.0,0.0,0.0,0.0,0.0,0.0,0.0,0.0,0.0,0.0,0.0,0.0,0.0,0.0,0.0,0.0,0.0,0.0,0.0,0.0,0.0,0.0,0.0,0.0,0.0,0.0,0.0,0.0,0.0,0.0,0.0,0.0,0.0,0.0,0.0,0.0,0.0,0.0,0.0,0.0,0.0,0.0,0.0,0.0,0.0,0.0,0.0,0.0,0.0,0.0,0.0,0.0,0.0,0.0,0.0,0.0,0.0,0.0,0.0,0.0,0.0,0.0,0.0,0.0,0.0,0.0,0.0,0.0,0.0,0.0,0.0,0.0,0.0,0.0,0.0,0.0,0.0,0.0,0.0,0.0,0.0,0.0,0.0,0.0,0.0,0.0,0.0,0.0,0.0,0.0,0.0,0.0,0.0,0.0,0.0,0.0,0.0,0.0,0.0,0.0,0.0,0.0,0.0,0.0,0.0,0.0,0.0,0.0,0.0,0.0,0.0,0.0,0.0,0.0,0.0,0.0,0.0,0.0,0.0,0.0,0.0,0.0,0.0,0.0,0.0,0.0,0.0,0.0,0.0,0.0,0.0,0.0,0.0,0.0,0.0,0.0,0.0,0.0,0.0,0.0,0.0,0.0,0.0,0.0,0.0,0.0,0.0,0.0,0.0,0.0,0.0,0.0,0.0,0.0,0.0,0.0,0.0,0.0,0.0,0.0,0.0,0.0,0.0,0.0,0.0,0.0,0.0,0.0,0.0,0.0,0.0,0.0,0.0,0.0,0.0,0.0,0.0,0.0,0.0,0.0,0.0,0.0,0.0,0.0,0.0,0.0,0.0,0.0,0.0,0.0,0.0,0.0,0.0,0.0,0.0,0.0,0.0,0.0,0.0,0.0,0.0,0.0,0.0,0.0,0.0,0.0,0.0,0.0,0.0,0.0,0.0,0.0,0.0,0.0,0.0,0.0,0.0,0.0,0.0,0.0,0.0,0.0,0.0,0.0,0.0,0.0,0.0,0.0,0.0,0.0,0.0,0.0,0.0,0.0,0.0,0.0,0.0,0.0,0.0,0.0,0.0,0.0,0.0,0.0,0.0,0.0,0.0,0.0,0.0,0.0,0.0,0.0,0.0,0.0,0.0,0.0,0.0,0.0,0.0,0.0,0.0,0.0,0.0,0.0,0.0,0.0,0.0,0.0,0.0,0.0,0.0,0.0,0.0,0.0,0.0,0.0,0.0,0.0,0.0,0.0,0.0,0.0,0.0,0.0,0.0,0.0,0.0,0.0,0.0,0.0,0.0,0.0,0.0,0.0,0.0,0.0,0.0,0.0,0.0,0.0,0.0,0.0,0.0,0.0,0.0,0.0,0.0,0.0,0.0,0.0,0.0,0.0,0.0,0.0,0.0,0.0,0.0,0.0,0.0,0.0,0.0,0.0,0.0,0.0,0.0,0.0,0.0,0.0,0.0,0.0,0.0,0.0,0.0,0.0,0.0,0.0,0.0,0.0,0.0,0.0,0.0,0.0,0.0,0.0,0.0,0.0,0.0,0.0,0.0,0.0,0.0,0.0,0.0,0.0,0.0,0.0,0.0,0.0,0.0,0.0,0.0,0.0,0.0,0.0,0.0,0.0,0.0,0.0,0.0,0.0,0.0,0.0,0.0,0.0,0.0,0.0,0.0,0.0,0.0,0.0,0.0,0.0,0.0,0.0,0.0,0.0,0.0,0.0,0.0,0.0,0.0,0.0,0.0,0.0,0.0,0.0,0.0,0.0,0.0,0.0,0.0,0.0,0.0,0.0,0.0,0.0,0.0,0.0,0.0,0.0,0.0,0.0,0.0,0.0,0.0,0.0,0.0,0.0,0.0,0.0,0.0,0.0,0.0,0.0,0.0,0.0,0.0,0.0,0.0,0.0,0.0,0.0,0.0,0.0,0.0,0.0,0.0,0.0,0.0,0.0,0.0,0.0,0.0,0.0,0.0,0.0,0.0,0.0,0.0,0.0,0.0,0.0,0.0,0.0,0.0,0.0,0.0,0.0,0.0,0.0,0.0,0.0,0.0,0.0,0.0,0.0,0.0,0.0,0.0,0.0,0.0,0.0,0.0,0.0,0.0,0.0,0.0,0.0,0.0,0.0,0.0,0.0,0.0,0.0,0.0,0.0,0.0,0.0,0.0,0.0,0.0,0.0,0.0,0.0,0.0,0.0,0.0,0.0,0.0,0.0,0.0,0.0,0.0,0.0,0.0,0.0,0.0,0.0,0.0,0.0,0.0,0.0,0.0,0.0,0.0,0.0,0.0,0.0,0.0,0.0,0.0,0.0,0.0,0.0,0.0,0.0,0.0,0.0,0.0,0.0,0.0,0.0,0.0,0.0,0.0,0.0,0.0,0.0,0.0,0.0,0.0,0.0,0.0,0.0,0.0,0.0,0.0,0.0,0.0,0.0,0.0,0.0,0.0,0.0,0.0,0.5145,0.0,0.0,0.0,0.0,0.0,0.0,0.0,0.0,0.0,0.0,0.0,0.0,0.0,0.0,0.0,0.0,0.0,0.0,0.0,0.0,0.0,0.0,0.0,0.0,0.0,0.0,0.0,0.0,0.0,0.0,0.0,0.0,0.0,0.0,0.0,0.0,0.0,0.0,0.0,0.0,0.0,0.0,0.0,0.0,0.0,0.0,0.0,0.0,0.0,0.0,0.0,0.0,0.0,0.0,0.0,0.0,0.0,0.0,0.0,0.0,0.0,0.0,0.0,0.0,0.0,0.0,0.0,0.0,0.0,0.0,0.0,0.0,0.0,0.0,0.0,0.0,0.0,0.0,0.0,0.0,0.0,0.0,0.0,0.0,0.0,0.0,0.0,0.0,0.0,0.0,0.0,0.0,0.0,0.0,0.0,0.0,0.0,0.0,0.0,0.0,0.0,0.0,0.0,0.0,0.0,0.0,0.0,0.0,0.0,0.0,0.0,0.0,0.0,0.0,0.0,0.0,0.5365,0.0,0.0,0.0,0.0,0.0,0.0,0.0,0.0,0.0,0.0,0.0,0.0,0.0,0.0,0.0,0.0,0.0,0.0,0.0,0.0,0.0,0.0,0.0,0.0,0.0,0.0,0.0,0.0,0.0,0.0,0.0,0.0,0.0,0.0,0.0,0.0,0.0,0.0,0.0,0.0,0.0,0.0,0.0,0.0,0.0,0.0,0.0,0.0,0.0,0.0,0.0,0.0,0.0,0.0,0.0,0.0,0.0,0.0,0.0,0.0,0.0,0.0,0.0,0.0,0.0,0.0,0.0,0.0,0.0,0.0,0.0,0.0,0.0,0.0,0.0,0.0,0.0,0.0,0.0,0.0,0.0,0.0,0.0,0.0,0.0,0.0,0.0,0.0,0.0,0.0,0.0,0.0,0.0,0.0,0.0,0.0,0.0,0.0,0.0,0.0,0.0,0.0,0.0,0.0,0.0,0.0,0.0,0.0,0.5546,0.571,0.5933,0.5732,0.5702,0.59,0.556,0.5483,0.5514,0.5428,0.0,0.0,0.0,0.0,0.0,0.0,0.0,0.0,0.0,0.0,0.0,0.0,0.0,0.0,0.0,0.0,0.0,0.0,0.0,0.0,0.0,0.0,0.0,0.0,0.0,0.0,0.0,0.0,0.0,0.0,0.0,0.0,0.0,0.0,0.0,0.0,0.0,0.0,0.9754,1.0274,1.0493,1.042,0.9778,0.0,0.0,0.0,0.0,0.0,0.0,0.0,0.0,0.0,0.0,0.0,0.0,0.0,0.0,0.0,0.0,0.0,0.0,0.0,0.0,0.0,0.0,0.0,0.0,0.0,0.0,0.0,0.0,0.0,0.0,0.0,0.0,0.0,0.0,0.0,0.0,0.0,0.0,0.0,0.0,0.0,0.0,0.0,0.4467,0.4561,0.0,0.0,0.0,0.0,0.0,0.0,0.0,0.0,0.0,0.0,0.0,0.0,0.0,0.5651,0.5925,0.6161,0.6333,0.6447,0.5719,0.5529,0.5484,0.4774,0.4559,0.4681,0.464,0.0,0.5318,0.5238,0.0,0.0,0.0,0.0,0.0,0.0,0.0,0.0,0.0,0.0,0.0,0.0,0.0,0.0,0.0,0.0,0.0,0.0,0.0,0.0,0.0,0.0,0.0,0.0,0.0,0.0,0.0,0.0,0.0,0.0,0.0,0.0,0.0,0.0,0.0,0.0,0.9957,1.0404,1.0802,1.1143,1.1354,1.1435,1.1224,1.0688,0.9916,0.973,0.0,0.0,0.0,0.0,0.0,0.0,0.0,0.0,0.0,0.0,0.0,0.0,0.0,0.0,0.0,0.0,0.0,0.0,0.0,0.0,0.0,0.0,0.0,0.0,0.0,0.0,0.0,0.0,0.0,0.0,0.0,0.0,0.0,0.0,0.0,0.0,0.0,0.0,0.0,0.481,0.4753,0.4794,0.4798,0.4761,0.0,0.0,0.0,0.0,0.0,0.0,0.0,0.0,0.0,0.5839,0.5511,0.571,0.65,0.6114,0.6402,0.697,0.6612,0.6273,0.5935,0.5443,0.5196,0.4847,0.4815,0.4542,0.4364,0.4597,0.4577,0.4446,0.0,0.0,0.0,0.0,0.4226,0.4142,0.0,0.0,0.0,0.0,0.0,0.0,0.0,0.0,0.0,0.0,0.0,0.0,0.0,0.0,0.0,0.0,0.0,0.0,0.0,0.0,0.0,0.0,0.0,0.0,0.0,0.0,0.0,0.0,1.0664,1.1159,1.1776,1.2052,1.228,1.245,1.2588,1.1898,1.0623,1.0396,1.0063,0.0,0.0,0.0,0.0,0.0,0.0,0.0,0.0,0.0,0.0,0.0,0.0,0.0,0.0,0.0,0.0,0.0,0.0,0.0,0.0,0.0,0.0,0.0,0.0,0.0,0.0,0.0,0.0,0.0,0.0,0.0,0.0,0.0,0.0,0.0,0.0,0.0,0.0,0.4943,0.5022,0.4977,0.5075,0.5079,0.0,0.0,0.0,0.0,0.0,0.0,0.5614,0.5916,0.6235,0.6549,0.5975,0.6144,0.7129,0.6316,0.6274,0.7189,0.6777,0.6241,0.5712,0.55,0.5045,0.4466,0.4427,0.4065,0.3531,0.4052,0.4021,0.3916,0.3782,0.3838,0.3934,0.3818,0.3718,0.3624,0.0,0.0,0.0,0.0,0.0,0.0,0.0,0.0,0.0,0.0,0.0,0.0,0.0,0.0,0.0,0.0,0.0,0.0,0.0,0.0,0.0,0.0,0.0,0.0,0.0,0.0,0.0,1.0664,1.1524,1.2142,1.2523,1.3043,1.3392,1.3563,1.3571,1.297,1.1914,1.1565,1.111,1.0582,0.0,0.0,0.0,0.0,0.0,0.0,0.0,0.0,0.0,0.0,0.0,0.0,0.0,0.0,0.0,0.0,0.0,0.0,0.0,0.0,0.0,0.0,0.0,0.0,0.0,0.0,0.0,0.0,0.0,0.0,0.0,0.0,0.0,0.0,0.0,0.0,0.0,0.0,0.0,0.4994,0.5349,0.0,0.0,0.0,0.0,0.5467,0.5725,0.5994,0.6255,0.6451,0.6758,0.7203,0.7382,0.7603,0.7876,0.697,0.6714,0.6792,0.5099,0.4107,0.4154,0.3289,0.2945,0.2948,0.2946,0.2945,0.2926,0.3497,0.3635,0.3401,0.3354,0.3767,0.4204,0.3671,0.3395,0.3403,0.0,0.0,0.0,0.0,0.0,0.0,0.0,0.0,0.0,0.0,0.0,0.0,0.0,0.0,0.0,0.0,0.0,0.0,0.0,0.0,0.0,0.0,0.0,0.0,0.0,0.0,1.0842,1.1727,1.228,1.2848,1.3425,1.362,1.3937,1.4326,1.4326,1.4115,1.3685,1.2629,1.1874,1.1346,1.0802,1.0298,0.0,0.0,0.0,0.0,0.0,0.0,0.0,0.0,0.0,0.0,0.0,0.0,0.0,0.0,0.0,0.0,0.0,0.0,0.0,0.0,0.0,0.0,0.0,0.0,0.0,0.0,0.0,0.0,0.0,0.0,0.0,0.0,0.0,0.0,0.0,0.0,0.0,0.5737,0.61,0.0,0.608,0.6149,0.6227,0.6288,0.6598,0.6847,0.6998,0.7235,0.7181,0.6798,0.7073,0.7198,0.7337,0.634,0.6534,0.7769,0.5871,0.5038,0.5093,0.404,0.3351,0.2841,0.2821,0.2812,0.2804,0.3049,0.3129,0.2894,0.2794,0.2909,0.306,0.2898,0.2756,0.2779,0.0,0.0,0.0,0.0,0.0,0.0,0.0,0.0,0.0,0.0,0.0,0.0,0.0,0.0,0.0,0.0,0.0,0.0,0.0,0.0,0.0,0.0,0.0,0.0,0.0,1.0867,1.1614,1.2572,1.2994,1.353,1.4172,1.4237,1.4521,1.4984,1.4984,1.4944,1.4822,1.3807,1.2962,1.2255,1.1598,1.111,1.0704,0.0,0.0,0.0,0.0,0.0,0.0,0.0,0.0,0.0,0.0,0.0,0.0,0.0,0.0,0.0,0.0,0.0,0.0,0.0,0.0,0.0,0.0,0.0,0.0,0.0,0.0,0.0,0.0,0.0,0.0,0.0,0.0,0.0,0.0,0.0,0.6166,0.6341,0.6737,0.6937,0.6786,0.6851,0.6929,0.699,0.7301,0.7542,0.7656,0.7836,0.7706,0.7245,0.7479,0.737,0.7095,0.6234,0.6222,0.6882,0.5296,0.4608,0.4639,0.4107,0.3412,0.2902,0.3242,0.3225,0.2856,0.319,0.3148,0.2743,0.2632,0.259,0.2586,0.2556,0.2557,0.2577,0.0,0.0,0.0,0.0,0.0,0.0,0.0,0.0,0.0,0.0,0.0,0.0,0.0,0.0,0.0,0.0,0.0,0.0,0.0,0.0,0.0,0.0,0.0,0.0,1.0729,1.1606,1.2418,1.3133,1.3669,1.4205,1.4741,1.4903,1.5179,1.5385,1.5377,1.5281,1.5112,1.5082,1.4399,1.3368,1.245,1.2069,1.1939,0.0,0.0,0.0,0.0,0.0,0.0,0.0,0.0,0.0,0.0,0.0,0.0,0.0,0.0,0.0,0.0,0.0,0.0,0.0,0.0,0.0,0.0,0.0,0.0,0.0,0.0,0.0,0.0,0.0,0.0,0.0,0.0,0.0,0.5659,0.6292,0.6749,0.6766,0.7235,0.7452,0.7199,0.7411,0.7562,0.7562,0.7815,0.8044,0.8215,0.8228,0.8387,0.8553,0.8565,0.824,0.7395,0.6541,0.5577,0.4373,0.3464,0.2919,0.2919,0.2919,0.2935,0.3149,0.4073,0.3864,0.2917,0.4009,0.3805,0.2866,0.2776,0.274,0.2735,0.2705,0.2692,0.2692,0.0,0.0,0.0,0.0,0.0,0.0,0.0,0.0,0.0,0.0,0.0,0.0,0.0,0.0,0.0,0.0,0.0,0.0,0.0,0.0,0.0,0.0,0.0,0.0,1.1841,1.1705,1.2399,1.4066,1.4351,1.4765,1.5293,1.4223,1.4165,1.4426,1.3424,1.3624,1.4673,1.4393,1.4533,1.5,1.3717,1.2962,1.254,0.0,0.0,0.0,0.0,0.0,0.0,0.0,0.0,0.0,0.0,0.0,0.0,0.0,0.0,0.0,0.0,0.0,0.0,0.0,0.0,0.0,0.0,0.0,0.0,0.0,0.0,0.0,0.0,0.0,0.0,0.0,0.0,0.63,0.6325,0.6782,0.726,0.7648,0.7999,0.8207,0.8203,0.8321,0.8403,0.8403,0.8417,0.8553,0.8783,0.8848,0.8184,0.6773,0.7527,0.6948,0.5234,0.5098,0.5448,0.6442,0.4084,0.3726,0.5027,0.3726,0.2998,0.3026,0.3378,0.3162,0.3133,0.4052,0.4195,0.3764,0.2998,0.2791,0.2767,0.2736,0.2712,0.2692,0.0,0.0,0.0,0.0,0.0,0.0,0.0,0.0,0.0,0.0,0.0,0.0,0.0,0.0,0.0,0.0,0.0,0.0,0.0,0.0,0.0,0.0,0.0,0.9572,1.1048,1.1104,1.164,1.2892,1.3115,1.344,1.385,1.3098,1.2999,1.3369,1.2569,1.2809,1.3574,1.3462,1.3702,1.439,1.3369,1.3371,1.3652,1.297,1.2556,1.2288,1.1857,1.1638,1.1468,1.0875,0.0,0.0,0.0,0.0,0.0,0.0,0.0,0.0,0.0,0.0,0.0,0.0,0.0,0.0,0.0,0.0,0.0,0.0,0.0,0.0,0.0,0.0,0.0,0.0,0.6639,0.7092,0.7243,0.7488,0.7827,0.8289,0.8517,0.866,0.8713,0.8795,0.8848,0.8664,0.8796,0.8892,0.9122,0.8565,0.7841,0.6752,0.6752,0.6155,0.4594,0.4637,0.4998,0.5654,0.3777,0.36,0.4753,0.3584,0.322,0.0,0.3608,0.3563,0.3701,0.4275,0.4232,0.0,0.0,0.0,0.0,0.0,0.3067,0.2712,0.0,0.0,0.0,0.0,0.0,0.0,0.0,0.0,0.0,0.0,0.0,0.0,0.0,0.0,0.0,0.0,0.0,0.0,0.0,0.0,0.0,0.7627,0.8343,0.8984,0.9674,1.0134,1.0672,1.0992,1.1239,1.1499,1.1764,1.1724,1.1926,1.2188,1.212,1.2185,1.239,1.2308,1.252,1.268,1.2433,1.3363,1.4838,1.3849,1.3745,1.392,1.3376,1.2808,1.2264,1.1888,0.0,0.0,0.0,0.0,0.0,0.0,0.0,0.0,0.0,0.0,0.0,0.0,0.0,0.0,0.0,0.0,0.0,0.0,0.0,0.0,0.0,0.0,0.0,0.0,0.7297,0.7872,0.8252,0.8305,0.8419,0.8726,0.8836,0.8893,0.8913,0.8991,0.904,0.8864,0.8948,0.9036,0.912,0.0,0.0,0.0,0.0,0.5705,0.4718,0.4563,0.4147,0.3297,0.3076,0.3266,0.3481,0.3227,0.361,0.4633,0.4402,0.4338,0.4265,0.4489,0.39,0.31,0.3966,0.4639,0.5294,0.4312,0.3421,0.0,0.0,0.0,0.0,0.0,0.0,0.0,0.0,0.0,0.0,0.0,0.0,0.0,0.0,0.0,0.0,0.0,0.0,0.0,0.0,0.0,0.7739,0.8412,0.8102,0.8777,1.0346,0.9932,1.0252,1.1702,1.1697,1.1902,1.2338,1.1274,1.0941,1.1162,0.9927,1.0164,1.1331,1.1076,1.1765,1.283,1.2668,1.3107,1.3965,1.3425,1.3702,1.4481,1.3937,1.3839,1.3705,1.1873,1.1445,1.129,0.9613,0.871,0.0,0.0,0.0,0.0,0.0,0.0,0.0,0.0,0.0,0.0,0.0,0.0,0.0,0.0,0.0,0.0,0.0,0.0,0.0,0.7456,0.7925,0.8383,0.8889,0.8962,0.8958,0.8954,0.8971,0.904,0.8996,0.9024,0.9064,0.9136,0.9029,0.9087,0.9312,0.5965,0.4994,0.7427,0.5821,0.5,0.4761,0.4006,0.3789,0.4307,0.0,0.0,0.5413,0.3824,0.3621,0.4588,0.3817,0.3409,0.3372,0.4129,0.4289,0.405,0.3437,0.3228,0.339,0.3115,0.2908,0.2735,0.0,0.0,0.0,0.0,0.0,0.0,0.0,0.0,0.0,0.0,0.0,0.0,0.0,0.0,0.0,0.0,0.0,0.0,0.0,0.6265,0.6971,0.7518,0.7511,0.7948,0.9061,0.8921,0.9159,0.9978,0.9978,1.0315,1.0483,0.9845,0.9628,0.9821,0.9147,0.9245,1.0124,0.9937,1.0525,1.1121,1.1011,1.156,1.2532,1.279,1.3077,1.3332,1.3183,1.2817,1.2616,1.1417,1.0887,1.0703,0.9597,0.8857,0.8529,0.0,0.0,0.0,0.0,0.0,0.0,0.0,0.0,0.0,0.0,0.0,0.0,0.0,0.0,0.6161,0.0,0.0,0.7509,0.8048,0.8477,0.8848,0.9167,0.9056,0.9048,0.8964,0.9142,0.9004,0.9136,0.9148,0.9188,0.9083,0.7336,0.6175,0.6206,0.5429,0.504,0.5244,0.5043,0.463,0.4008,0.3424,0.3415,0.3982,0.337,0.3757,0.4544,0.3489,0.366,0.4641,0.3639,0.3414,0.3755,0.3737,0.374,0.3749,0.3107,0.2876,0.2844,0.3304,0.3095,0.2736,0.0,0.0,0.0,0.0,0.0,0.0,0.0,0.0,0.0,0.0,0.0,0.0,0.0,0.0,0.0,0.0,0.0,0.0,0.0,0.561,0.6121,0.6513,0.7019,0.7386,0.7599,0.7905,0.8081,0.8117,0.8281,0.8399,0.8473,0.8505,0.8619,0.8791,0.8885,0.9024,0.9199,0.9273,0.9346,0.9399,0.9334,1.0069,1.1156,1.1672,1.205,1.2415,1.2204,1.177,1.113,1.0733,1.0213,0.9635,0.928,0.8959,0.8546,0.8336,0.7624,0.0,0.0,0.0,0.0,0.0,0.0,0.0,0.0,0.5802,0.6006,0.6366,0.6602,0.6884,0.7358,0.7799,0.8215,0.8591,0.8958,0.9232,0.9342,0.9204,0.9216,0.9168,0.9148,0.9164,0.9033,0.906,0.8705,0.797,0.4979,0.3197,0.3223,0.5242,0.5647,0.3833,0.4236,0.4238,0.3431,0.323,0.323,0.323,0.3201,0.3399,0.342,0.3135,0.3692,0.4889,0.3844,0.3793,0.4129,0.3345,0.2994,0.3035,0.2949,0.2887,0.284,0.3671,0.3459,0.2744,0.0,0.0,0.0,0.0,0.0,0.0,0.0,0.0,0.0,0.0,0.0,0.0,0.0,0.0,0.0,0.0,0.0,0.0,0.0,0.5778,0.6268,0.6786,0.7174,0.7537,0.788,0.8003,0.8142,0.8305,0.8407,0.846,0.8477,0.8632,0.8803,0.8983,0.9073,0.9212,0.9379,0.9387,0.9399,0.9408,0.9395,0.9391,0.9561,0.9526,1.0996,1.2933,1.2439,1.1848,1.1312,1.0302,0.9547,0.9035,0.7911,0.7493,0.7221,0.6698,0.6362,0.5956,0.5581,0.5556,0.5573,0.579,0.5916,0.6137,0.0,0.6823,0.6941,0.7301,0.7586,0.7836,0.8052,0.8395,0.8787,0.9232,0.9346,0.9436,0.9612,0.9575,0.9356,0.9424,0.9368,0.9324,0.9126,0.9005,0.764,0.422,0.3415,0.3219,0.3225,0.5246,0.6461,0.6057,0.4442,0.3835,0.4641,0.3633,0.323,0.323,0.3201,0.3589,0.4585,0.3517,0.4066,0.5807,0.4789,0.3982,0.3192,0.2973,0.2981,0.3005,0.2941,0.2912,0.2896,0.299,0.2955,0.277,0.0,0.0,0.0,0.0,0.0,0.0,0.0,0.0,0.0,0.0,0.0,0.0,0.0,0.0,0.0,0.0,0.0,0.0,0.5464,0.59,0.6447,0.699,0.7358,0.7668,0.7929,0.8121,0.8285,0.8415,0.8505,0.8575,0.8624,0.8648,0.8783,0.9007,0.9048,0.9191,0.9412,0.9465,0.9518,0.9567,0.9567,0.9534,0.9461,0.9232,0.9706,1.0446,0.9879,0.9411,0.0,0.0,0.8085,0.7787,0.7402,0.7084,0.6749,0.6415,0.6166,0.5961,0.5814,0.5835,0.5953,0.6174,0.6415,0.6721,0.7194,0.7341,0.7529,0.8048,0.8285,0.8489,0.8775,0.8991,0.9203,0.0,0.953,0.9595,0.9669,0.9604,0.9522,0.9653,0.9665,0.8738,0.6042,0.8072,0.8679,0.7059,0.7062,0.5853,0.3428,0.4035,0.464,0.464,0.4238,0.4036,0.3835,0.3431,0.323,0.323,0.3219,0.3814,0.4814,0.3566,0.3521,0.4254,0.383,0.3424,0.3031,0.3001,0.3006,0.3026,0.2966,0.2953,0.2958,0.2868,0.2803,0.2754,0.0,0.0,0.0,0.0,0.0,0.0,0.0,0.0,0.0,0.0,0.0,0.0,0.0,0.0,0.0,0.0,0.0,0.0,0.0,0.5847,0.6431,0.7027,0.7419,0.0,0.7966,0.8211,0.8391,0.8509,0.8575,0.864,0.8697,0.866,0.8775,0.9007,0.9032,0.9195,0.9448,0.9514,0.9595,0.9677,0.9624,0.955,0.9432,0.9089,0.8705,0.8293,0.7872,0.7488,0.0,0.0,0.6713,0.6643,0.6917,0.6778,0.648,0.6296,0.6084,0.5921,0.5994,0.6117,0.628,0.6537,0.6929,0.7337,0.7672,0.7897,0.8179,0.8689,0.8881,0.9032,0.9273,0.9387,0.9473,0.9567,0.9616,0.9845,0.9845,0.9744,0.9603,0.9615,0.9611,0.8354,0.5171,0.7801,0.9232,0.8041,0.9059,0.8266,0.5244,0.4638,0.4235,0.3832,0.4438,0.4238,0.323,0.3431,0.3633,0.3633,0.3633,0.4036,0.4841,0.3989,0.3343,0.3096,0.3447,0.3434,0.305,0.302,0.3025,0.3046,0.2986,0.2975,0.2986,0.2912,0.2838,0.277,0.0,0.0,0.0,0.0,0.0,0.0,0.0,0.0,0.0,0.0,0.0,0.0,0.0,0.0,0.0,0.0,0.0,0.0,0.0,0.5545,0.6117,0.6831,0.7288,0.7697,0.8052,0.824,0.8424,0.8603,0.8607,0.8607,0.8611,0.8693,0.8828,0.9011,0.9101,0.9289,0.9538,0.9542,0.9595,0.9665,0.9485,0.9367,0.9232,0.8697,0.8158,0.7676,0.757,0.0,0.0,0.0,0.6161,0.5994,0.6259,0.6337,0.6292,0.6112,0.5806,0.5582,0.5847,0.6112,0.6419,0.6864,0.7444,0.7978,0.8248,0.8652,0.9024,0.922,0.9399,0.9493,0.9416,0.9477,0.9571,0.9661,0.9604,0.9546,0.9947,0.9794,0.9611,0.9607,0.886,0.827,0.0,0.9281,0.7888,0.377,0.7358,0.9599,0.9492,0.8072,0.6654,0.5448,0.5045,0.4238,0.323,0.4238,0.4843,0.4843,0.4843,0.4843,0.4839,0.4753,0.4102,0.3096,0.4213,0.4004,0.305,0.302,0.3025,0.3046,0.2986,0.2962,0.2958,0.2927,0.2896,0.2853,0.0,0.0,0.0,0.0,0.0,0.0,0.0,0.0,0.0,0.0,0.0,0.0,0.0,0.0,0.0,0.0,0.0,0.0,0.0,0.5431,0.5994,0.6476,0.7101,0.7521,0.7701,0.7999,0.8244,0.8428,0.8489,0.8579,0.8689,0.8664,0.8746,0.8918,0.895,0.9048,0.9191,0.9252,0.9297,0.9301,0.906,0.8909,0.8762,0.8097,0.7546,0.706,0.0,0.0,0.0,0.0,0.5545,0.5516,0.5786,0.579,0.5696,0.5692,0.5733,0.5863,0.6255,0.6688,0.7137,0.7591,0.8044,0.8468,0.8795,0.9081,0.9273,0.9281,0.9134,0.8962,0.8811,0.8762,0.8771,0.8864,0.9052,0.9403,0.9662,0.9755,0.9368,0.8689,0.8106,0.0,0.0,0.0,0.0,0.7207,0.7462,0.7721,0.8197,0.6838,0.5851,0.5045,0.4843,0.4641,0.4238,0.5448,0.5649,0.4843,0.4843,0.444,0.3833,0.4356,0.4131,0.3153,0.3467,0.3446,0.308,0.305,0.3031,0.302,0.2999,0.2979,0.2956,0.2906,0.2894,0.289,0.0,0.0,0.0,0.0,0.0,0.0,0.0,0.0,0.0,0.0,0.0,0.0,0.0,0.0,0.0,0.0,0.0,0.0,0.0,0.0,0.5586,0.601,0.6566,0.6921,0.7043,0.7305,0.7529,0.7713,0.7864,0.8032,0.8211,0.8252,0.8366,0.8538,0.8566,0.8652,0.8771,0.8828,0.8799,0.8689,0.8411,0.8174,0.7913,0.7284,0.6786,0.0,0.0,0.0,0.0,0.5157,0.51,0.5132,0.5341,0.5369,0.5369,0.5553,0.5798,0.6129,0.668,0.7174,0.7644,0.8097,0.8481,0.882,0.9085,0.9256,0.931,0.9126,0.8824,0.8505,0.8232,0.8081,0.804,0.8332,0.8577,0.9003,0.9569,0.973,0.941,0.8448,0.8089,0.805,0.0,0.0,0.0,0.8928,0.8124,0.744,0.7289,0.7,0.6444,0.542,0.5839,0.5851,0.5446,0.6052,0.5851,0.4843,0.4825,0.4224,0.3228,0.3946,0.3739,0.3183,0.3092,0.3069,0.3095,0.3052,0.3031,0.302,0.2987,0.2969,0.2954,0.2896,0.2886,0.2893,0.0,0.0,0.0,0.0,0.0,0.0,0.0,0.0,0.0,0.0,0.0,0.0,0.0,0.0,0.0,0.0,0.0,0.0,0.0,0.0,0.0,0.5443,0.5745,0.5982,0.6149,0.6251,0.639,0.657,0.6827,0.7047,0.7227,0.7488,0.7701,0.7868,0.7954,0.8089,0.8252,0.8252,0.8105,0.7848,0.7574,0.7207,0.6778,0.6321,0.0,0.0,0.0,0.0,0.0,0.4839,0.4843,0.4871,0.4969,0.5128,0.5349,0.5716,0.6019,0.639,0.7109,0.7566,0.7946,0.8387,0.8754,0.9028,0.9109,0.9187,0.9134,0.8754,0.8448,0.8109,0.7664,0.7456,0.7565,0.7918,0.8054,0.844,0.9525,0.9586,0.9408,0.8701,0.8624,0.8603,0.8334,0.8523,0.0,0.8668,0.0,0.8707,0.7356,0.8742,0.8632,0.6564,0.7624,0.7663,0.6455,0.6455,0.5848,0.4839,0.4798,0.4199,0.3424,0.3336,0.3133,0.318,0.3093,0.3071,0.3093,0.3032,0.3022,0.3039,0.295,0.2932,0.295,0.2894,0.2874,0.2866,0.0,0.0,0.0,0.0,0.0,0.0,0.0,0.0,0.0,0.0,0.0,0.0,0.0,0.0,0.0,0.0,0.0,0.0,0.0,0.0,0.0,0.0,0.0,0.0,0.0,0.0,0.0,0.0,0.0,0.6545,0.6664,0.6798,0.6888,0.6937,0.7027,0.7088,0.7129,0.7133,0.7096,0.7011,0.0,0.6558,0.6398,0.0,0.0,0.0,0.0,0.0,0.0,0.4859,0.4969,0.5165,0.5324,0.5545,0.5831,0.6259,0.6672,0.7113,0.7701,0.8125,0.8477,0.8791,0.8942,0.8995,0.895,0.8803,0.8538,0.804,0.7456,0.6917,0.6533,0.6453,0.6653,0.6814,0.7627,0.0,0.8753,0.8815,0.8969,0.8905,0.8935,0.8913,0.8623,0.8736,0.0,0.0,0.9065,0.9044,0.8783,0.8573,0.8231,0.7556,0.7824,0.7663,0.6455,0.5649,0.5427,0.5988,0.5215,0.4996,0.5337,0.4743,0.4342,0.4331,0.3494,0.3091,0.3093,0.3032,0.2998,0.298,0.2934,0.2908,0.2894,0.2879,0.2874,0.2872,0.0,0.0,0.0,0.0,0.0,0.0,0.0,0.0,0.0,0.0,0.0,0.0,0.0,0.0,0.0,0.0,0.0,0.0,0.0,0.0,0.0,0.0,0.0,0.0,0.0,0.0,0.0,0.0,0.0,0.0,0.0,0.6035,0.6137,0.6178,0.6272,0.6333,0.6366,0.0,0.0,0.0,0.0,0.0,0.0,0.0,0.0,0.0,0.0,0.0,0.0,0.5214,0.5377,0.5586,0.5843,0.6084,0.637,0.6856,0.7235,0.7607,0.8105,0.8477,0.8758,0.8909,0.8946,0.886,0.8534,0.8313,0.7966,0.7223,0.6656,0.6194,0.5872,0.5753,0.5893,0.0,0.0,0.0,0.8419,0.8711,0.896,0.9075,0.9135,0.894,0.884,0.8957,0.9094,0.0,0.9109,0.8996,0.8707,0.8708,0.8382,0.7905,0.841,0.827,0.7261,0.6052,0.5633,0.5604,0.5611,0.5595,0.5561,0.4951,0.4745,0.4735,0.0,0.3097,0.3092,0.3017,0.2984,0.2976,0.2919,0.2896,0.289,0.2879,0.2874,0.2874,0.0,0.0,0.0,0.0,0.0,0.0,0.0,0.0,0.0,0.0,0.0,0.0,0.0,0.0,0.0,0.0,0.0,0.0,0.0,0.0,0.0,0.0,0.0,0.0,0.0,0.0,0.0,0.0,0.0,0.0,0.0,0.0,0.0,0.0,0.0,0.0,0.0,0.0,0.0,0.0,0.0,0.0,0.0,0.0,0.0,0.0,0.0,0.0,0.0,0.0,0.5912,0.6072,0.6443,0.6705,0.697,0.748,0.7754,0.7983,0.8424,0.8713,0.8889,0.8889,0.8844,0.864,0.8036,0.7754,0.7354,0.6419,0.6006,0.5733,0.5484,0.5245,0.5403,0.5882,0.0,0.6477,0.8336,0.8874,0.9065,0.9036,0.9086,0.8913,0.8926,0.8995,0.9118,0.9301,0.9232,0.8802,0.7855,0.8841,0.9126,0.8264,0.8998,0.9074,0.8065,0.7059,0.6047,0.5235,0.6196,0.6196,0.5224,0.5153,0.4936,0.4753,0.0,0.0,0.3085,0.2998,0.2977,0.2992,0.2908,0.2889,0.2908,0.2883,0.2874,0.2874,0.0,0.0,0.0,0.0,0.0,0.0,0.0,0.0,0.0,0.0,0.0,0.0,0.0,0.0,0.0,0.0,0.0,0.0,0.0,0.0,0.0,0.0,0.0,0.0,0.0,0.0,0.0,0.0,0.0,0.0,0.0,0.0,0.0,0.0,0.0,0.0,0.0,0.0,0.0,0.0,0.0,0.0,0.0,0.0,0.0,0.0,0.0,0.0,0.0,0.0,0.6272,0.6549,0.6986,0.735,0.7689,0.8081,0.8272,0.8436,0.8811,0.895,0.8983,0.8983,0.8705,0.8301,0.7819,0.7178,0.6509,0.5888,0.5488,0.521,0.4982,0.5056,0.5141,0.5109,0.6743,0.8203,0.8509,0.8903,0.9015,0.9157,0.9052,0.9126,0.9203,0.9224,0.0,0.0,0.0,0.92,0.9272,0.9392,0.9648,0.9432,0.8657,0.827,0.8065,0.7059,0.6832,0.7377,0.7621,0.7589,0.7292,0.6586,0.5556,0.4667,0.352,0.0,0.3055,0.2988,0.2965,0.2962,0.2898,0.2876,0.2881,0.2875,0.2874,0.2874,0.0,0.0,0.0,0.0,0.0,0.0,0.0,0.0,0.0,0.0,0.0,0.0,0.0,0.0,0.0,0.0,0.0,0.0,0.0,0.0,0.0,0.0,0.0,0.0,0.0,0.0,0.478,0.4835,0.0,0.4835,0.4835,0.524,0.5445,0.545,0.0,0.0,0.0,0.0,0.0,0.0,0.0,0.0,0.0,0.0,0.0,0.0,0.0,0.0,0.0,0.0,0.6178,0.6647,0.7382,0.7827,0.813,0.8399,0.8575,0.8717,0.8889,0.8971,0.8983,0.8889,0.8526,0.8003,0.7272,0.666,0.6051,0.5365,0.5088,0.4965,0.4866,0.4905,0.494,0.4956,0.6533,0.7986,0.8463,0.854,0.8587,0.8962,0.9089,0.9179,0.9273,0.9322,0.9403,0.9534,0.0,0.9546,0.9542,0.9587,0.9632,0.9681,0.8672,0.827,0.8873,0.7864,0.7647,0.8011,0.8654,0.8228,0.7162,0.6595,0.575,0.468,0.3509,0.0,0.3047,0.2987,0.2961,0.2956,0.2897,0.2874,0.2875,0.289,0.2886,0.2876,0.0,0.0,0.0,0.0,0.0,0.0,0.0,0.0,0.0,0.0,0.0,0.0,0.0,0.0,0.0,0.0,0.0,0.0,0.0,0.0,0.0,0.0,0.0,0.0,0.0,0.0,0.0,0.4886,0.5354,0.0,0.0,0.0,0.0,0.0,0.5813,0.5673,0.5795,0.0,0.0,0.0,0.0,0.4822,0.0,0.0,0.0,0.0,0.0,0.0,0.523,0.5631,0.6048,0.6464,0.7341,0.7868,0.8195,0.8383,0.8587,0.8775,0.8848,0.8922,0.893,0.8726,0.8309,0.7705,0.6774,0.6235,0.5729,0.4986,0.4834,0.4863,0.4953,0.4859,0.4797,0.4997,0.5968,0.7055,0.8102,0.8111,0.8133,0.8881,0.9048,0.9158,0.9269,0.9342,0.0,0.9534,0.0,0.0,0.9575,0.9571,0.9604,0.9677,0.8873,0.8873,0.9681,0.8873,0.8471,0.8471,0.926,0.8453,0.6452,0.6393,0.574,0.4318,0.3507,0.0,0.0,0.2984,0.3142,0.3314,0.3075,0.3053,0.3236,0.2898,0.2897,0.2886,0.0,0.0,0.0,0.0,0.0,0.0,0.0,0.0,0.0,0.0,0.0,0.0,0.0,0.0,0.0,0.0,0.0,0.0,0.0,0.0,0.0,0.0,0.0,0.0,0.0,0.0,0.0,0.6939,0.6549,0.0,0.0,0.0,0.0,0.0,0.0,0.6485,0.6638,0.5889,0.0,0.0,0.0,0.0,0.0,0.0,0.0,0.0,0.0,0.5519,0.5156,0.6186,0.6255,0.5929,0.6431,0.7056,0.7635,0.7819,0.8117,0.8456,0.8783,0.8877,0.8824,0.8562,0.8032,0.7382,0.6635,0.5994,0.5418,0.4932,0.4834,0.4762,0.485,0.4826,0.4797,0.4834,0.5265,0.59,0.6792,0.7585,0.833,0.8713,0.8913,0.9089,0.9265,0.9289,0.9363,0.953,0.0,0.0,0.9669,0.9669,0.9673,0.9681,0.9681,0.9681,0.9681,0.9681,0.948,0.9476,0.9595,0.84,0.6452,0.6393,0.5147,0.3339,0.314,0.0,0.0,0.2975,0.3496,0.4009,0.3247,0.3412,0.413,0.3236,0.2893,0.2912,0.0,0.0,0.0,0.0,0.0,0.0,0.0,0.0,0.0,0.0,0.0,0.0,0.0,0.0,0.0,0.0,0.0,0.0,0.0,0.0,0.0,0.0,0.0,0.0,0.0,0.0,0.6655,0.657,0.6886,0.0,0.0,0.0,0.0,0.0,0.0,0.7161,0.7171,0.6056,0.0,0.0,0.0,0.0,0.0,0.0,0.0,0.0,0.0,0.0,0.5625,0.6108,0.5877,0.5502,0.6025,0.6267,0.6537,0.7264,0.7729,0.8093,0.8452,0.8664,0.8738,0.8526,0.7872,0.7137,0.6582,0.588,0.5251,0.4904,0.4834,0.4847,0.4778,0.4758,0.4826,0.4781,0.5008,0.5452,0.6115,0.6741,0.7399,0.8305,0.8526,0.8783,0.0,0.0,0.9432,0.0,0.0,0.0,0.9677,0.9681,0.9681,0.9681,0.9681,0.9681,0.9681,0.9681,0.9681,0.9681,0.9644,0.884,0.7459,0.6751,0.5511,0.412,0.4047,0.0,0.0,0.3875,0.4022,0.4185,0.3245,0.3053,0.3414,0.3074,0.2896,0.2896,0.0,0.0,0.0,0.0,0.0,0.0,0.0,0.0,0.0,0.0,0.0,0.0,0.0,0.0,0.0,0.0,0.0,0.0,0.0,0.0,0.0,0.0,0.0,0.0,0.0,0.0,0.7033,0.6759,0.7433,0.7796,0.0,0.0,0.8568,0.8568,0.0,0.0,0.0,0.0,0.0,0.0,0.0,0.0,0.0,0.0,0.0,0.0,0.0,0.0,0.0,0.0,0.0,0.5836,0.6189,0.6258,0.0,0.6953,0.7302,0.7611,0.8023,0.833,0.8501,0.835,0.7672,0.6921,0.6443,0.5749,0.5132,0.4888,0.4834,0.4935,0.5236,0.5035,0.4834,0.0,0.5035,0.5247,0.5921,0.621,0.6745,0.7795,0.0,0.8305,0.0,0.9248,0.9481,0.0,0.0,0.0,0.0,0.9616,0.9624,0.9677,0.9653,0.9653,0.9681,0.9681,0.9665,0.964,0.9612,0.9001,0.7994,0.708,0.624,0.5054,0.495,0.0,0.0,0.4764,0.4726,0.471,0.36,0.3233,0.3236,0.3087,0.2909,0.2906,0.0,0.0,0.0,0.0,0.0,0.0,0.0,0.0,0.0,0.0,0.0,0.0,0.0,0.0,0.0,0.0,0.0,0.0,0.0,0.0,0.0,0.0,0.0,0.0,0.0,0.0,0.0,0.8016,0.8203,0.839,0.8568,0.8568,0.8568,0.8568,0.0,0.0,0.0,0.0,0.0,0.0,0.0,0.0,0.0,0.0,0.0,0.0,0.0,0.0,0.0,0.0,0.0,0.0,0.0,0.7141,0.7129,0.0,0.6954,0.6982,0.7521,0.7864,0.8048,0.7962,0.7395,0.6717,0.6178,0.5565,0.5059,0.4871,0.4834,0.5135,0.6147,0.5541,0.5035,0.5842,0.5507,0.5296,0.5843,0.6227,0.6656,0.0,0.0,0.7648,0.8285,0.8987,0.0,0.0,0.0,0.0,0.0,0.9461,0.9493,0.9677,0.9591,0.9587,0.9681,0.9681,0.9636,0.9542,0.9452,0.8822,0.7837,0.7766,0.7118,0.0,0.0,0.0,0.0,0.5826,0.5793,0.5562,0.4666,0.4307,0.4134,0.3268,0.2935,0.2961,0.0,0.0,0.0,0.0,0.0,0.0,0.0,0.0,0.0,0.0,0.0,0.0,0.0,0.0,0.0,0.0,0.0,0.0,0.0,0.0,0.0,0.0,0.0,0.0,0.0,0.0,0.0,0.0,0.0,0.839,0.8568,0.8568,0.8568,0.8568,0.8568,0.8601,0.0,0.0,0.0,0.0,0.0,0.0,0.0,0.0,0.0,0.0,0.0,0.0,0.0,0.0,0.0,0.0,0.0,0.0,0.0,0.7177,0.7106,0.6979,0.6764,0.6941,0.7129,0.7039,0.6611,0.6137,0.5839,0.5824,0.5803,0.567,0.6037,0.6537,0.6842,0.6242,0.5785,0.6137,0.5593,0.5255,0.5671,0.6092,0.0,0.7276,0.8032,0.8624,0.0,0.0,0.0,0.0,0.0,0.0,0.0,0.9403,0.9403,0.9579,0.9559,0.9587,0.9681,0.9681,0.9632,0.9542,0.9514,0.9268,0.8818,0.8153,0.7529,0.0,0.0,0.0,0.0,0.6706,0.6296,0.5562,0.4666,0.3949,0.3234,0.3063,0.2905,0.293,0.0,0.0,0.0,0.0,0.0,0.0,0.0,0.0,0.0,0.0,0.0,0.0,0.0,0.0,0.0,0.0,0.0,0.0,0.0,0.0,0.0,0.0,0.0,0.0,0.0,0.0,0.0,0.0,0.0,0.0,0.0,0.0,0.8666,0.8658,0.8601,0.8568,0.0,0.0,0.0,0.0,0.0,0.0,0.5218,0.0,0.0,0.0,0.0,0.0,0.0,0.0,0.0,0.0,0.0,0.0,0.0,0.0,0.7545,0.735,0.6358,0.6313,0.6513,0.6896,0.6528,0.6244,0.6392,0.6516,0.6524,0.6453,0.6842,0.7335,0.7633,0.6742,0.629,0.6941,0.6142,0.566,0.6398,0.703,0.0,0.8209,0.0,0.0,0.0,0.0,0.0,0.0,0.0,0.0,0.0,0.9326,0.9297,0.944,0.9444,0.9501,0.9628,0.9628,0.9599,0.9542,0.951,0.9444,0.9354,0.8688,0.8251,0.0,0.0,0.0,0.0,0.7405,0.6637,0.5562,0.4666,0.3771,0.2875,0.2886,0.2908,0.2932,0.0,0.0,0.0,0.0,0.0,0.0,0.0,0.0,0.0,0.0,0.0,0.0,0.0,0.0,0.0,0.0,0.0,0.0,0.0,0.0,0.0,0.0,0.0,0.0,0.0,0.0,0.0,0.8268,0.8284,0.856,0.9072,0.0,0.0,0.8812,0.8658,0.8576,0.0,0.0,0.0,0.0,0.0,0.0,0.0,0.0,0.0,0.0,0.0,0.0,0.0,0.0,0.0,0.0,0.0,0.0,0.0,0.0,0.0,0.0,0.0,0.6137,0.6484,0.734,0.7109,0.7028,0.7598,0.7491,0.0,0.7235,0.7335,0.7633,0.8329,0.7235,0.6648,0.8158,0.7172,0.6535,0.7877,0.8815,0.0,0.0,0.8903,0.0,0.0,0.0,0.0,0.0,0.0,0.0,0.0,0.9224,0.9171,0.9248,0.9256,0.935,0.953,0.9534,0.953,0.9522,0.944,0.9354,0.9269,0.9183,0.9093,0.0,0.0,0.0,0.0,0.7563,0.6637,0.5562,0.4666,0.3771,0.2876,0.2904,0.2934,0.3146,0.0,0.0,0.0,0.0,0.0,0.0,0.0,0.0,0.0,0.0,0.0,0.0,0.0,0.0,0.0,0.0,0.0,0.0,0.0,0.0,0.0,0.0,0.0,0.0,0.0,0.0,0.0,0.8081,0.8219,0.8495,0.8885,0.8991,0.0,0.0,0.0,0.0,0.0,0.0,0.0,0.0,0.0,0.0,0.0,0.0,0.0,0.0,0.8513,0.8734,0.0,0.0,0.0,0.0,0.0,0.0,0.0,0.0,0.7984,0.787,0.6917,0.0,0.6973,0.7214,0.7217,0.7194,0.0,0.773,0.8131,0.8131,0.8634,0.913,0.9327,0.8528,0.8006,0.8536,0.7941,0.7522,0.8166,0.8624,0.0,1.119,0.9816,0.0,0.0,0.0,0.0,0.0,0.0,0.0,0.0,0.906,0.9016,0.8971,0.9036,0.9191,0.9436,0.944,0.9408,0.9342,0.9322,0.9265,0.9175,0.9154,0.9093,0.0,0.0,0.0,0.8545,0.7563,0.6637,0.5562,0.4666,0.3771,0.2875,0.2882,0.3462,0.4065,0.0,0.0,0.0,0.0,0.0,0.0,0.0,0.0,0.0,0.0,0.0,0.0,0.0,0.0,0.0,0.0,0.0,0.0,0.0,0.0,0.0,0.0,0.0,0.0,0.0,0.0,0.0,0.0,0.0,0.8552,0.0,0.0,0.0,0.0,0.0,0.0,0.0,0.0,0.0,0.0,0.7584,0.0,0.0,0.0,0.0,0.0,0.8689,0.8731,0.0,0.8877,0.8901,0.8852,0.0,0.0,0.0,0.0,0.8487,0.8452,0.8087,0.7524,0.7254,0.7621,0.7733,0.7832,0.823,0.8634,0.8931,0.8931,0.9327,0.9624,0.9624,0.8931,0.8607,0.916,0.8772,0.8917,1.032,0.0,1.0756,1.2631,1.1461,0.0,0.0,0.0,0.0,0.0,0.0,0.0,0.0,1.1051,1.1021,1.0961,1.1071,1.046,0.9285,0.9367,0.9383,0.9338,0.9301,0.9232,0.9142,0.9056,0.8991,0.0,0.0,0.0,0.8545,0.7204,0.6279,0.5562,0.4128,0.3412,0.2874,0.3412,0.4001,0.4617,0.0,0.0,0.0,0.0,0.0,0.0,0.0,0.0,0.0,0.0,0.0,0.0,0.0,0.0,0.0,0.0,0.0,0.0,0.0,0.0,0.0,0.0,0.0,0.0,0.0,0.0,0.0,0.0,0.0,0.0,0.0,0.0,0.9153,0.0,0.0,0.0,0.0,0.0,0.0,0.8568,0.8568,0.0,0.0,0.0,0.0,0.0,0.0,0.0,0.0,0.8731,0.8779,0.8812,0.8966,0.0,0.0,0.0,0.0,0.0,0.912,0.827,0.7544,0.8357,0.8612,0.8733,0.9426,0.9624,0.9624,0.9624,0.9624,0.9632,0.9665,0.9084,0.8967,0.9871,0.9892,1.0544,1.2958,1.2521,1.2705,1.4268,0.0,0.0,0.0,0.0,0.0,0.0,0.0,0.0,0.0,1.3413,1.3407,1.3431,1.3337,1.2096,0.9496,0.9666,0.9561,0.9367,0.9281,0.9199,0.9118,0.8946,0.8864,0.8844,0.0,0.0,0.8529,0.6479,0.5741,0.5741,0.3769,0.3233,0.3412,0.4307,0.4721,0.4974,0.0,0.0,0.0,0.0,0.0,0.0,0.0,0.0,0.0,0.0,0.0,0.0,0.0,0.0,0.0,0.0,0.0,0.0,0.0,0.0,0.0,0.0,0.0,0.0,0.0,0.0,0.0,0.0,0.0,0.0,0.9145,0.9421,0.9388,0.9088,0.0,0.0,0.8568,0.8568,0.8568,0.8568,0.8568,0.0,0.0,0.0,0.0,0.0,0.0,0.0,0.0,0.8601,0.8609,0.8609,0.8641,0.0,0.0,0.0,0.0,0.0,0.9023,0.9037,0.9068,0.9196,0.9315,0.9426,0.9525,0.9624,0.9624,0.9624,0.9624,0.9673,0.0,0.9871,1.008,0.0,0.0,1.2628,0.0,0.0,1.3865,0.0,0.0,0.0,0.0,0.0,0.0,0.0,0.0,0.0,0.0,1.3187,1.3175,1.3474,1.2113,1.1253,1.0885,1.1013,1.0507,0.9183,0.9093,0.904,0.9024,0.8918,0.8828,0.0,0.0,0.8693,0.8449,0.6461,0.6279,0.6815,0.4845,0.4487,0.5204,0.5383,0.6143,0.6932,0.0,0.0,0.0,0.0,0.0,0.0,0.0,0.0,0.0,0.0,0.0,0.0,0.0,0.0,0.0,0.0,0.0,0.0,0.0,0.0,0.0,0.0,0.0,0.0,0.0,0.0,0.0,0.0,0.0,0.8877,0.9242,0.9405,0.934,0.9088,0.0,0.8723,0.8568,0.8568,0.8568,0.8568,0.0,0.0,0.0,0.0,0.0,0.0,0.0,0.0,0.0,0.0,0.8568,0.8568,0.8568,0.0,0.0,0.0,0.0,0.0,0.8796,0.908,0.9356,0.9356,0.9559,0.9738,0.9648,0.9624,0.9624,0.9624,0.9624,0.0,0.0,0.0,1.0818,1.1955,0.0,1.3766,1.4716,1.4516,1.4731,0.0,0.0,0.0,0.0,0.0,0.0,0.0,0.0,0.0,0.0,0.0,1.5514,1.5759,1.5063,1.4173,1.3641,1.2894,1.1253,0.9069,0.8979,0.8909,0.8856,0.8771,0.8705,0.8664,0.0,0.8644,0.8429,0.7173,0.6815,0.6994,0.5562,0.5383,0.5744,0.6317,0.7228,0.7948,0.0,0.0,0.0,0.0,0.0,0.0,0.0,0.0,0.0,0.0,0.0,0.0,0.0,0.0,0.0,0.0,0.0,0.0,0.0,0.0,0.0,0.0,0.0,0.0,0.0,0.0,0.804,0.8357,0.8617,0.8982,0.9421,0.9372,0.9259,0.0,0.0,0.8723,0.8568,0.8568,0.8568,0.8568,0.0,0.0,0.0,0.0,0.0,0.0,0.0,0.0,0.0,0.0,0.0,0.0,0.0,0.0,0.0,0.8568,0.8658,0.8739,0.8649,0.8982,0.9356,0.9356,0.9592,0.9835,0.9868,0.9843,0.9851,0.9973,0.9973,0.0,0.0,1.0842,0.0,1.3246,1.4058,1.4692,0.0,0.0,0.0,0.0,0.0,0.0,0.0,0.0,0.0,0.0,0.0,0.0,0.0,0.0,1.7486,1.7843,1.727,1.634,1.5073,1.343,1.1609,0.9533,0.9065,0.8803,0.873,0.8648,0.8607,0.8607,0.8607,0.8607,0.8607,0.7531,0.7352,0.7352,0.6458,0.6099,0.6464,0.7235,0.7941,0.8615,0.0,0.0,0.0,0.0,0.0,0.0,0.0,0.0,0.0,0.0,0.0,0.0,0.0,0.0,0.0,0.0,0.0,0.0,0.0,0.0,0.0,0.0,0.0,0.0,0.0,0.8065,0.8349,0.8552,0.9056,0.9405,0.9608,0.9437,0.9259,0.9088,0.0,0.8723,0.8568,0.8568,0.8568,0.8568,0.8568,0.0,0.0,0.0,0.0,0.0,0.0,0.0,0.0,0.0,0.0,0.0,0.0,0.0,0.8568,0.8568,0.8576,0.8617,0.8763,0.9072,0.9356,0.9356,0.9502,0.9819,1.0469,1.0493,1.0517,1.1005,1.098,1.0932,0.0,1.1987,1.2938,1.3734,1.4741,0.0,0.0,0.0,0.0,0.0,0.0,0.0,0.0,0.0,0.0,0.0,0.0,0.0,0.0,0.0,0.0,1.7648,1.6062,1.462,1.3455,1.1759,1.0865,1.0901,0.9334,0.8742,0.873,0.8648,0.8607,0.8607,0.8607,0.8607,0.8607,0.7531,0.771,0.8429,0.7531,0.771,0.8429,0.8437,0.8611,0.8607,0.0,0.0,0.0,0.0,0.0,0.0,0.0,0.0,0.0,0.0,0.0,0.0,0.0,0.0,0.0,0.0,0.0,0.0,0.0,0.0,0.0,0.0,0.0,0.7278,0.7827,0.8105,0.8487,0.8893,0.9202,0.9388,0.9453,0.9275,0.0,0.0,0.0,0.8723,0.8568,0.8568,0.8568,0.8568,0.8568,0.8568,0.0,0.0,0.0,0.0,0.0,0.0,0.0,0.0,0.8568,0.8568,0.8568,0.8568,0.8568,0.8568,0.8568,0.8584,0.8649,0.8999,0.9356,0.9356,0.9575,0.9949,1.055,1.0729,1.085,1.1159,1.1435,1.1687,1.1866,0.0,1.3734,1.4448,0.0,0.0,0.0,0.0,0.0,0.0,0.0,0.0,0.0,0.0,0.0,0.0,0.0,0.0,0.0,0.0,0.0,1.7632,1.6758,1.6156,1.5852,1.3311,1.2022,1.2119,0.9747,0.8656,0.8652,0.8624,0.8607,0.8607,0.8607,0.8607,0.8607,0.825,0.825,0.8607,0.825,0.825,0.8607,0.8607,0.8607,0.8607,0.0,0.0,0.0,0.0,0.0,0.0,0.0,0.0,0.0,0.0,0.0,0.0,0.0,0.0,0.0,0.0,0.0,0.0,0.0,0.0,0.0,0.0,0.0,0.7187,0.7659,0.7967,0.839,0.8934,0.9161,0.9275,0.9267,0.0,0.0,0.0,0.8844,0.8755,0.8649,0.8649,0.8617,0.8568,0.8568,0.8568,0.0,0.0,0.0,0.0,0.0,0.0,0.0,0.0,0.8568,0.8568,0.8568,0.8568,0.8568,0.8568,0.8568,0.8576,0.8633,0.895,0.9283,0.934,0.9665,1.016,1.0867,1.1126,1.1354,1.1809,1.215,1.2418,1.2613,1.3327,0.0,0.0,0.0,0.0,0.0,0.0,0.0,0.0,0.0,0.0,0.0,0.0,0.0,0.0,0.0,0.0,0.0,0.0,0.0,0.0,1.7234,1.6816,1.6046,1.3978,1.2509,1.1444,0.9496,0.8607,0.8607,0.8607,0.8607,0.8607,0.8607,0.8607,0.8607,0.8607,0.8607,0.8607,0.8607,0.8607,0.8607,0.8607,0.8607,0.8607,0.0,0.0,0.0,0.0,0.0,0.0,0.0,0.0,0.0,0.0,0.0,0.0,0.0,0.0,0.0,0.0,0.0,0.0,0.0,0.0,0.0,0.0,0.0,0.6928,0.7464,0.7667,0.8024,0.8568,0.8926,0.9096,0.9088,0.8909,0.0,0.0,0.8901,0.882,0.882,0.882,0.8723,0.8568,0.8568,0.8568,0.8568,0.0,0.0,0.0,0.0,0.0,0.0,0.0,0.8568,0.8568,0.8568,0.8568,0.8568,0.8568,0.8568,0.8609,0.8771,0.8958,0.9145,0.9315,0.977,1.0452,1.1516,1.1768,1.2085,1.3157,1.323,1.3157,1.3344,1.3669,0.0,1.4854,0.0,0.0,0.0,0.0,0.0,0.0,0.0,0.0,0.0,0.0,0.0,0.0,0.0,0.0,0.0,0.0,0.0,0.0,1.7112,1.569,1.2863,1.2863,1.1444,0.8607,0.8607,0.8607,0.8607,0.8607,0.8607,0.8607,0.8607,0.8607,0.8607,0.8607,0.8607,0.8607,0.8607,0.8607,0.8607,0.8607,0.8607,0.8607,0.0,0.0,0.0,0.0,0.0,0.0,0.0,0.0,0.0,0.0,0.0,0.0,0.0,0.0,0.0,0.0,0.0,0.0,0.0,0.0,0.0,0.0,0.0,0.0,0.0,0.0,0.8081,0.8747,0.8852,0.8901,0.0,0.0,0.0,0.8909,0.8982,0.8942,0.882,0.882,0.8723,0.8568,0.8568,0.8568,0.8568,0.0,0.0,0.0,0.0,0.0,0.0,0.0,0.0,0.0,0.8568,0.8568,0.8568,0.8568,0.8649,0.8755,0.8804,0.9137,0.951,0.9681,1.0233,1.094,1.176,1.1955,1.2296,1.3498,1.3807,1.3872,1.3928,1.4326,0.0,1.5277,0.0,0.0,0.0,0.0,0.0,0.0,0.0,0.0,0.0,0.0,0.0,0.0,0.0,0.0,0.0,0.0,0.0,0.0,1.7112,1.6217,1.4448,1.3394,1.1976,1.0021,0.9139,0.8607,0.8607,0.8607,0.8607,0.8607,0.8607,0.8607,0.8607,0.8607,0.8607,0.8607,0.8607,0.8607,0.8607,0.8607,0.8607,0.8607,0.0,0.0,0.0,0.0,0.0,0.0,0.0,0.0,0.0,0.0,0.5571,0.5766,0.0,0.0,0.0,0.0,0.0,0.0,0.0,0.0,0.0,0.0,0.0,0.0,0.0,0.7557,0.7967,0.0,0.0,0.0,0.0,0.0,0.8861,0.8934,0.912,0.9096,0.8934,0.8934,0.8787,0.8568,0.8568,0.8568,0.8568,0.0,0.0,0.0,0.0,0.0,0.0,0.0,0.0,0.0,0.8568,0.8568,0.8568,0.8568,0.8739,0.895,0.9015,0.9372,0.9811,1.0128,1.0639,1.1297,1.2158,1.2735,1.3368,1.4343,1.4513,1.4538,1.4684,1.4846,0.0,0.0,0.0,0.0,0.0,0.0,0.0,0.0,0.0,0.0,0.0,0.0,0.0,0.0,0.0,0.0,0.0,0.0,0.0,0.0,1.6974,1.6261,1.4977,1.3507,1.2102,1.0728,0.9317,0.8607,0.8607,0.8607,0.8607,0.8607,0.8607,0.8607,0.8607,0.8607,0.8607,0.8607,0.8607,0.8607,0.8603,0.8566,0.8575,0.8603,0.0,0.0,0.0,0.0,0.0,0.0,0.0,0.0,0.0,0.0,0.5661,0.5872,0.0,0.0,0.0,0.0,0.0,0.0,0.0,0.0,0.0,0.0,0.0,0.0,0.0,0.0,0.0,0.0,0.0,0.0,0.0,0.0,0.8934,0.9104,0.9291,0.9275,0.9096,0.9096,0.8893,0.8568,0.8568,0.8568,0.8568,0.8568,0.0,0.0,0.0,0.0,0.0,0.0,0.0,0.0,0.8568,0.8568,0.8568,0.8568,0.882,0.9137,0.9307,0.9624,1.0046,1.0599,1.1086,1.1687,1.2702,1.3855,1.4838,1.5301,0.0,1.5114,1.5431,1.5228,1.5179,0.0,0.0,0.0,0.0,0.0,0.0,0.0,0.0,0.0,0.0,0.0,0.0,0.0,0.0,0.0,0.0,0.0,0.0,1.7047,1.6747,1.6043,1.4935,1.3397,1.1998,0.0,0.9291,0.8583,0.8583,0.8599,0.8603,0.8595,0.8603,0.8603,0.8595,0.8603,0.8607,0.8607,0.8607,0.8603,0.8587,0.8501,0.8526,0.8583,0.0,0.0,0.0,0.0,0.0,0.0,0.0,0.0,0.0,0.0,0.0,0.0,0.0,0.0,0.0,0.0,0.0,0.0,0.0,0.0,0.0,0.0,0.0,0.0,0.0,0.0,0.0,0.0,0.0,0.0,0.0,0.0,0.0,0.9112,0.9429,0.9397,0.9096,0.9096,0.8893,0.8568,0.8568,0.8568,0.8568,0.8568,0.8568,0.0,0.0,0.0,0.0,0.0,0.0,0.0,0.8568,0.8568,0.8568,0.8568,0.882,0.9137,0.9307,0.9721,1.0266,1.094,1.202,1.3043,1.3555,1.4213,1.4659,1.4497,1.496,1.5374,1.5309,1.535,0.0,0.0,0.0,0.0,0.0,0.0,0.0,0.0,0.0,0.0,0.0,0.0,0.0,0.0,0.0,0.0,0.0,0.0,0.0,1.669,1.6617,1.5926,1.4607,1.3197,1.1819,0.0,0.9087,0.8395,0.8399,0.8542,0.857,0.8505,0.8575,0.8566,0.8505,0.8579,0.8607,0.8607,0.8607,0.8562,0.8497,0.8481,0.8485,0.8489,0.0,0.0,0.0,0.0,0.0,0.0,0.0,0.0,0.0,0.0,0.0,0.0,0.0,0.0,0.0,0.0,0.0,0.0,0.0,0.0,0.0,0.0,0.0,0.0,0.0,0.0,0.0,0.0,0.0,0.8251,0.843,0.8885,0.9096,0.9104,0.938,0.9348,0.9088,0.8999,0.8812,0.8568,0.8568,0.8568,0.856,0.8471,0.8487,0.856,0.8471,0.0,0.0,0.0,0.0,0.0,0.0,0.0,0.8568,0.8568,0.882,0.9153,0.9413,0.9884,1.0501,1.1386,1.2369,1.3206,1.3563,1.3937,1.4196,1.418,1.4749,1.5252,1.5244,0.0,0.0,0.0,0.0,0.0,0.0,0.0,0.0,0.0,0.0,0.0,0.0,0.0,0.0,0.0,0.0,0.0,0.0,1.6243,1.6276,1.6438,1.6284,1.5638,1.4515,1.3075,1.168,1.032,0.8999,0.8334,0.8338,0.8432,0.8473,0.8477,0.8522,0.8542,0.8542,0.8587,0.8607,0.8607,0.8607,0.8579,0.853,0.8489,0.8497,0.8526,0.0,0.0,0.0,0.0,0.0,0.0,0.0,0.0,0.0,0.0,0.0,0.0,0.0,0.0,0.0,0.0,0.0,0.0,0.0,0.0,0.0,0.0,0.0,0.0,0.0,0.0,0.0,0.0,0.0,0.8219,0.8617,0.8942,0.9096,0.9104,0.9275,0.9242,0.9039,0.8885,0.8723,0.8568,0.8568,0.8568,0.8552,0.8398,0.843,0.8552,0.839,0.8438,0.8568,0.8568,0.0,0.0,0.0,0.0,0.8568,0.8568,0.8796,0.912,0.9445,1.0022,1.0761,1.1744,1.2418,1.2913,1.3214,1.3441,1.3685,1.3977,1.4464,1.4887,0.0,0.0,0.0,0.0,0.0,0.0,0.0,0.0,0.0,0.0,0.0,0.0,0.0,0.0,0.0,0.0,0.0,0.0,1.5943,1.5813,1.5861,1.6162,1.5886,1.5443,1.4689,1.3049,1.1652,1.0483,0.8884,0.8252,0.8264,0.8264,0.8326,0.8424,0.844,0.8481,0.8538,0.8554,0.857,0.8587,0.8587,0.8587,0.8575,0.8501,0.8522,0.857,0.0,0.0,0.0,0.0,0.0,0.0,0.0,0.0,0.0,0.0,0.5986,0.6042,0.0,0.0,0.0,0.0,0.0,0.0,0.0,0.0,0.0,0.0,0.0,0.0,0.0,0.0,0.0,0.0,0.8,0.8276,0.8787,0.8999,0.9096,0.9104,0.9275,0.9169,0.8852,0.8828,0.8723,0.8568,0.8568,0.8568,0.8568,0.8536,0.8544,0.856,0.8536,0.8544,0.8568,0.8568,0.8568,0.0,0.0,0.0,0.8568,0.8568,0.8706,0.8901,0.9112,1.0014,1.1045,1.1654,1.2328,1.2848,0.0,0.0,1.3425,0.0,1.3912,0.0,0.0,0.0,0.0,0.0,0.0,0.0,0.0,0.0,0.0,0.0,0.0,0.0,0.0,0.0,0.0,0.0,0.0,0.0,1.5585,1.5561,1.5569,1.5618,1.5577,1.5425,1.5329,1.3044,1.1739,1.1415,0.9001,0.7913,0.7987,0.7987,0.8076,0.824,0.8317,0.8313,0.826,0.8338,0.8419,0.8489,0.8489,0.8489,0.8489,0.8477,0.8481,0.8477,0.0,0.0,0.0,0.0,0.0,0.0,0.0,0.0,0.0,0.0,0.0,0.6245,0.0,0.0,0.0,0.0,0.0,0.0,0.0,0.0,0.0,0.0,0.0,0.0,0.0,0.0,0.0,0.0,0.8016,0.8341,0.8974,0.9056,0.9153,0.9242,0.9324,0.921,0.8966,0.8869,0.8723,0.8568,0.8568,0.8568,0.856,0.8455,0.8479,0.8552,0.8446,0.8479,0.8568,0.8568,0.8568,0.8568,0.8568,0.0,0.0,0.0,0.8617,0.8779,0.9267,1.0022,1.085,1.1589,1.2012,1.232,1.2613,1.2808,1.2946,1.3051,0.0,0.0,0.0,0.0,0.0,0.0,0.0,0.0,0.0,0.0,0.0,0.0,0.0,0.0,0.0,0.0,0.0,0.0,0.0,1.5252,1.5358,1.5358,1.5358,1.5358,1.5358,1.509,1.4388,1.2622,1.1016,0.9567,0.8389,0.777,0.786,0.7913,0.8032,0.8199,0.824,0.8264,0.8277,0.8317,0.8358,0.8399,0.8452,0.8473,0.8477,0.853,0.855,0.8542,0.0,0.0,0.0,0.0,0.0,0.0,0.0,0.0,0.0,0.0,0.0,0.0,0.0,0.0,0.0,0.0,0.0,0.0,0.0,0.0,0.0,0.0,0.0,0.0,0.0,0.0,0.0,0.8016,0.8016,0.8381,0.9096,0.9096,0.9218,0.9421,0.9372,0.9259,0.9088,0.8901,0.8747,0.8625,0.8584,0.8568,0.8552,0.8414,0.8471,0.8617,0.8479,0.8511,0.8633,0.8633,0.8601,0.8568,0.8568,0.8568,0.0,0.0,0.0,0.8706,0.9324,0.9851,1.0428,1.1232,1.1533,1.176,0.0,0.0,1.2491,0.0,0.0,0.0,0.0,0.0,0.0,0.0,0.0,0.0,0.0,0.0,0.0,0.0,0.0,0.0,0.0,0.0,0.0,0.0,0.0,1.4887,1.5025,1.5033,1.5033,1.5033,1.5033,1.4633,1.3811,1.2239,1.0188,0.7664,0.7615,0.764,0.7733,0.7823,0.795,0.8101,0.8142,0.8203,0.8264,0.8264,0.8281,0.8305,0.8375,0.8415,0.8448,0.8538,0.8575,0.8575,0.0,0.0,0.0,0.0,0.0,0.0,0.0,0.0,0.0,0.0,0.0,0.0,0.0,0.0,0.6416,0.6416,0.657,0.6822,0.7188,0.7212,0.7293,0.0,0.0,0.0,0.748,0.0,0.7659,0.8016,0.8016,0.8381,0.9096,0.9096,0.9283,0.9608,0.9429,0.9259,0.9088,0.8901,0.882,0.8796,0.8633,0.8568,0.8568,0.856,0.8658,0.8804,0.8796,0.8796,0.8804,0.8804,0.8698,0.8568,0.8568,0.8568,0.8568,0.0,0.0,0.0,0.9023,0.9388,0.9803,1.0363,1.0883,1.1354,0.0,0.0,0.0,0.0,0.0,0.0,0.0,0.0,0.0,0.0,0.0,0.0,0.0,0.0,0.0,0.0,0.0,0.0,0.0,0.0,0.0,0.0,0.0,1.4464,1.4473,1.4473,1.4473,1.4473,1.4473,1.4473,1.434,1.2088,0.9693,0.7292,0.7366,0.7452,0.7542,0.7635,0.7729,0.7827,0.7995,0.8072,0.8076,0.8076,0.8125,0.8207,0.8211,0.8264,0.8354,0.8444,0.8481,0.8493,0.0,0.0,0.0,0.0,0.0,0.0,0.0,0.0,0.0,0.0,0.0,0.0,0.0,0.6692,0.6757,0.6757,0.6822,0.696,0.7212,0.7228,0.7301,0.7472,0.0,0.748,0.748,0.8216,0.8321,0.8016,0.8704,0.9035,0.8926,0.9039,0.9226,0.9453,0.9502,0.9429,0.9259,0.9194,0.9096,0.8991,0.8934,0.8909,0.8909,0.8909,0.8942,0.9015,0.912,0.9088,0.9015,0.9129,0.9047,0.8885,0.8771,0.8731,0.8706,0.8601,0.8568,0.8617,0.8852,0.9096,0.9445,1.0095,1.0404,1.0664,1.1151,1.1573,1.1866,0.0,0.0,0.0,0.0,0.0,0.0,0.0,0.0,0.0,0.0,0.0,0.0,0.0,0.0,0.0,0.0,0.0,0.0,0.0,0.0,0.0,1.427,1.4375,1.4383,1.427,1.4375,1.3979,1.3237,1.2247,1.1064,0.9505,0.9543,0.9173,0.852,0.8627,0.873,0.8833,0.8165,0.7893,0.7901,0.8015,0.8048,0.804,0.8154,0.8219,0.8256,0.835,0.8419,0.8477,0.0,0.0,0.0,0.0,0.0,0.0,0.0,0.0,0.0,0.0,0.0,0.0,0.0,0.0,0.7334,0.7114,0.7041,0.7123,0.7301,0.7309,0.7509,0.7855,0.7691,0.7725,0.8035,0.8453,0.8486,0.0,0.9144,0.9416,0.882,0.9217,0.9562,0.9742,0.9493,0.9445,0.9445,0.938,0.9291,0.9177,0.912,0.9096,0.9104,0.9161,0.9218,0.9299,0.947,0.9462,0.938,0.9494,0.938,0.9161,0.9039,0.8917,0.8787,0.8617,0.8568,0.8593,0.8706,0.8869,0.9145,0.9746,0.9933,1.0128,1.0664,0.0,1.1427,0.0,0.0,0.0,0.0,0.0,0.0,0.0,0.0,0.0,0.0,0.0,0.0,0.0,0.0,0.0,0.0,0.0,0.0,0.0,0.0,0.0,1.3904,1.4018,1.4026,1.3912,1.4018,1.3496,1.2329,1.2086,1.1529,1.0498,1.054,1.0191,0.9569,0.9269,0.9532,0.9923,0.8495,0.811,0.8499,0.8102,0.7974,0.7987,0.8076,0.813,0.8162,0.8256,0.8326,0.8387,0.0,0.0,0.0,0.0,0.0,0.0,0.0,0.0,0.0,0.0,0.0,0.0,0.0,0.0,0.0,0.7376,0.7244,0.7309,0.7557,0.7488,0.7863,0.8637,0.813,0.8233,0.9006,0.8414,0.8188,0.0,0.0,0.0,0.0,0.9795,1.0267,1.0463,0.9562,0.9299,0.9608,0.9429,0.9356,0.9348,0.9185,0.912,0.9137,0.9315,0.9486,0.9665,0.9843,0.99,0.9892,0.99,0.9665,0.9372,0.9356,0.9112,0.8796,0.8633,0.8584,0.8584,0.0,0.0,0.0,0.9267,0.9486,0.9762,1.029,0.0,1.0834,0.0,0.0,0.0,0.0,0.0,0.0,0.0,0.0,0.0,0.0,0.0,0.0,0.0,0.0,0.0,0.0,0.0,0.0,0.0,0.0,1.3368,1.336,1.336,1.3368,1.3368,1.336,1.2803,1.171,1.1703,1.1226,1.0242,1.0376,1.051,1.0645,0.9564,0.9829,1.0914,0.8674,0.8558,0.9717,0.8323,0.7901,0.8044,0.7966,0.7987,0.8068,0.8162,0.8195,0.8223,0.0,0.0,0.0,0.0,0.0,0.0,0.0,0.0,0.0,0.0,0.0,0.0,0.0,0.0,0.975,0.9823,0.9077,0.8631,0.8686,0.794,0.77,0.8068,0.8514,0.8922,0.9304,1.049,0.0,0.0,0.0,0.0,0.0,0.0,0.0,1.0257,1.0277,1.0373,1.0482,0.9757,0.9429,0.9559,0.9632,0.9665,0.9689,0.9868,0.9973,1.0038,1.0217,1.0201,1.0103,1.0241,1.0038,0.9697,0.9437,0.9202,0.9015,0.8966,0.895,0.895,0.895,0.0,0.0,0.0,0.0,0.0,0.9786,1.0193,1.055,0.0,0.0,0.0,0.0,0.0,0.0,0.0,0.0,0.0,0.0,0.0,0.0,0.0,0.0,0.0,0.0,0.0,0.0,0.0,1.3222,1.3311,1.3173,1.3173,1.323,1.3368,1.3116,1.2974,1.2956,1.2822,1.2573,1.2474,1.264,1.2379,1.166,1.1417,1.1768,1.2277,1.0673,1.0381,1.0776,0.8662,0.7848,0.7791,0.7962,0.8003,0.7978,0.8068,0.8142,0.8215,0.0,0.0,0.0,0.0,0.0,0.0,0.0,0.0,0.0,0.0,0.0,0.0,0.0,0.0,0.0,1.0745,1.0157,0.9846,0.9846,0.9252,0.9085,0.9528,0.9777,1.0131,1.0593,1.1494,0.0,0.0,0.0,0.0,0.0,0.0,0.0,0.0,0.0,1.1218,1.1308,1.0735,1.0386,1.0337,1.0045,0.9933,1.0022,1.0209,1.0274,1.0306,1.0566,1.0542,1.0412,1.0599,1.0363,0.9925,0.9494,0.9283,0.9194,0.912,0.9096,0.9096,0.9096,0.9096,0.9137,0.9315,0.0,0.0,0.9583,0.9925,1.0249,0.0,0.0,0.0,0.0,0.0,0.0,0.0,0.0,0.0,0.0,0.0,0.0,0.0,0.0,0.0,0.0,0.0,0.0,1.2613,1.2808,1.2881,1.2767,1.2905,1.3003,1.3035,1.2905,1.2938,1.3149,1.3043,1.3076,1.3254,1.336,1.3129,1.2656,1.2388,1.2597,1.329,1.1547,1.1237,1.1765,0.9457,0.8228,0.7733,0.7893,0.7946,0.7946,0.8032,0.8121,0.8211,0.0,0.0,0.0,0.0,0.0,0.0,0.0,0.0,0.0,0.0,0.0,0.0,0.0,0.0,0.0,0.0,1.1064,1.0961,1.0961,1.0858,0.0,1.1858,1.1419,1.1566,1.2361,1.19,0.0,0.0,0.0,0.0,0.0,0.0,0.0,0.0,0.0,0.0,1.2162,1.2091,1.1908,1.1692,1.0712,1.0433,1.0627,1.0625,1.0692,1.0617,1.0978,1.0867,1.0712,1.0834,1.0574,1.0095,0.9559,0.9397,0.938,0.921,0.9153,0.9153,0.9153,0.9153,0.9194,0.9348,0.938,0.0,0.9592,0.9746,0.9957,1.0298,0.0,0.0,0.0,0.0,0.0,0.0,0.0,0.0,0.0,0.0,0.0,0.0,0.0,0.0,0.0,1.228,1.2288,1.2304,1.2304,1.2304,1.2304,1.2605,1.2702,1.254,1.2694,1.2791,1.2808,1.2808,1.2897,1.3068,1.3084,1.3262,1.3448,1.2619,1.2941,1.4011,1.1938,1.1645,1.2588,1.0566,0.9031,0.8093,0.7965,0.7856,0.8094,0.8027,0.8113,0.8199,0.0,0.0,0.0,0.0,0.0,0.0,0.0,0.0,0.0,0.0,0.0,0.0,0.0,0.0,0.0,0.0,1.2597,1.2134,1.2134,1.1271,0.0,1.1216,1.1769,1.2314,1.2626,1.3197,0.0,0.0,0.0,0.0,0.0,0.0,0.0,0.0,0.0,0.0,1.3543,1.2892,1.3072,1.3899,1.3095,1.2895,1.3152,1.2474,1.2183,1.1982,1.1377,1.0964,1.0655,1.0404,1.0347,1.029,0.9746,0.9673,0.9746,0.9575,0.9527,0.9527,0.9527,0.9527,0.9535,0.9567,0.9575,0.0,0.9616,0.9657,0.9738,0.0,0.0,0.0,0.0,0.0,0.0,0.0,0.0,0.0,0.0,0.0,0.0,0.0,0.0,0.0,0.0,1.2085,1.2142,1.2296,1.2304,1.2304,1.2304,1.2369,1.2393,1.2361,1.2393,1.2475,1.2613,1.2613,1.271,1.2889,1.3027,1.3133,1.3206,1.3117,1.3364,1.3961,1.3411,1.3088,1.2726,1.2305,1.1491,1.042,0.863,0.8526,0.9303,0.8335,0.8072,0.8113,1.0704,1.1009,0.0,0.0,0.0,0.0,0.0,0.0,0.0,0.0,0.0,0.0,1.3814,1.3868,1.3988,0.0,0.0,0.0,0.0,0.0,0.0,0.0,1.3423,1.3745,1.3811,1.4348,0.0,0.0,0.0,0.0,0.0,0.0,0.0,0.0,0.0,1.4347,1.3894,1.4159,1.4509,1.4795,1.319,1.307,1.373,1.2891,1.284,1.3098,1.2217,1.1481,1.0891,1.0444,1.0363,1.0371,1.0006,0.9827,0.9754,0.9754,0.9697,0.9624,0.9624,0.9624,0.9624,0.9624,0.9624,0.0,0.0,0.9624,0.9673,0.9851,0.9892,0.9925,0.0,0.0,0.0,0.0,0.0,0.0,0.0,0.0,0.0,0.0,0.0,0.0,0.0,1.1768,1.1841,1.2028,1.2117,1.2134,1.2044,1.2215,1.2264,1.2174,1.2255,1.2345,1.2434,1.2523,1.2613,1.2702,1.2881,1.3011,1.3092,1.3189,1.3384,1.3636,1.3636,1.3603,1.3273,1.2763,1.2785,1.2727,0.9775,0.8765,0.8621,0.8111,0.8056,0.8142,1.1089,1.1316,0.0,0.0,0.0,0.0,0.0,0.0,0.0,0.0,0.0,1.3667,1.4202,1.4255,1.4402,1.4736,1.4669,0.0,1.511,1.503,1.4963,1.4963,1.4963,1.4963,1.4963,1.4963,0.0,0.0,0.0,0.0,0.0,0.0,0.0,0.0,0.0,1.5032,1.4321,1.5425,1.5732,1.5291,1.3286,1.3101,1.4024,1.3352,1.3501,1.389,1.2927,1.2055,1.1143,1.0615,1.0477,1.0493,1.0241,0.9965,0.9754,0.9851,0.9762,0.9624,0.9624,0.9624,0.9624,0.9624,0.9624,0.9624,0.0,0.0,0.0,0.9803,0.0,0.0,0.0,0.0,0.0,0.0,0.0,0.0,0.0,0.0,0.0,0.0,0.0,0.0,0.0,1.1427,1.1508,1.1663,1.1833,1.1866,1.1727,1.2028,1.2134,1.1987,1.2125,1.2223,1.2255,1.2393,1.2499,1.2564,1.271,1.2873,1.3043,1.3043,1.3165,1.3368,1.3368,1.3595,1.3826,1.3092,1.3341,1.3983,1.1035,0.9307,0.8455,0.8393,0.8202,0.8174,1.1423,1.161,1.1824,0.0,0.0,0.0,0.0,0.0,0.0,0.0,0.0,1.4496,1.483,1.487,1.5084,1.5631,1.5217,1.515,1.5698,1.5244,1.4963,1.4963,1.4963,1.4963,1.4963,1.4963,1.4963,0.0,0.0,0.0,0.0,0.0,0.0,0.0,1.5645,1.583,1.6069,1.6206,1.6308,1.6426,1.5433,1.5127,1.5419,1.5587,1.4956,1.3762,1.2812,1.193,1.1143,1.0615,1.0647,1.0818,1.0322,1.0136,1.0071,0.9925,0.9762,0.9624,0.9624,0.9624,0.9624,0.9624,0.9624,0.9624,0.9624,0.0,0.9632,0.9657,0.0,0.9632,0.9657,0.0,0.0,0.0,0.0,0.0,0.0,0.0,0.0,0.0,0.0,0.0,0.0,0.0,1.1265,1.1281,1.1459,1.1549,1.1533,1.1727,1.1825,1.1809,1.1825,1.1906,1.206,1.2077,1.2247,1.2564,1.2588,1.2694,1.2865,1.2865,1.3051,1.3368,1.3368,1.3669,1.4148,1.4019,1.3644,1.2913,1.166,1.1213,1.1028,1.0019,0.8985,0.8089,1.1703,1.1917,1.2118,1.2118,0.0,0.0,0.0,0.0,0.0,0.0,1.4522,1.4696,1.5164,1.5217,1.5444,1.6032,1.5712,1.5645,1.6059,1.5698,1.5471,1.5471,1.5471,1.5471,1.5471,1.5471,1.5471,0.0,1.5471,0.0,0.0,0.0,0.0,0.0,1.5952,1.6152,1.6299,1.6633,1.6754,1.6727,1.651,1.6009,0.0,1.5079,1.4169,1.3046,1.3352,1.2386,1.1037,0.0,1.0769,0.0,1.0664,1.0412,1.0144,1.0071,0.9916,0.9778,0.9778,0.986,0.9908,0.9803,0.986,0.9884,0.9673,0.9624,0.9624,0.9624,0.0,0.0,0.0,0.0,0.0,0.0,0.9551,0.0,0.0,0.0,0.0,0.0,0.0,0.0,0.0,0.0,0.0,0.0,0.0,1.1232,1.133,1.1516,1.1663,1.1776,1.1776,1.1809,1.1882,1.2085,1.2264,1.2418,1.2621,1.2767,1.284,1.284,1.297,1.3214,1.3214,1.3457,1.388,1.4091,1.3583,1.262,1.2461,1.1572,1.0269,0.9843,0.9001,0.7995,1.2225,1.2331,1.2452,1.2532,0.0,0.0,0.0,0.0,0.0,1.4603,1.471,1.499,1.5578,1.5778,1.6152,1.682,1.6607,1.6526,1.674,1.6326,1.5992,1.5832,1.5832,1.5832,1.5832,1.5832,1.5832,0.0,0.0,0.0,0.0,0.0,0.0,0.0,0.0,1.6246,1.642,1.6847,1.6994,1.6967,1.7181,1.651,1.533,1.479,1.4083,1.3491,1.4352,1.3207,1.1405,1.1355,1.1167,0.0,1.0867,1.059,1.0241,1.0241,1.0103,0.9965,0.9965,1.0022,1.0063,0.9981,0.0,0.0,0.9746,0.9697,0.9689,0.964,0.9665,0.0,0.0,0.0,0.9608,0.9559,0.0,0.9397,0.0,0.9372,0.0,0.0,0.0,0.0,0.0,0.0,0.0,1.0737,1.0794,1.0899,1.107,1.1297,1.1508,1.1695,1.1752,1.1776,1.1776,1.2036,1.2215,1.2312,1.2564,1.2743,1.284,1.284,1.2962,1.3173,1.3173,1.3376,1.3734,1.3993,1.3644,1.3111,1.3347,1.1991,0.9944,0.9535,0.8884,0.7901,1.3106,1.2933,1.2903,1.3133,1.3427,0.0,0.0,0.0,1.4616,1.491,1.519,1.5591,1.6179,1.6754,1.7448,1.8343,1.8143,1.7983,1.7983,1.7168,1.642,1.5858,1.5832,1.5832,1.5832,1.5832,1.5832,1.5832,0.0,0.0,0.0,0.0,0.0,0.0,1.5845,1.6152,1.6687,1.6714,1.7048,1.7555,1.7569,1.6922,1.5813,0.0,1.5644,1.5755,1.5861,0.0,0.0,1.2384,1.1797,0.0,0.0,0.0,0.0,0.0,0.0,0.0,0.0,0.0,0.0,1.0111,0.0,0.0,0.0,0.0,0.9827,0.9665,0.9762,0.9827,0.9657,0.9624,0.9567,0.9388,0.951,0.0,0.0,0.0,0.9559,0.0,0.0,0.0,0.0,0.0,0.0,1.0184,1.0355,1.0526,1.0704,1.1045,1.1313,1.15,1.1687,1.1776,1.1776,1.1784,1.1963,1.2304,1.232,1.2507,1.284,1.284,1.3027,1.336,1.336,1.3563,1.3896,1.3904,1.4115,1.4284,1.4292,1.3057,1.0944,0.9949,0.8837,0.7815,1.344,1.3414,1.3307,1.3227,1.3454,1.3801,1.4295,1.4629,1.5204,1.6273,1.666,1.7288,1.8477,1.8784,1.9105,1.9599,1.9199,1.8838,1.8637,1.7609,1.6914,1.6714,1.6326,1.6126,1.6126,1.6126,1.6019,1.5832,0.0,0.0,0.0,0.0,0.0,0.0,0.0,1.6339,1.6714,1.6914,1.7114,1.7301,0.0,1.7081,1.6769,0.0,0.0,1.4674,1.4674,1.3759,0.0,1.1731,1.1167,1.0818,1.0988,1.0923,1.0785,1.0785,1.0745,0.0,0.0,0.0,1.0729,1.0558,0.0,0.0,0.0,0.0,0.0,0.0,0.9762,0.9827,0.9657,0.9624,0.9608,0.9543,0.9486,0.9405,0.0,0.9372,0.947,0.9527,0.964,0.9762,0.0,0.0,0.0,0.9973,1.0038,1.0201,0.0,1.0745,1.1062,1.1484,1.1565,1.1654,1.1776,1.189,1.2069,1.2312,1.2426,1.2605,1.284,1.284,1.2962,1.3197,1.3319,1.3506,1.375,1.3985,1.3783,1.3096,1.2456,1.1219,0.996,1.0508,0.9311,0.7648,1.3748,1.3801,1.3734,1.3547,1.3761,1.4082,1.4456,1.5297,1.6192,1.7034,1.7956,1.8891,1.9853,2.0147,2.0388,2.0681,2.0361,1.984,1.9132,1.8464,1.7862,1.7328,1.6941,1.674,1.674,1.6433,1.6179,1.5992,1.5885,1.5832,0.0,0.0,0.0,0.0,0.0,1.6273,1.6567,1.686,1.7048,1.7154,0.0,1.7154,0.0,0.0,1.6634,1.5316,0.0,1.4352,1.2871,1.2358,1.1492,1.0818,1.098,1.1045,1.1045,1.0988,1.1013,1.1062,1.1062,1.1094,0.0,1.0923,1.0785,0.0,1.0249,0.0,1.0103,0.0,0.0,0.9933,0.9754,0.9665,0.9624,0.9624,0.9527,0.9453,0.0,0.9397,0.9421,0.9608,0.9624,0.9673,0.0,0.9689,0.9673,0.9786,0.9795,0.9949,0.0,0.0,1.085,1.1386,1.1468,1.1589,1.1776,1.1882,1.206,1.2312,1.2418,1.2596,1.284,1.284,1.2929,1.3108,1.3287,1.3474,1.3669,1.3961,1.3775,1.3096,1.1998,1.0908,0.9949,0.9992,0.8973,0.7648,1.4028,1.4095,1.4108,1.4108,1.4349,1.4549,1.4563,1.6259,1.7462,1.7261,1.8998,2.0281,2.0347,2.0855,2.1309,2.1617,2.1617,2.1002,1.9586,1.972,1.9212,1.7769,1.7689,1.7662,1.7635,1.678,1.6326,1.6299,1.5979,0.0,0.0,0.0,0.0,0.0,1.5832,0.0,1.6286,1.6567,1.686,1.7154,1.7168,1.7168,1.7168,1.7168,1.7341,1.7582,1.7582,1.6074,1.4137,1.4137,1.2779,1.1164,1.088,1.1068,1.1323,1.1062,1.1126,1.1248,1.1256,1.1135,1.1045,1.12,0.0,0.0,0.0,0.0,1.0607,0.0,0.0,0.0,0.9933,0.9754,0.964,0.9632,0.9624,0.9624,0.9624,0.9478,0.9429,0.9608,0.9624,0.9624,0.9624,0.9624,0.9624,0.9624,0.9624,0.9778,0.0,0.0,1.0664,1.1191,1.1386,1.1581,1.1776,1.1776,1.1955,1.2304,1.2304,1.2491,1.284,1.284,1.2929,1.3092,1.3279,1.3457,1.3644,1.3815,1.4099,1.4268,1.3081,1.1992,1.0773,0.8416,0.764,0.7799,1.4068,1.4255,1.4402,1.4402,1.4656,1.4923,1.5137,1.6166,1.7301,1.833,1.9693,2.0975,2.2071,2.2325,2.2539,2.2846,2.2458,2.1951,2.1349,2.0775,2.0187,1.9573,1.9145,1.8704,1.8263,1.7595,1.7034,1.6593,1.6086,1.5832,1.5832,0.0,0.0,0.0,0.0,1.5992,1.6273,1.6353,1.6687,1.7271,1.7382,1.7475,1.7475,0.0,1.7515,1.7477,1.6617,1.5968,1.5316,1.4352,1.3863,1.3517,1.274,1.2611,1.2633,1.1927,1.1703,1.1663,1.1784,1.1703,1.1549,1.1451,1.1256,1.1053,0.0,0.0,0.0,0.0,0.0,0.0,0.0,0.0,0.9778,0.9648,0.9624,0.9624,0.9624,0.9592,0.9575,0.9624,0.9624,0.9624,0.9624,0.9624,0.9624,0.9624,0.9624,0.0,0.0,0.0,0.0,1.1021,1.1208,1.1451,1.1776,1.1776,1.1955,1.2304,1.2304,1.2491,1.284,1.284,1.2856,1.2913,1.3092,1.3271,1.3457,1.3636,1.392,1.4107,1.3045,1.1441,0.9645,0.8057,0.7582,0.7799,1.4255,1.4723,1.5057,1.4923,1.5578,1.6126,1.6152,1.6807,1.7729,1.8958,2.0361,2.1563,2.2392,2.2939,2.3327,2.35,2.3086,2.2525,2.1844,2.1456,2.1002,2.0454,1.9987,1.9479,1.8891,1.8156,1.7435,1.67,1.6246,1.5952,1.5832,0.0,0.0,0.0,0.0,1.5925,1.6099,1.6353,1.666,1.6981,1.7275,1.7395,0.0,1.7395,1.7475,1.7477,1.6829,1.6287,1.5755,1.5102,1.48,1.4542,1.3238,1.3183,1.3286,1.2122,1.1792,1.1801,1.189,1.1849,1.1752,1.1646,1.1541,1.1419,1.124,1.12,1.1151,0.0,0.0,0.0,0.0,0.0,0.9925,0.9665,0.9624,0.9624,0.9624,0.9624,0.9624,0.9624,0.9624,0.9624,0.9624,0.9624,0.9624,0.9624,0.9624,0.0,0.0,0.0,0.0,1.0948,1.1135,1.1362,1.1654,1.1809,1.2028,1.2304,1.2304,1.2491,1.284,1.284,1.284,1.2848,1.3019,1.3197,1.3384,1.3571,1.3896,1.4163,1.2606,1.0962,0.9226,0.7929,0.7599,0.7799,1.4522,1.5217,1.5698,1.5444,1.658,1.7502,0.0,1.7943,0.0,1.9439,0.0,2.2058,2.2098,2.3033,2.3674,2.3714,2.3434,2.2832,2.179,2.1964,2.1724,2.0882,2.0601,2.016,1.9492,1.8611,1.7716,1.682,1.646,1.6126,1.5832,0.0,0.0,0.0,1.5832,1.5845,1.5925,1.6473,1.6727,1.6794,1.7088,1.7208,1.7208,1.7208,1.7368,1.7582,1.7582,1.6935,1.6074,1.6074,1.5752,1.5008,1.3496,1.3394,1.3599,1.2073,1.1671,1.1784,1.1801,1.1792,1.1776,1.1776,1.1776,1.1736,1.1573,1.1533,1.1492,1.133,1.1159,1.098,0.0,0.0,1.0054,0.9713,0.964,0.9624,0.9624,0.9648,0.9657,0.9632,0.9648,0.0,0.0,0.9624,0.9624,0.0,0.0,0.0,0.0,0.0,0.0,1.0875,1.1086,0.0,1.1533,0.0,1.2134,1.2345,1.2345,1.2515,1.284,1.284,1.284,1.2848,1.3019,1.3197,1.3384,1.3571,1.3945,1.4136,1.2013,1.0589,0.9366,0.7985,0.7635,0.7782,1.487,1.5204,1.5458,1.5404,1.6406,1.7622,1.8798,1.9479,1.9987,2.0401,2.155,2.2432,2.2686,2.2899,2.3126,2.338,2.3126,2.2859,2.2645,2.2686,2.2418,2.179,2.171,2.1176,2.0107,1.9212,1.833,1.7435,1.6647,1.6126,1.5832,1.5832,1.5832,1.5832,1.5832,1.5965,1.6219,1.6567,0.0,1.7101,1.7395,1.7502,1.7502,1.7502,1.7542,1.7582,1.7582,1.7477,1.7265,1.7265,1.7381,1.7039,1.4964,1.4552,1.4524,1.2457,1.1857,1.1809,1.1947,1.1882,1.1776,1.1776,1.1776,1.1768,1.1736,1.1727,1.1719,1.1687,1.1533,1.1354,1.1159,0.0,0.0,0.0,0.0,0.9624,0.9624,0.9746,0.9786,0.9648,0.9754,0.9786,0.964,0.0,0.0,0.0,0.0,0.0,0.0,0.0,0.0,0.0,0.0,0.0,0.0,0.0,1.219,1.2515,1.2515,1.2629,1.284,1.284,1.284,1.2848,1.3019,1.3197,1.3384,1.3571,1.3872,1.3953,1.1755,1.0836,1.0491,0.8274,0.7595,0.7697,1.519,1.5551,1.5952,1.6246,1.7408,0.0,0.0,2.0802,2.1256,2.0949,2.139,2.1857,2.2151,2.2726,2.3166,2.3313,2.3193,2.3033,2.2873,2.2712,2.2445,2.2004,2.1844,2.1216,2.004,1.9452,1.8571,1.7355,1.678,1.6273,1.5832,1.5832,1.5832,1.5832,1.5992,1.6139,0.0,0.0,0.0,1.7181,1.7462,1.7582,1.7582,1.7582,1.7582,1.7582,1.7582,1.7689,1.7796,1.7635,1.7889,1.7961,1.6275,1.6023,1.6026,1.4351,1.387,1.3693,1.3072,1.2785,1.2603,1.2018,1.1776,1.1776,1.1776,1.1776,1.1776,1.1776,1.1703,1.1557,1.1273,1.0794,0.0,0.0,0.0,0.0,0.9892,0.9892,0.9851,0.977,0.9835,0.9851,0.977,0.9681,0.0,0.0,0.0,0.0,0.0,0.0,0.0,0.0,0.0,0.0,0.0,0.0,0.0,1.2434,1.2523,1.2661,1.284,1.284,1.284,1.2848,1.3019,1.3197,1.3401,1.3766,1.4026,1.4059,1.2373,1.1447,1.0762,0.9041,0.8243,0.7738,1.5818,1.6179,1.6687,1.7408,1.8597,1.9733,2.0548,2.1617,2.2124,2.155,2.1483,2.1577,2.1804,2.2672,2.322,2.322,2.322,2.3126,2.2873,2.2579,2.2285,2.2004,2.171,2.1029,1.992,1.9546,1.8704,1.7328,1.6914,1.6433,1.5925,1.5858,1.5858,1.5939,0.0,0.0,0.0,0.0,1.7181,1.7261,1.7488,1.7582,1.7582,1.7582,1.7582,1.7595,1.7662,1.7836,1.8023,1.7836,1.809,1.8269,1.7079,1.7032,1.7149,1.5677,1.5213,1.4976,1.3665,1.3315,1.3075,1.201,1.1776,1.1776,1.1776,1.1776,1.1776,1.1776,1.1776,1.1671,1.1338,1.1021,0.0,0.0,0.0,0.0,0.0,1.0071,0.9989,0.9949,0.9941,0.9925,0.9892,0.0,0.0,0.0,0.0,0.0,0.0,0.0,0.0,0.0,0.0,1.1102,1.1492,0.0,1.2328,0.0,1.254,1.2718,1.2889,1.2889,1.2913,1.2962,1.3133,1.3311,1.3514,1.3945,1.4115,1.4011,1.3155,1.2223,1.1182,0.9954,0.8888,0.8093,1.7168,1.7208,0.0,0.0,0.0,0.0,2.0588,2.1443,2.2191,2.2645,2.2699,2.2712,2.2739,2.2846,2.2899,2.2899,2.2899,2.2899,2.2859,2.2579,2.2285,2.2004,2.171,2.1122,2.0214,1.9653,1.8891,1.7929,1.7114,1.654,1.6219,1.5952,1.5979,0.0,0.0,0.0,0.0,1.723,1.7301,1.7542,1.7569,1.7582,1.7582,1.7582,1.7582,1.7622,1.7903,1.8023,1.809,1.833,1.8437,1.8308,1.7289,1.7044,1.6668,1.4559,1.3904,1.3545,1.2371,1.2018,1.1897,1.1776,1.1776,1.1776,1.1776,1.1776,1.1776,1.1776,1.1776,1.1711,1.1508,1.1305,1.107,0.0,0.0,0.0,0.0,1.029,1.0322,1.0152,1.0136,1.0071,0.99,0.973,0.9624,0.0,0.9624,0.0,0.0,0.0,0.0,1.0444,0.0,1.0972,1.1492,1.2036,0.0,1.254,1.2726,1.2905,1.3068,1.3068,1.3165,1.3327,1.3514,1.3693,1.3855,1.3904,1.3928,1.3818,1.2986,1.2515,1.2244,1.0075,0.9311,0.9273,0.0,0.0,0.0,0.0,0.0,0.0,0.0,2.2017,2.2392,2.2806,2.2859,2.2859,2.2859,2.2859,2.2859,2.2859,2.2859,2.2859,2.2859,2.2579,2.2285,2.2004,2.171,2.1229,2.0508,1.992,1.9185,1.8303,1.7582,1.6994,1.6526,1.6406,0.0,0.0,0.0,1.6927,1.7154,1.7341,1.7475,1.7595,1.7782,1.7862,1.7876,1.8063,1.813,1.8143,1.8263,1.8424,1.8597,1.8704,1.8744,1.8658,1.8298,1.8224,1.8262,1.743,1.7103,1.6632,1.4629,1.4033,1.3674,1.213,1.1776,1.1776,1.1776,1.1776,1.1776,1.1776,1.1776,1.1752,1.1679,1.1516,1.1346,0.0,0.0,0.0,0.0,1.0542,1.0485,1.0193,1.016,1.0136,1.0054,0.9795,0.9673,0.977,0.0,0.0,0.0,0.0,0.0,1.0574,0.0,1.1224,1.1663,1.2093,1.2345,1.241,1.2702,1.2873,1.2946,1.3043,1.3254,1.3539,1.3612,1.3742,1.3904,1.3904,1.3904,1.3937,1.3699,1.3237,1.2529,1.1913,1.0705,0.9417,1.9279,0.0,1.9706,0.0,2.1042,2.1269,2.2271,2.2271,2.2325,2.2806,2.2779,2.2766,2.2846,2.2779,2.2766,2.2859,2.2859,2.2819,2.2739,2.2458,2.2164,2.1871,2.1577,0.0,2.0681,2.0187,1.9546,1.8744,1.8063,1.7462,0.0,0.0,0.0,0.0,1.7061,1.7194,1.7288,1.7502,1.7582,1.7595,1.7822,1.7916,1.7943,1.825,1.8357,1.8384,1.8557,1.8744,1.8945,1.9025,1.9052,1.9052,1.9052,1.9199,1.9372,1.901,1.8881,1.8415,1.6161,1.5332,1.4619,1.2844,1.213,1.1776,1.1776,1.1776,1.1776,1.1776,1.1776,1.1776,1.1776,1.1671,1.1565,1.1508,0.0,0.0,0.0,1.0818,1.0696,1.029,1.0241,1.0217,1.0168,0.9933,0.9835,0.0,0.0,0.0,0.0,0.0,0.0,0.0,0.0,0.0,0.0,1.2101,1.2328,1.2385,1.2694,1.2865,1.2921,1.3149,1.3425,1.3717,1.3717,1.379,1.3904,1.3904,1.3904,1.3937,1.4294,1.3831,1.3126,1.3144,1.2141,1.0571,2.0374,2.0414,2.0681,2.2138,2.1924,2.1737,2.2325,2.1937,2.1871,2.2752,2.2605,2.2539,2.2832,2.2605,2.2539,2.2832,2.2859,2.2739,2.2445,2.2151,2.1857,0.0,0.0,2.0975,2.0681,2.0374,1.9947,1.9359,1.8477,0.0,1.7555,0.0,1.686,1.7141,1.7154,1.7315,1.7582,1.7582,1.7582,1.7582,1.7582,1.7582,1.7622,1.7929,1.805,1.813,1.8704,1.8918,1.8971,1.9265,1.9359,1.9359,1.9359,1.9359,1.9127,1.7935,1.7572,1.722,1.5924,1.4738,1.3665,1.3665,1.2724,1.1776,1.1776,1.1776,1.1776,1.1776,1.1776,1.1776,1.1776,1.1776,1.1711,1.1533,0.0,0.0,0.0,1.111,1.1021,1.0493,1.0428,1.0363,1.0176,1.016,0.0,0.0,0.0,0.0,0.0,0.0,0.0,1.0672,1.0875,0.0,1.15,1.2036,1.2393,1.2564,1.2751,1.2929,1.31,1.3474,1.3734,1.3896,1.3896,1.3896,1.3904,1.3904,1.3904,1.3937,1.4294,1.4432,1.4324,1.345,1.3305,1.3095,2.1109,2.1203,2.1336,2.2004,2.1977,2.1977,2.2365,2.2098,2.2017,2.2498,2.2298,2.2231,2.2525,2.2659,2.2752,0.0,2.2859,2.2739,0.0,2.2151,2.1857,2.1563,2.1269,2.1069,2.0975,2.0681,2.0347,1.996,0.0,0.0,0.0,1.8009,1.7969,1.8063,1.8063,1.8116,1.8183,1.7983,1.8009,1.8196,1.8196,1.8317,1.8531,1.8838,1.8945,1.8971,1.9158,1.9225,1.9239,1.9332,1.9372,1.9475,1.9591,1.9591,1.9359,1.8894,1.8881,1.8752,1.756,1.7091,1.6655,1.5872,1.46,1.3517,1.3396,1.2578,1.1809,1.1922,1.1857,1.1809,1.1931,1.1857,1.1711,1.1533,1.1606,0.0,1.1191,0.0,1.1118,1.0834,1.0688,1.0639,1.0704,1.0599,0.0,0.0,0.0,0.0,0.0,0.0,0.0,0.0,1.1468,0.0,1.1857,1.2272,1.2507,1.2564,1.2751,1.2994,1.3295,1.353,1.3742,1.3904,1.3904,1.3904,1.3904,1.3904,1.3977,1.4115,1.4343,1.4505,1.4651,1.442,1.4019,1.3282,2.1603,2.171,2.1844,2.2245,2.2218,2.2245,2.2539,2.2151,2.1964,2.2365,2.2164,2.2098,2.2392,2.2686,0.0,2.2859,2.2859,2.2739,2.2432,2.2151,2.1857,2.1563,2.1269,2.1109,2.1109,0.0,0.0,2.0401,1.9813,1.9225,1.8651,1.8651,1.8597,1.849,1.849,1.8424,1.8317,1.813,1.8156,1.833,1.833,1.8504,1.8798,1.9092,1.9199,1.9212,1.9332,1.9372,1.9372,1.9475,1.9591,1.9591,1.9707,1.9707,1.9591,1.9707,1.9822,1.9604,1.8985,1.8542,1.8015,1.7311,1.6165,1.4941,1.4336,1.3023,1.2004,1.2109,1.1996,1.1906,1.2012,1.189,1.1736,1.1622,1.1703,1.1671,1.137,0.0,1.1313,1.1005,0.0,0.0,0.0,1.0923,1.0891,0.0,0.0,0.0,0.0,0.0,0.0,1.1321,1.1719,0.0,1.2134,1.2418,1.2596,1.267,1.2848,1.3124,1.3482,1.3595,1.3742,1.3904,1.3904,1.3904,1.3904,1.3904,1.401,1.4196,1.4367,1.4546,1.4732,1.4903,1.4656,1.4087,2.1844,2.1977,0.0,0.0,2.2592,0.0,2.2766,2.2124,2.1804,2.2325,2.2151,2.2098,2.2392,2.2672,2.2846,2.2859,0.0,0.0,0.0,2.2164,2.1884,2.1563,2.1283,2.1136,2.1109,2.1109,2.0962,2.0681,2.0134,1.9559,1.8985,1.8985,1.8824,1.8557,1.8557,1.8397,1.8143,1.8116,1.8116,1.8143,1.8116,1.829,1.8584,1.8851,1.8958,1.8985,1.9265,1.9488,1.9488,1.9707,1.9809,1.9809,1.9809,1.9822,1.9965,2.0183,2.0081,1.9918,2.0219,1.9324,1.8298,1.8435,1.7649,1.6291,1.4932,1.3555,1.2557,1.2447,1.2299,1.2044,1.2052,1.1906,1.1792,1.1776,1.1776,1.1711,1.1524,1.1646,1.1573,0.0,0.0,0.0,0.0,1.1167,1.1256,0.0,0.0,0.0,0.0,0.0,1.1191,1.1524,1.1727,1.1987,1.232,1.2499,1.2678,1.2856,1.3043,1.3311,1.3644,1.366,1.375,1.3904,1.3904,1.3904,1.3904,1.3912,1.4026,1.4213,1.4383,1.4562,1.4749,1.4903,1.5187,1.5337,0.0,0.0,2.2031,2.2164,2.2325,2.2365,2.2218,2.2205,2.2178,2.2098,2.2031,2.2098,2.2392,2.2485,2.2619,2.2846,2.2859,2.2739,2.2432,2.2352,2.2084,2.1577,2.1483,2.1336,2.1109,2.1109,2.0962,2.0681,2.0535,2.0174,1.9586,1.9586,1.9439,1.9158,1.9158,1.9118,1.9038,1.8811,1.8851,1.9038,1.8811,1.8891,1.9172,1.9239,1.9265,1.9265,1.9564,1.9707,1.9707,2.004,2.0155,2.027,2.0385,2.0656,2.0737,2.0164,2.0282,2.0572,2.0879,2.1082,2.1166,2.1202,2.0041,1.8665,1.728,1.5888,1.4942,1.4477,1.3735,1.2858,1.2365,1.2093,1.1922,1.1801,1.1776,1.1711,1.1524,1.1541,0.0,0.0,1.1411,1.1476,1.1573,1.1622,1.1589,0.0,0.0,0.0,0.0,1.1679,1.1817,1.1906,1.2215,1.2418,1.2499,1.2678,1.2856,1.3035,1.336,1.3563,1.3652,1.3782,1.3863,1.3904,1.3904,1.3904,1.3912,1.4058,1.4213,1.4391,1.457,1.4749,1.4911,1.4952,1.5106,1.5325,2.1523,2.179,2.2031,2.2164,2.2418,2.2565,2.2405,2.2285,2.2218,2.2191,2.2071,2.2098,2.2392,2.2539,2.2632,2.2659,2.2779,2.2792,2.2632,2.2365,2.2084,2.1764,2.1496,2.1269,2.1109,2.1109,2.1029,2.0869,2.0869,2.0575,2.0,2.0,1.9773,1.9372,1.9372,1.9292,1.9158,1.8998,1.9011,1.9145,1.8985,1.9105,1.9372,1.9372,1.9475,1.9591,1.9707,1.9924,2.004,2.0385,2.0585,2.0713,2.0931,2.116,2.1327,2.087,2.0934,2.1251,2.1562,2.1769,2.1976,2.2029,2.0579,1.9059,1.8301,1.6678,1.5366,1.51,1.4454,1.3789,1.3321,1.3021,1.283,1.2647,1.2534,1.2319,1.1989,1.1972,0.0,1.15,1.1573,1.1663,1.1768,1.1776,1.1736,1.163,1.1719,0.0,1.1744,1.2004,1.2158,1.2158,1.2418,1.2605,1.2686,1.2865,1.3043,1.3222,1.3506,1.3685,1.3766,1.3855,1.3945,1.4026,1.3937,1.3953,1.4034,1.414,1.4278,1.4448,1.4635,1.4814,1.4976,1.5057,1.5212,1.539,2.151,2.1817,2.2124,2.2378,2.2672,2.2832,2.2739,2.2378,2.2178,2.2338,2.2138,2.2111,2.2445,2.2632,2.2659,2.2498,2.2712,2.2819,2.2739,2.2352,2.2058,2.1924,2.1483,2.1203,2.1109,2.1109,2.1109,2.1109,2.1109,2.0815,2.0227,2.0227,1.992,1.9475,1.9372,1.9225,1.8985,1.8985,1.8985,1.8985,1.8985,1.9145,1.9475,1.9475,1.9591,1.9924,1.9924,2.0183,2.0456,2.0802,2.1118,2.1392,2.1392,2.1608,2.179,2.1817,2.1868,2.1997,2.2133,2.2082,2.1906,2.2173,2.069,1.9152,1.9024,1.7238,1.5574,1.5323,1.5048,1.4719,1.4355,1.4166,1.3948,1.3684,1.3485,1.3119,1.2642,0.0,1.2334,1.1887,1.1943,1.1946,1.1971,1.1979,1.1857,1.1857,1.1857,1.1922,0.0,1.2247,1.2345,1.2345,1.2515,1.2678,1.2832,1.3035,1.3214,1.3376,1.3587,1.3758,1.3904,1.3904,1.4002,1.4172,1.401,1.405,1.4221,1.4245,1.4343,1.4489,1.4676,1.4838,1.4992,1.5171,1.5342,1.5504,2.155,2.1991,2.2365,2.2405,2.2672,2.2699,2.2191,2.2458,2.2565,2.2111,2.2017,2.2191,2.2739,2.2392,2.2298,2.2752,2.2832,2.2645,2.2151,2.2498,2.2392,2.1657,2.1764,2.1617,2.1122,2.1109,2.1109,2.1109,2.1109,2.0815,2.0227,2.0227,2.0039,1.9707,1.9475,1.9448,1.9625,1.9408,1.9292,1.9292,1.9292,1.9435,1.9707,1.9707,1.9924,2.027,2.0486,2.0786,2.1117,2.1496,2.1715,2.1977,2.1977,2.218,2.2442,2.2486,2.2661,2.285,2.2644,2.2659,2.2923,2.2966,2.2606,2.2215,2.1335,2.0195,1.892,1.7378,1.6452,1.5535,1.4509,1.4279,1.4071,1.3504,1.3381,1.3189,1.3021,0.0,1.3203,1.3388,1.3098,1.2917,1.3074,1.2591,1.2223,1.2223,1.2223,1.2239,1.2264,1.2426,1.2523,1.2523,1.2702,1.2808,1.284,1.3165,1.3344,1.3376,1.3701,1.3872,1.3904,1.3904,1.4002,1.418,1.4148,1.4237,1.4408,1.4562,1.4643,1.4684,1.4854,1.4944,1.4992,1.5171,1.526,1.5325,2.1376,2.179,2.2178,2.2178,2.2566,2.2863,2.2472,2.2687,2.2863,2.2472,2.2325,2.2378,2.2819,2.2619,2.2633,2.289,2.3038,2.2876,2.2281,2.2512,2.2378,2.1804,2.1764,2.155,2.1122,2.1109,2.1109,2.1109,2.1235,2.1132,2.0713,2.0713,2.0604,2.0287,1.9784,1.9717,1.9821,1.9542,1.9475,1.9591,1.9591,1.9822,2.004,2.004,2.0368,2.0727,2.0672,2.1162,2.1683,2.1759,2.2023,2.2418,2.2418,2.2637,2.2886,2.2886,2.2988,2.3106,2.2856,2.2981,2.3106,2.3106,2.2731,2.2104,2.174,2.0843,1.9686,1.8279,1.7636,1.7022,1.5802,1.5513,1.5289,1.485,1.4222,0.0,0.0,1.3048,1.2976,1.3195,1.2873,1.2832,1.3286,1.2674,1.2304,1.2304,1.2304,1.2345,1.2442,1.2523,1.2613,1.271,1.2881,1.2978,1.2978,1.3336,1.3514,1.3522,1.3774,1.3904,1.3904,1.4002,1.4099,1.418,1.418,1.4278,1.444,1.4521,1.4619,1.4724,1.4903,1.4968,1.4992,1.5171,1.5301,1.5423,2.1443,2.1835,2.2241,2.2241,2.2818,2.3119,2.3011,2.3039,2.2984,2.2875,2.27,2.2674,2.2969,2.3079,2.3107,2.3213,2.327,2.3215,2.275,2.2526,2.2365,2.2004,2.184,2.1545,2.1235,2.1235,2.1362,2.1362,2.1614,2.1589,2.1163,2.1163,2.0999,2.0698,2.012,2.0012,2.0118,1.9784,1.9911,2.0144,2.0144,2.0364,2.0596,2.0596,2.0985,2.1392,2.1147,2.1553,2.2242,2.1993,2.2286,2.274,2.274,2.2901,2.3106,2.3106,2.3106,2.3106,2.3106,2.3106,2.3106,2.3106,2.248,2.1866,2.1614,2.0969,2.0081,1.8792,1.8536,1.8081,1.6954,1.6517,1.628,1.5924,0.0,0.0,0.0,1.357,1.337,1.3639,1.3189,1.3012,1.3554,1.2936,1.2426,1.2426,1.2426,1.2491,1.2621,1.2629,1.271,1.2889,1.3027,1.3116,1.3157,1.3482,1.3644,1.3644,1.3863,1.3945,1.3904,1.4091,1.418,1.418,1.418,1.4302,1.4497,1.4497,1.4603,1.4781,1.4911,1.4968,1.4992,1.5171,1.5325,1.548,2.1992,2.2479,2.2897,2.2897,2.3518,2.3704,2.3037,2.3215,2.3147,2.2485,2.27,2.3078,2.3379,2.343,2.363,2.3896,2.3665,2.3379,2.3338,2.3092,2.2579,2.2017,2.21,2.1929,2.1614,2.1853,2.1978,2.1978,2.2104,2.1825,2.1163,2.1163,2.0999,2.0711,2.0335,2.0563,2.1032,2.0777,2.0763,2.1124,2.1124,2.1244,2.1603,2.1603,2.1872,2.214,2.2111,2.2315,2.2593,2.2564,2.2784,2.3076,2.3076,2.3091,2.3106,2.3106,2.3106,2.3106,2.3106,2.3106,2.3106,2.3106,2.2981,2.2731,2.1866,2.1488,2.0969,1.892,1.8536,1.8081,1.6954,1.6646,1.642,1.5731,0.0,0.0,1.5451,1.5343,1.5597,1.638,1.5209,1.4538,1.4735,1.3578,1.28,1.28,1.28,1.28,1.2816,1.2816,1.2897,1.3068,1.3084,1.3173,1.3352,1.3547,1.3644,1.3644,1.3993,1.4066,1.3904,1.4091,1.418,1.418,1.418,1.4375,1.4684,1.4684,1.4789,1.4952,1.496,1.4968,1.4992,1.5171,1.5244,1.5309,2.2216,2.2762,2.3252,2.307,2.3658,2.3969,2.3635,2.3882,2.391,2.3392,2.3513,2.369,2.3802,2.3854,2.3961,2.4224,2.4224,2.4088,2.4088,2.3952,2.3403,2.2399,2.2346,2.2298,2.1866,2.1978,2.2104,2.2104,2.2355,2.2298,2.2061,2.2061,2.199,2.1878,2.1313,2.123,2.146,2.1157,2.1194,2.1555,2.1555,2.1675,2.2049,2.2049,2.2166,2.2432,2.2242,2.2506,2.2901,2.2696,2.2842,2.3106,2.3106,2.3106,2.3106,2.3106,2.3106,2.3106,2.3106,2.3106,2.3164,2.3354,2.3413,2.3286,2.2906,2.3064,2.2566,2.0781,2.008,1.9346,1.8058,1.7136,1.6571,1.6301,0.0,1.5421,1.5421,1.5175,1.5357,1.5981,1.5366,1.4976,1.5574,1.467,1.42,1.4316,1.4325,1.4325,1.4325,1.3813,1.3759,1.4611,1.3671,1.3352,1.3539,1.3717,1.3807,1.3807,1.4058,1.4083,1.3912,1.4318,1.4383,1.4188,1.4416,1.4586,1.4708,1.4708,1.4806,1.4968,1.4968,1.4968,1.4976,1.5041,1.5139,1.5277,2.2482,2.3164,2.3676,2.3332,2.3908,2.4401,2.4196,2.436,2.436,2.4088,2.4088,2.4102,2.4102,2.4238,2.451,2.4645,2.451,2.4495,2.4495,2.4495,2.3941,2.2662,2.2832,2.2652,2.2244,2.2355,2.2355,2.2355,2.2606,2.2731,2.2606,2.2606,2.248,2.248,2.2018,2.192,2.1906,2.1695,2.184,2.2083,2.2083,2.234,2.2476,2.2476,2.2608,2.2754,2.255,2.2754,2.3076,2.2842,2.2915,2.3106,2.3106,2.3106,2.3106,2.3106,2.3106,2.3106,2.3106,2.3179,2.331,2.3545,2.3588,2.3618,2.372,2.3925,2.3695,2.2226,2.1523,2.0694,1.9066,1.8125,1.7323,1.6924,1.6308,1.597,1.5898,1.564,1.5633,1.6219,1.5724,1.5551,1.6075,1.5478,1.5177,1.5319,1.5328,1.5309,1.5243,1.476,1.4718,1.5137,1.425,1.3816,1.3725,1.3839,1.3928,1.3993,1.4115,1.4115,1.4002,1.4432,1.4456,1.4196,1.4489,1.4651,1.4708,1.4643,1.4757,1.4968,1.4968,1.4968,1.4968,1.5033,1.509,1.5187,2.3106,2.3647,2.4086,2.4086,2.4627,2.4916,2.451,2.4495,2.4374,2.4102,2.436,2.4495,2.4495,2.4916,2.5052,2.5052,2.4781,2.4495,2.4495,2.4495,2.4089,2.3056,2.3289,2.325,2.262,2.2981,2.3106,2.3106,2.3106,2.2981,2.2606,2.2606,2.248,2.2104,2.2104,2.223,2.2606,2.2606,2.2856,2.3106,2.3106,2.3106,2.3106,2.3106,2.3106,2.3106,2.3106,2.3106,2.3106,2.3106,2.3106,2.3106,2.3106,2.3106,2.3106,2.3106,2.3106,2.3106,2.3106,2.3354,2.3588,2.3603,2.3603,2.3691,2.4013,2.4086,2.3826,2.2883,2.2621,2.1951,1.9833,1.9444,1.8881,1.7347,1.7217,1.7292,1.7044,1.7012,1.7098,1.7356,1.6706,1.6297,1.6297,1.5952,1.5672,1.5672,1.5672,1.5586,1.5386,1.5567,1.5264,1.4455,1.4648,1.4561,1.3896,1.3904,1.3993,1.418,1.418,1.418,1.4188,1.4359,1.4343,1.4188,1.4359,1.4538,1.4692,1.4513,1.4643,1.4968,1.4968,1.4968,1.4984,1.5171,1.5122,1.5017,2.3501,2.4159,2.4701,2.4466,2.4774,2.5052,2.4916,2.4916,2.4916,2.4781,2.4916,2.4916,2.4916,2.5052,2.5052,2.5052,2.5052,2.4916,2.4916,2.4916,2.4727,2.4173,2.3941,2.3752,2.333,2.3223,2.3106,2.3106,2.3106,2.3106,2.2981,2.2981,2.2856,2.2856,2.2856,2.2856,2.2981,2.2981,2.2981,2.3106,2.3106,2.3106,2.3106,2.3106,2.3106,2.3106,2.3106,2.3106,2.3106,2.3106,2.3106,2.3106,2.3106,2.3106,2.3106,2.3106,2.3106,2.3164,2.3384,2.3515,2.3647,2.3881,2.4115,2.4305,2.4408,2.4598,2.4627,2.3782,2.3196,2.2603,2.1859,2.0364,1.9252,1.8703,1.8095,1.7593,1.7518,1.7507,1.7529,1.7604,1.7481,1.7336,1.7336,1.713,1.7109,1.7275,1.7286,1.7265,1.7329,1.6692,1.6294,1.6166,1.5274,1.4701,1.46,1.4181,1.3928,1.3985,1.4115,1.418,1.4188,1.4489,1.4594,1.4562,1.4732,1.4838,1.4887,1.483,1.4871,1.4968,1.4968,1.4968,1.4968,1.5025,1.5009,1.5,2.3808,2.4364,2.4803,2.4598,2.4847,2.5052,2.5052,2.5052,2.5052,2.5052,2.5052,2.5052,2.5052,2.5052,2.5052,2.5052,2.5052,2.5052,2.5052,2.5052,2.4905,2.4583,2.4379,2.4057,2.3603,2.3281,2.3106,2.3106,2.3106,2.3106,2.3106,2.3106,2.3106,2.3106,2.3106,2.3106,2.3106,2.3106,2.3106,2.3106,2.3106,2.3106,2.3106,2.3106,2.3106,2.3106,2.3106,2.3106,2.3135,2.3252,2.3296,2.3296,2.3296,2.3208,2.3164,2.3413,2.3398,2.3369,2.3706,2.3881,2.4027,2.4232,2.4423,2.4598,2.473,2.492,2.4949,2.4554,2.408,2.3602,2.302,2.191,2.0662,1.961,1.9016,1.8505,1.7884,1.7863,1.7863,1.7863,1.7863,1.7863,1.7863,1.7949,1.8067,1.8218,1.8229,1.8186,1.8099,1.7623,1.72,1.6955,1.6221,1.5661,1.5569,1.4863,1.433,1.4107,1.4156,1.4253,1.4391,1.4611,1.4708,1.4716,1.4887,1.4968,1.496,1.4895,1.4903,1.4968,1.4968,1.4968,1.4976,1.5049,1.5025,1.4992,2.4071,2.4393,2.4613,2.4613,2.4862,2.5052,2.5052,2.5052,2.5052,2.5052,2.5052,2.5052,2.5052,2.5052,2.5052,2.5052,2.5052,2.5052,2.5052,2.5052,2.492,2.4627,2.4583,2.4291,2.3691,2.3369,2.3179,2.3149,2.3149,2.3149,2.3149,2.312,2.3106,2.3106,2.3106,2.3106,2.3106,2.3106,2.3106,2.3106,2.3106,2.3106,2.3106,2.3106,2.3106,2.3106,2.3106,2.3106,2.3164,2.3486,2.3588,2.3603,2.3632,2.3427,2.331,2.391,2.3866,2.3706,2.4042,2.4349,2.4583,2.4613,2.4613,2.4686,2.4993,2.5052,2.5052,2.5052,2.5052,2.4781,2.3679,2.3406,2.2629,2.0315,1.9933,1.96,1.8291,1.8121,1.8121,1.8121,1.8121,1.8121,1.8121,1.8315,1.8444,1.8466,1.8466,1.8379,1.8164,1.8358,1.7938,1.7025,1.7228,1.7014,1.6509,1.5786,1.5147,1.4572,1.4278,1.4383,1.4708,1.4708,1.4716,1.4741,1.4895,1.4968,1.4952,1.4797,1.4822,1.4968,1.4968,1.4968,1.4984,1.5155,1.5106,1.4992,2.4452,2.473,2.4949,2.4949,2.5008,2.5052,2.5052,2.5052,2.5052,2.5052,2.5052,2.5052,2.5052,2.5052,2.5052,2.5052,2.5052,2.5052,2.5052,2.5052,2.5022,2.4949,2.4701,2.451,2.4364,2.4042,2.3749,2.3486,2.3486,2.3486,2.3486,2.3223,2.3106,2.3106,2.3106,2.3106,2.3106,2.3106,2.3106,2.3106,2.3106,2.3106,2.3106,2.3106,2.3106,2.3106,2.3106,2.3106,2.3164,2.3486,2.3588,2.3647,2.3896,2.3925,2.3896,2.4042,2.4027,2.4042,2.4379,2.451,2.4627,2.4891,2.4949,2.4964,2.5037,2.5052,2.5052,2.5052,2.5052,2.5052,2.4781,2.3952,2.2969,2.1508,2.0593,1.9657,1.8508,1.8358,1.8358,1.8358,1.8358,1.8358,1.8358,1.8401,1.8509,1.8692,1.8702,1.8681,1.8638,1.8681,1.8396,1.749,1.7541,1.7384,1.6863,1.6571,1.6159,1.5458,1.4687,1.4497,1.4708,1.4708,1.4781,1.4911,1.4952,1.4968,1.496,1.4927,1.4927,1.4968,1.4968,1.4968,1.4968,1.5009,1.5,1.4992,2.4774,2.4935,2.5052,2.5052,2.5052,2.5052,2.5052,2.5052,2.5052,2.5052,2.5052,2.5052,2.5052,2.5052,2.5052,2.5052,2.5052,2.5052,2.5052,2.5052,2.4993,2.4832,2.4803,2.4657,2.4349,2.432,2.4086,2.3588,2.3588,2.3515,2.3354,2.3193,2.3106,2.3106,2.3106,2.3106,2.3106,2.3106,2.3106,2.3106,2.3106,2.3106,2.3106,2.3106,2.3106,2.3106,2.3106,2.331,2.3603,2.3764,2.3925,2.4086,2.4262,2.4203,2.4145,2.4452,2.4437,2.4393,2.4715,2.4803,2.4847,2.5008,2.5052,2.5052,2.5052,2.5052,2.5052,2.5052,2.5052,2.5052,2.5052,2.4224,2.2983,2.1872,2.0768,1.9669,1.8573,1.8433,1.8433,1.8433,1.8433,1.8433,1.8433,1.8541,1.8605,1.8616,1.8832,1.8907,1.8789,1.8896,1.8816,1.8383,1.8383,1.8342,1.8127,1.7832,1.7427,1.7076,1.6089,1.5552,1.5438,1.5438,1.5336,1.4968,1.4968,1.4968,1.4968,1.4968,1.4968,1.4968,1.4968,1.4968,1.4968,1.4968,1.4968,1.4984,2.5008,2.5052,2.5066,2.5125,2.5096,2.5081,2.5125,2.5096,2.5052,2.5052,2.5052,2.5052,2.5052,2.5052,2.5081,2.5125,2.5096,2.5081,2.514,2.514,2.4993,2.4671,2.4964,2.4862,2.4262,2.451,2.4364,2.3764,2.3647,2.3486,2.3267,2.3164,2.3106,2.3106,2.3106,2.3106,2.3106,2.3106,2.3106,2.3106,2.3106,2.3106,2.3106,2.3106,2.3106,2.312,2.3179,2.3574,2.4086,2.4145,2.4349,2.4583,2.4642,2.4466,2.4349,2.4905,2.4862,2.4715,2.4979,2.5052,2.5052,2.5052,2.5052,2.5052,2.5052,2.5052,2.5052,2.5052,2.5052,2.5052,2.5052,2.4224,2.2983,2.1872,2.0768,1.9669,1.8573,1.8433,1.8455,1.8487,1.8498,1.8498,1.8498,1.8638,1.8692,1.8627,1.895,1.9079,1.8918,1.9101,1.9208,1.9208,1.9208,1.9327,1.9553,1.8957,1.8601,1.8774,1.799,1.7086,1.6186,1.6186,1.5727,1.4968,1.4968,1.4968,1.4968,1.4968,1.4968,1.4968,1.4968,1.4968,1.4968,1.4968,1.4968,1.4968,2.5052,2.5052,2.514,2.5418,2.5242,2.5154,2.5418,2.5227,2.5052,2.5052,2.5052,2.5052,2.5052,2.5052,2.5169,2.5447,2.5213,2.5169,2.5447,2.5461,2.533,2.5008,2.5301,2.5301,2.4935,2.4964,2.4803,2.4437,2.3866,2.372,2.394,2.3369,2.3106,2.3106,2.3106,2.3106,2.3106,2.3106,2.3106,2.3106,2.3106,2.3106,2.3106,2.3106,2.3106,2.3149,2.3427,2.3764,2.413,2.4408,2.454,2.4613,2.4905,2.4964,2.4949,2.5037,2.5022,2.4993,2.5052,2.5052,2.5052,2.5052,2.5052,2.5052,2.5052,2.5052,2.5052,2.5052,2.5052,2.5052,2.5052,2.4224,2.2983,2.1872,2.0768,1.9669,1.8573,1.8433,1.8509,1.8713,1.8735,1.8735,1.8735,1.8584,1.8724,1.9316,1.923,1.9219,1.9391,1.9435,1.9456,1.9456,1.9456,1.9564,1.9801,1.9801,1.9661,1.9693,1.9661,1.829,1.6186,1.6186,1.5727,1.4968,1.4968,1.4968,1.4968,1.4968,1.4968,1.4968,1.4968,1.4968,1.4968,1.4968,1.4968,1.4968,2.5052,2.5052,2.5096,2.5242,2.5154,2.511,2.5242,2.5154,2.5052,2.5052,2.5052,2.5052,2.5052,2.5052,2.5183,2.5505,2.5403,2.5374,2.552,2.5696,2.5579,2.5081,2.5359,2.5374,2.5066,2.4876,2.4803,2.4847,2.4188,2.3852,2.3793,2.3325,2.3106,2.3106,2.3106,2.3106,2.3106,2.3106,2.3208,2.3384,2.3384,2.3486,2.3647,2.3647,2.3647,2.3691,2.4027,2.4232,2.4408,2.473,2.4847,2.4862,2.5008,2.5052,2.5052,2.5052,2.5052,2.5052,2.5052,2.5052,2.5052,2.5052,2.5183,2.5271,2.5096,2.5198,2.5271,2.5096,2.5052,2.5052,2.5052,2.3665,2.2284,2.1721,2.0343,1.9138,1.8455,1.867,1.8821,1.8789,1.8907,1.8928,1.8799,1.8928,1.9101,1.9295,1.9445,1.9531,1.9499,1.9628,1.9693,1.9693,1.9693,1.9747,1.9844,1.9844,1.9844,1.9844,1.9844,1.9077,1.7559,1.7102,1.6492,1.5573,1.5275,1.4968,1.4968,1.4968,1.4968,1.4968,1.4968,1.4968,1.4968,1.4968,1.4968,1.4968]},{"header":{"parameterUnit":"m.s-1","parameterCategory":1,"la1":30.6,"la2":28.766,"lo1":-90.7593,"lo2":-88.6598,"dy":0.0162,"dx":0.0183,"nx":116,"ny":114,"refTime":"2023-10-18T06:00:00:Z","depth":0,"parameterNumber":3,"parameterNumberName":"V-component_of_WINDS"},"data":[0.0,0.0,0.0,0.0,0.0,0.0,0.0,0.0,0.0,0.0,0.0,0.0,0.0,0.0,0.0,0.0,0.0,0.0,0.0,0.0,0.0,0.0,0.0,0.0,0.0,0.0,0.0,0.0,0.0,0.0,0.0,0.0,0.0,0.0,0.0,0.0,0.0,0.0,0.0,0.0,0.0,0.0,0.0,0.0,0.0,0.0,0.0,0.0,0.0,0.0,0.0,0.0,0.0,0.0,0.0,0.0,0.0,0.0,0.0,0.0,0.0,0.0,0.0,0.0,0.0,0.0,0.0,0.0,0.0,0.0,0.0,0.0,0.0,0.0,0.0,0.0,0.0,0.0,0.0,0.0,0.0,0.0,0.0,0.0,0.0,0.0,0.0,0.0,0.0,0.0,0.0,0.0,0.0,0.0,0.0,0.0,0.0,0.0,0.0,0.0,0.0,0.0,0.0,0.0,0.0,0.0,0.0,0.0,0.0,0.0,0.0,0.0,0.0,0.0,0.0,0.0,0.0,0.0,0.0,0.0,0.0,0.0,0.0,0.0,0.0,0.0,0.0,0.0,0.0,0.0,0.0,0.0,0.0,0.0,0.0,0.0,0.0,0.0,0.0,0.0,0.0,0.0,0.0,0.0,0.0,0.0,0.0,0.0,0.0,0.0,0.0,0.0,0.0,0.0,0.0,0.0,0.0,0.0,0.0,0.0,0.0,0.0,0.0,0.0,0.0,0.0,0.0,0.0,0.0,0.0,0.0,0.0,0.0,0.0,0.0,0.0,0.0,0.0,0.0,0.0,0.0,0.0,0.0,0.0,0.0,0.0,0.0,0.0,0.0,0.0,0.0,0.0,0.0,0.0,0.0,0.0,0.0,0.0,0.0,0.0,0.0,0.0,0.0,0.0,0.0,0.0,0.0,0.0,0.0,0.0,0.0,0.0,0.0,0.0,0.0,0.0,0.0,0.0,0.0,0.0,0.0,0.0,0.0,0.0,0.0,0.0,0.0,0.0,0.0,0.0,0.0,0.0,0.0,0.0,0.0,0.0,0.0,0.0,0.0,0.0,0.0,0.0,0.0,0.0,0.0,0.0,0.0,0.0,0.0,0.0,0.0,0.0,0.0,0.0,0.0,0.0,0.0,0.0,0.0,0.0,0.0,0.0,0.0,0.0,0.0,0.0,0.0,0.0,0.0,0.0,0.0,0.0,0.0,0.0,0.0,0.0,0.0,0.0,0.0,0.0,0.0,0.0,0.0,0.0,0.0,0.0,0.0,0.0,0.0,0.0,0.0,0.0,0.0,0.0,0.0,0.0,0.0,0.0,0.0,0.0,0.0,0.0,0.0,0.0,0.0,0.0,0.0,0.0,0.0,0.0,0.0,0.0,0.0,0.0,0.0,0.0,0.0,0.0,0.0,0.0,0.0,0.0,0.0,0.0,0.0,0.0,0.0,0.0,0.0,0.0,0.0,0.0,0.0,0.0,0.0,0.0,0.0,0.0,0.0,0.0,0.0,0.0,0.0,0.0,0.0,0.0,0.0,0.0,0.0,0.0,0.0,0.0,0.0,0.0,0.0,0.0,0.0,0.0,0.0,0.0,0.0,0.0,0.0,0.0,0.0,0.0,0.0,0.0,0.0,0.0,0.0,0.0,0.0,0.0,0.0,0.0,0.0,0.0,0.0,0.0,0.0,0.0,0.0,0.0,0.0,0.0,0.0,0.0,0.0,0.0,0.0,0.0,0.0,0.0,0.0,0.0,0.0,0.0,0.0,0.0,0.0,0.0,0.0,0.0,0.0,0.0,0.0,0.0,0.0,0.0,0.0,0.0,0.0,0.0,0.0,0.0,0.0,0.0,0.0,0.0,0.0,0.0,0.0,0.0,0.0,0.0,0.0,0.0,0.0,0.0,0.0,0.0,0.0,0.0,0.0,0.0,0.0,0.0,0.0,0.0,0.0,0.0,0.0,0.0,0.0,0.0,0.0,0.0,0.0,0.0,0.0,0.0,0.0,0.0,0.0,0.0,0.0,0.0,0.0,0.0,0.0,0.0,0.0,0.0,0.0,0.0,0.0,0.0,0.0,0.0,0.0,0.0,0.0,0.0,0.0,0.0,0.0,0.0,0.0,0.0,0.0,0.0,0.0,0.0,0.0,0.0,0.0,0.0,0.0,0.0,0.0,0.0,0.0,0.0,0.0,0.0,0.0,0.0,0.0,0.0,0.0,0.0,0.0,0.0,0.0,0.0,0.0,0.0,0.0,0.0,0.0,0.0,0.0,0.0,0.0,0.0,0.0,0.0,0.0,0.0,0.0,0.0,0.0,0.0,0.0,0.0,0.0,0.0,0.0,0.0,0.0,0.0,0.0,0.0,0.0,0.0,0.0,0.0,0.0,0.0,0.0,0.0,0.0,0.0,0.0,0.0,0.0,0.0,0.0,0.0,0.0,0.0,0.0,0.0,0.0,0.0,0.0,0.0,0.0,0.0,0.0,0.0,0.0,0.0,0.0,0.0,0.0,0.0,0.0,0.0,0.0,0.0,0.0,0.0,0.0,0.0,0.0,0.0,0.0,0.0,0.0,0.0,0.0,0.0,0.0,0.0,0.0,0.0,0.0,0.0,0.0,0.0,0.0,0.0,0.0,0.0,0.0,0.0,0.0,0.0,0.0,0.0,0.0,0.0,0.0,0.0,0.0,0.0,0.0,0.0,0.0,0.0,0.0,0.0,0.0,0.0,0.0,0.0,0.0,0.0,0.0,0.0,0.0,0.0,0.0,0.0,0.0,0.0,0.0,0.0,0.0,0.0,0.0,0.0,0.0,0.0,0.0,0.0,0.0,0.0,0.0,0.0,0.0,0.0,0.0,0.0,0.0,0.0,0.0,0.0,0.0,0.0,0.0,0.0,0.0,0.0,0.0,0.0,0.0,0.0,0.0,0.0,0.0,0.0,0.0,0.0,0.0,0.0,0.0,0.0,0.0,0.0,0.0,0.0,0.0,0.0,0.0,0.0,0.0,0.0,0.0,0.0,0.0,0.0,0.0,0.0,0.0,0.0,0.0,0.0,0.0,0.0,0.0,0.0,0.0,0.0,0.0,0.0,0.0,0.0,0.0,0.0,0.0,0.0,0.0,0.0,0.0,0.0,0.0,0.0,0.0,0.0,0.0,0.0,0.0,0.0,0.0,0.0,0.0,0.0,0.0,0.0,0.0,0.0,0.0,0.0,0.0,0.0,0.0,0.0,0.0,0.0,0.0,0.0,0.0,0.0,0.0,0.0,0.0,0.0,0.0,0.0,0.0,0.0,0.0,0.0,0.0,0.0,0.0,0.0,0.0,0.0,0.0,0.0,0.0,0.0,0.0,0.0,0.0,0.0,0.0,0.0,0.0,0.0,0.0,0.0,0.0,0.0,0.0,0.0,0.0,0.0,0.0,0.0,0.0,0.0,0.0,0.0,0.0,0.0,0.0,0.0,0.0,0.0,0.0,0.0,0.0,0.0,0.0,0.0,0.0,0.0,0.0,0.0,0.0,0.0,0.0,0.0,0.0,0.0,0.0,0.0,0.0,0.0,0.0,0.0,0.0,0.0,0.0,0.0,0.0,0.0,0.0,0.0,0.0,0.0,0.0,0.0,0.0,0.0,0.0,0.0,0.0,0.0,0.0,0.0,0.0,0.0,0.0,0.0,0.0,0.0,0.0,0.0,0.0,0.0,0.0,0.0,0.0,0.0,0.0,0.0,0.0,0.0,0.0,0.0,0.0,0.0,0.0,0.0,0.0,0.0,0.0,0.0,0.0,0.0,0.0,0.0,0.0,0.0,0.0,0.0,0.0,0.0,0.0,0.0,0.0,0.0,0.0,0.0,0.0,0.0,0.0,0.0,0.0,0.0,0.0,0.0,0.0,0.0,0.0,0.0,0.0,0.0,0.0,0.0,0.0,0.0,0.0,0.0,0.0,0.0,0.0,0.0,0.0,0.0,0.0,0.0,0.0,0.0,0.0,0.0,0.0,0.0,0.0,0.0,0.0,0.0,0.0,0.0,0.0,0.0,0.0,0.0,0.0,0.0,0.0,0.0,0.0,0.0,0.0,0.0,0.0,0.0,0.0,0.0,0.0,0.0,0.0,0.0,0.0,0.0,0.0,0.0,0.0,0.0,0.0,0.0,0.0,0.0,0.0,0.0,0.0,0.0,0.0,0.0,0.0,0.0,0.0,0.0,0.0,0.0,0.0,0.0,0.0,0.0,0.0,0.0,0.0,0.0,0.0,0.0,0.0,0.0,0.0,0.0,0.0,0.0,0.0,0.0,0.0,0.0,0.0,0.0,0.0,0.0,0.0,0.0,0.0,0.0,0.0,0.0,0.0,0.0,0.0,0.0,0.0,0.0,0.0,0.0,0.0,0.0,0.0,0.0,0.0,0.0,0.0,0.0,0.0,0.0,0.0,0.0,0.0,0.0,0.0,0.0,0.0,0.0,0.0,0.0,0.0,0.0,0.0,0.0,0.0,0.0,0.0,0.0,0.0,0.0,0.0,0.0,0.0,0.0,0.0,0.0,0.0,0.0,0.0,0.0,0.0,0.0,0.0,0.0,0.0,0.0,0.0,0.0,0.0,0.0,0.0,0.0,0.0,0.0,0.0,0.0,0.0,0.0,0.0,0.0,0.0,0.0,0.0,0.0,0.0,0.0,0.0,0.0,0.0,0.0,0.0,0.0,0.0,0.0,0.0,0.0,0.0,0.0,0.0,0.0,0.0,0.0,0.0,0.0,0.0,0.0,0.0,0.0,0.0,0.0,0.0,0.0,0.0,0.0,0.0,0.0,0.0,0.0,0.0,0.0,0.0,0.0,0.0,0.0,0.0,0.0,0.0,0.0,0.0,0.0,0.0,0.0,0.0,0.0,0.0,0.0,0.0,0.0,0.0,0.0,0.0,0.0,0.0,0.0,0.0,0.0,0.0,0.0,0.0,0.0,0.0,0.0,0.0,0.0,0.0,0.0,0.0,0.0,0.0,0.0,0.0,0.0,0.0,0.0,0.0,0.0,0.0,0.0,0.0,0.0,0.0,0.0,0.0,0.0,0.0,0.0,0.0,0.0,0.0,0.0,0.0,0.0,0.0,0.0,0.0,0.0,0.0,0.0,0.0,0.0,0.0,0.0,0.0,0.0,0.0,0.0,0.0,0.0,0.0,0.0,0.0,0.0,0.0,0.0,0.0,0.0,0.0,0.0,0.0,0.0,0.0,0.0,0.0,0.0,0.0,0.0,0.0,0.0,0.0,0.0,0.0,0.0,0.0,0.0,0.0,0.0,0.0,0.0,0.0,0.0,0.0,0.0,0.0,0.0,0.0,0.0,0.0,0.0,0.0,0.0,0.0,0.0,0.0,0.0,0.0,0.0,0.0,0.0,0.0,0.0,0.0,0.0,0.0,0.0,0.0,0.0,0.0,0.0,0.0,0.0,0.0,0.0,0.0,0.0,0.0,0.0,0.0,0.0,0.0,0.0,0.0,0.0,0.0,0.0,0.0,0.0,0.0,0.0,0.0,0.0,0.0,0.0,0.0,0.0,0.0,0.0,0.0,0.0,0.0,0.0,0.0,0.0,0.0,0.0,0.0,0.0,0.0,0.0,0.0,0.0,0.0,0.0,0.0,0.0,0.0,0.0,0.0,0.0,0.0,0.0,0.0,0.0,0.0,0.0,0.0,0.0,0.0,0.0,0.0,0.0,0.0,0.0,0.0,0.0,0.0,0.0,0.0,0.0,0.0,0.0,0.0,0.0,0.0,0.0,0.0,0.0,0.0,0.0,0.0,0.0,0.0,0.0,0.0,0.0,0.0,0.0,0.0,0.0,0.0,0.0,0.0,0.0,0.0,0.0,0.0,0.0,0.0,0.0,0.0,0.0,0.0,0.0,0.0,0.0,0.0,0.0,0.0,0.0,0.0,0.0,0.0,0.0,0.0,0.0,0.0,0.0,0.0,0.0,0.0,0.0,0.0,0.0,0.0,0.0,0.0,0.0,0.0,0.0,0.0,0.0,0.0,0.0,0.0,0.0,0.0,0.0,0.0,0.0,0.0,0.0,0.0,0.0,0.0,0.0,0.0,0.0,0.0,0.0,0.0,0.0,-4.8949,0.0,0.0,0.0,0.0,0.0,0.0,0.0,0.0,0.0,0.0,0.0,0.0,0.0,0.0,0.0,0.0,0.0,0.0,0.0,0.0,0.0,0.0,0.0,0.0,0.0,0.0,0.0,0.0,0.0,0.0,0.0,0.0,0.0,0.0,0.0,0.0,0.0,0.0,0.0,0.0,0.0,0.0,0.0,0.0,0.0,0.0,0.0,0.0,0.0,0.0,0.0,0.0,0.0,0.0,0.0,0.0,0.0,0.0,0.0,0.0,0.0,0.0,0.0,0.0,0.0,0.0,0.0,0.0,0.0,0.0,0.0,0.0,0.0,0.0,0.0,0.0,0.0,0.0,0.0,0.0,0.0,0.0,0.0,0.0,0.0,0.0,0.0,0.0,0.0,0.0,0.0,0.0,0.0,0.0,0.0,0.0,0.0,0.0,0.0,0.0,0.0,0.0,0.0,0.0,0.0,0.0,0.0,0.0,0.0,0.0,0.0,0.0,0.0,0.0,0.0,0.0,-5.1047,0.0,0.0,0.0,0.0,0.0,0.0,0.0,0.0,0.0,0.0,0.0,0.0,0.0,0.0,0.0,0.0,0.0,0.0,0.0,0.0,0.0,0.0,0.0,0.0,0.0,0.0,0.0,0.0,0.0,0.0,0.0,0.0,0.0,0.0,0.0,0.0,0.0,0.0,0.0,0.0,0.0,0.0,0.0,0.0,0.0,0.0,0.0,0.0,0.0,0.0,0.0,0.0,0.0,0.0,0.0,0.0,0.0,0.0,0.0,0.0,0.0,0.0,0.0,0.0,0.0,0.0,0.0,0.0,0.0,0.0,0.0,0.0,0.0,0.0,0.0,0.0,0.0,0.0,0.0,0.0,0.0,0.0,0.0,0.0,0.0,0.0,0.0,0.0,0.0,0.0,0.0,0.0,0.0,0.0,0.0,0.0,0.0,0.0,0.0,0.0,0.0,0.0,0.0,0.0,0.0,0.0,0.0,0.0,-5.5073,-5.6705,-5.8921,-5.8195,-5.9218,-6.1279,-5.7741,-5.5668,-5.4762,-5.3907,0.0,0.0,0.0,0.0,0.0,0.0,0.0,0.0,0.0,0.0,0.0,0.0,0.0,0.0,0.0,0.0,0.0,0.0,0.0,0.0,0.0,0.0,0.0,0.0,0.0,0.0,0.0,0.0,0.0,0.0,0.0,0.0,0.0,0.0,0.0,0.0,0.0,0.0,-4.5889,-4.8334,-4.9366,-4.9022,-4.6003,0.0,0.0,0.0,0.0,0.0,0.0,0.0,0.0,0.0,0.0,0.0,0.0,0.0,0.0,0.0,0.0,0.0,0.0,0.0,0.0,0.0,0.0,0.0,0.0,0.0,0.0,0.0,0.0,0.0,0.0,0.0,0.0,0.0,0.0,0.0,0.0,0.0,0.0,0.0,0.0,0.0,0.0,0.0,-4.25,-4.3394,0.0,0.0,0.0,0.0,0.0,0.0,0.0,0.0,0.0,0.0,0.0,0.0,0.0,-5.3766,-5.6369,-5.8622,-6.0254,-6.1342,-6.2238,-6.3196,-6.4298,-6.4237,-6.5192,-6.6946,-6.6361,0.0,-5.9293,-5.8398,0.0,0.0,0.0,0.0,0.0,0.0,0.0,0.0,0.0,0.0,0.0,0.0,0.0,0.0,0.0,0.0,0.0,0.0,0.0,0.0,0.0,0.0,0.0,0.0,0.0,0.0,0.0,0.0,0.0,0.0,0.0,0.0,0.0,0.0,0.0,0.0,-4.6844,-4.8945,-5.0818,-5.2422,-5.3416,-5.3798,-5.2805,-5.0283,-4.6653,-4.5774,0.0,0.0,0.0,0.0,0.0,0.0,0.0,0.0,0.0,0.0,0.0,0.0,0.0,0.0,0.0,0.0,0.0,0.0,0.0,0.0,0.0,0.0,0.0,0.0,0.0,0.0,0.0,0.0,0.0,0.0,0.0,0.0,0.0,0.0,0.0,0.0,0.0,0.0,0.0,-4.3917,-4.522,-4.5608,-4.5647,-4.5297,0.0,0.0,0.0,0.0,0.0,0.0,0.0,0.0,0.0,-5.5553,-5.7235,-5.9296,-6.1847,-6.3495,-6.4998,-6.6314,-6.7136,-6.8267,-6.9591,-6.9161,-6.9924,-7.1555,-7.1087,-6.9304,-6.6576,-6.3741,-6.1588,-5.9835,0.0,0.0,0.0,0.0,-5.6874,-5.7429,0.0,0.0,0.0,0.0,0.0,0.0,0.0,0.0,0.0,0.0,0.0,0.0,0.0,0.0,0.0,0.0,0.0,0.0,0.0,0.0,0.0,0.0,0.0,0.0,0.0,0.0,0.0,0.0,-5.0168,-5.2499,-5.5403,-5.6702,-5.7772,-5.8574,-5.9224,-5.5976,-4.9977,-4.8907,-4.7341,0.0,0.0,0.0,0.0,0.0,0.0,0.0,0.0,0.0,0.0,0.0,0.0,0.0,0.0,0.0,0.0,0.0,0.0,0.0,0.0,0.0,0.0,0.0,0.0,0.0,0.0,0.0,0.0,0.0,0.0,0.0,0.0,0.0,0.0,0.0,0.0,0.0,0.0,-4.6064,-4.7784,-4.7356,-4.8289,-4.8327,0.0,0.0,0.0,0.0,0.0,0.0,-5.3417,-5.6291,-5.9322,-6.2313,-6.3508,-6.5297,-6.7829,-6.8734,-6.9953,-7.1397,-7.2025,-7.3172,-7.4664,-7.4014,-7.4478,-7.5728,-7.5065,-7.4459,-7.3509,-6.8709,-6.5736,-6.4021,-6.1837,-6.0582,-6.0027,-6.027,-6.0785,-6.1456,0.0,0.0,0.0,0.0,0.0,0.0,0.0,0.0,0.0,0.0,0.0,0.0,0.0,0.0,0.0,0.0,0.0,0.0,0.0,0.0,0.0,0.0,0.0,0.0,0.0,0.0,0.0,-5.0168,-5.4218,-5.7122,-5.8918,-6.1363,-6.3006,-6.3809,-6.3847,-6.1019,-5.6052,-5.4409,-5.227,-4.9786,0.0,0.0,0.0,0.0,0.0,0.0,0.0,0.0,0.0,0.0,0.0,0.0,0.0,0.0,0.0,0.0,0.0,0.0,0.0,0.0,0.0,0.0,0.0,0.0,0.0,0.0,0.0,0.0,0.0,0.0,0.0,0.0,0.0,0.0,0.0,0.0,0.0,0.0,0.0,-4.7512,-5.0891,0.0,0.0,0.0,0.0,-5.2018,-5.4465,-5.7029,-5.9516,-6.1381,-6.4294,-6.8529,-7.0238,-7.2336,-7.4939,-7.5852,-7.6738,-7.7633,-7.7802,-7.8369,-7.9266,-7.9307,-7.9359,-7.9437,-7.9398,-7.9359,-7.8852,-7.2807,-6.9358,-6.7727,-6.6791,-6.6338,-6.6351,-6.7243,-6.761,-6.7766,0.0,0.0,0.0,0.0,0.0,0.0,0.0,0.0,0.0,0.0,0.0,0.0,0.0,0.0,0.0,0.0,0.0,0.0,0.0,0.0,0.0,0.0,0.0,0.0,0.0,0.0,-5.1009,-5.5174,-5.7772,-6.0446,-6.3159,-6.4076,-6.5566,-6.74,-6.74,-6.6407,-6.4382,-5.9415,-5.5861,-5.3378,-5.0818,-4.8449,0.0,0.0,0.0,0.0,0.0,0.0,0.0,0.0,0.0,0.0,0.0,0.0,0.0,0.0,0.0,0.0,0.0,0.0,0.0,0.0,0.0,0.0,0.0,0.0,0.0,0.0,0.0,0.0,0.0,0.0,0.0,0.0,0.0,0.0,0.0,0.0,0.0,-5.4582,-5.804,0.0,-5.7845,-5.8506,-5.9244,-5.9827,-6.2779,-6.5149,-6.6586,-6.8839,-7.1319,-7.3985,-7.5176,-7.6498,-7.7976,-7.8377,-7.8635,-7.8876,-7.9001,-7.9528,-8.0386,-8.0445,-8.079,-8.1356,-8.0771,-8.0537,-8.0302,-7.7596,-7.5443,-7.3654,-7.1117,-7.0135,-7.0089,-6.9862,-7.0141,-7.0727,0.0,0.0,0.0,0.0,0.0,0.0,0.0,0.0,0.0,0.0,0.0,0.0,0.0,0.0,0.0,0.0,0.0,0.0,0.0,0.0,0.0,0.0,0.0,0.0,0.0,-5.1123,-5.4639,-5.9147,-6.1134,-6.3656,-6.6674,-6.698,-6.8317,-7.0495,-7.0495,-7.0304,-6.9731,-6.4955,-6.0981,-5.7657,-5.4562,-5.227,-5.0359,0.0,0.0,0.0,0.0,0.0,0.0,0.0,0.0,0.0,0.0,0.0,0.0,0.0,0.0,0.0,0.0,0.0,0.0,0.0,0.0,0.0,0.0,0.0,0.0,0.0,0.0,0.0,0.0,0.0,0.0,0.0,0.0,0.0,0.0,0.0,-5.8661,-6.0332,-6.41,-6.6003,-6.4566,-6.5188,-6.5926,-6.6508,-6.9461,-7.1753,-7.2841,-7.455,-7.6527,-7.8847,-7.9492,-8.0209,-8.1096,-8.148,-8.1325,-8.0683,-8.0803,-8.1158,-8.1704,-8.1772,-8.2273,-8.3113,-8.2514,-8.2085,-8.1786,-8.1187,-8.0133,-7.8546,-7.5384,-7.4173,-7.4056,-7.3197,-7.3236,-7.3783,0.0,0.0,0.0,0.0,0.0,0.0,0.0,0.0,0.0,0.0,0.0,0.0,0.0,0.0,0.0,0.0,0.0,0.0,0.0,0.0,0.0,0.0,0.0,0.0,-5.0474,-5.46,-5.8421,-6.1784,-6.4305,-6.6827,-6.9349,-7.0113,-7.1412,-7.3165,-7.3127,-7.2668,-7.1866,-7.0954,-6.7744,-6.2892,-5.8574,-5.6778,-5.6167,0.0,0.0,0.0,0.0,0.0,0.0,0.0,0.0,0.0,0.0,0.0,0.0,0.0,0.0,0.0,0.0,0.0,0.0,0.0,0.0,0.0,0.0,0.0,0.0,0.0,0.0,0.0,0.0,0.0,0.0,0.0,0.0,0.0,-5.3844,-5.9865,-6.4216,-6.4372,-6.8839,-7.0898,-6.849,-7.051,-7.1947,-7.1947,-7.4356,-7.6531,-7.8163,-7.828,-7.9795,-8.3116,-8.3232,-8.3658,-8.4521,-8.5492,-8.5091,-8.344,-8.3522,-8.3582,-8.3582,-8.3582,-8.405,-8.4863,-8.4785,-8.4286,-8.3543,-8.3458,-8.2999,-8.2059,-7.9483,-7.8468,-7.8311,-7.7453,-7.7101,-7.7101,0.0,0.0,0.0,0.0,0.0,0.0,0.0,0.0,0.0,0.0,0.0,0.0,0.0,0.0,0.0,0.0,0.0,0.0,0.0,0.0,0.0,0.0,0.0,0.0,-5.5708,-5.8847,-6.2333,-6.6178,-6.7515,-6.9464,-7.1947,-7.2326,-7.373,-7.5986,-7.613,-7.6293,-7.6377,-7.4919,-7.3061,-7.0572,-6.4535,-6.0981,-5.8994,0.0,0.0,0.0,0.0,0.0,0.0,0.0,0.0,0.0,0.0,0.0,0.0,0.0,0.0,0.0,0.0,0.0,0.0,0.0,0.0,0.0,0.0,0.0,0.0,0.0,0.0,0.0,0.0,0.0,0.0,0.0,0.0,-5.9943,-6.0176,-6.4527,-6.9072,-7.2763,-7.6104,-7.8085,-7.8046,-7.9173,-7.995,-7.995,-8.1794,-8.3116,-8.3563,-8.4185,-8.4997,-8.6062,-8.6038,-8.5891,-8.5582,-8.6451,-8.5999,-8.4207,-8.5019,-8.5348,-8.5242,-8.5348,-8.5846,-8.6666,-8.5988,-8.5215,-8.4434,-8.4356,-8.3527,-8.2101,-8.0804,-7.9912,-7.9248,-7.835,-7.7648,-7.7101,0.0,0.0,0.0,0.0,0.0,0.0,0.0,0.0,0.0,0.0,0.0,0.0,0.0,0.0,0.0,0.0,0.0,0.0,0.0,0.0,0.0,0.0,0.0,-5.5707,-5.961,-6.2974,-6.6013,-6.8723,-6.9913,-7.1641,-7.3829,-7.4284,-7.5649,-7.7805,-7.8255,-7.8651,-7.8998,-7.8344,-7.7707,-7.6709,-7.2131,-6.7995,-6.4229,-6.1019,-5.9071,-5.781,-5.5785,-5.4753,-5.3951,-5.1162,0.0,0.0,0.0,0.0,0.0,0.0,0.0,0.0,0.0,0.0,0.0,0.0,0.0,0.0,0.0,0.0,0.0,0.0,0.0,0.0,0.0,0.0,0.0,0.0,-6.3168,-6.748,-6.8917,-7.1248,-7.4472,-7.8862,-8.1038,-8.2398,-8.2903,-8.3679,-8.4185,-8.4204,-8.5486,-8.6418,-8.6787,-8.6962,-8.7422,-8.8257,-8.8257,-8.8027,-8.7653,-8.8472,-8.8022,-8.626,-8.6519,-8.68,-8.7058,-8.641,-8.6776,0.0,-8.6995,-8.5903,-8.4763,-8.5127,-8.4269,0.0,0.0,0.0,0.0,0.0,-7.8065,-7.7648,0.0,0.0,0.0,0.0,0.0,0.0,0.0,0.0,0.0,0.0,0.0,0.0,0.0,0.0,0.0,0.0,0.0,0.0,0.0,0.0,0.0,-5.0284,-5.5825,-6.0113,-6.2853,-6.6814,-6.934,-7.0397,-7.1979,-7.3639,-7.5337,-7.6173,-7.7486,-7.9185,-7.9906,-8.0331,-8.0497,-8.1142,-8.1347,-8.1203,-7.9621,-7.5784,-7.0566,-6.6583,-6.5367,-6.549,-6.293,-6.0255,-5.7695,-5.6537,0.0,0.0,0.0,0.0,0.0,0.0,0.0,0.0,0.0,0.0,0.0,0.0,0.0,0.0,0.0,0.0,0.0,0.0,0.0,0.0,0.0,0.0,0.0,0.0,-6.9422,-7.49,-7.8513,-7.9018,-8.0105,-8.3019,-8.4068,-8.4612,-8.4806,-8.5544,-8.601,-8.6146,-8.6962,-8.7817,-8.8633,0.0,0.0,0.0,0.0,-9.0054,-9.0032,-9.0862,-9.0452,-8.8845,-8.8071,-8.8025,-8.8603,-8.6971,-8.7034,-8.8394,-8.7663,-8.6375,-8.4932,-8.5663,-8.5067,-8.3536,-8.2561,-8.1704,-8.0764,-7.8984,-7.8363,0.0,0.0,0.0,0.0,0.0,0.0,0.0,0.0,0.0,0.0,0.0,0.0,0.0,0.0,0.0,0.0,0.0,0.0,0.0,0.0,0.0,-5.1018,-5.5459,-5.9529,-6.3458,-6.7216,-6.9568,-7.1811,-7.3884,-7.4912,-7.6225,-7.7896,-7.8965,-8.0392,-8.2017,-8.2333,-8.2777,-8.3256,-8.2738,-8.2406,-8.2168,-8.1126,-7.8325,-7.4443,-7.1564,-6.9681,-6.8126,-6.5566,-6.5108,-6.5176,-6.1799,-6.1006,-6.0916,-5.7443,-5.4227,0.0,0.0,0.0,0.0,0.0,0.0,0.0,0.0,0.0,0.0,0.0,0.0,0.0,0.0,0.0,0.0,0.0,0.0,0.0,-7.0937,-7.5405,-7.9756,-8.4573,-8.5272,-8.5233,-8.5195,-8.535,-8.601,-8.7429,-8.7701,-8.8089,-8.8789,-8.9664,-9.0247,-9.0499,-9.1015,-9.1465,-9.1809,-9.1886,-9.1582,-9.0852,-9.1748,-9.1367,-8.9662,0.0,0.0,-8.8506,-8.7573,-8.7308,-8.7536,-8.7417,-8.6769,-8.5832,-8.5955,-8.54,-8.4317,-8.2858,-8.2163,-8.1726,-7.9275,-7.8383,-7.8311,0.0,0.0,0.0,0.0,0.0,0.0,0.0,0.0,0.0,0.0,0.0,0.0,0.0,0.0,0.0,0.0,0.0,0.0,0.0,-5.1023,-5.4793,-5.9094,-6.3463,-6.7148,-7.0002,-7.2657,-7.4596,-7.5791,-7.7091,-7.8347,-7.9625,-8.0179,-8.1346,-8.2975,-8.3524,-8.4417,-8.5536,-8.5557,-8.5723,-8.5924,-8.5071,-8.3579,-8.1424,-7.7467,-7.512,-7.3726,-7.2006,-7.0882,-6.9767,-6.732,-6.5943,-6.4825,-6.2352,-5.9264,-5.6232,0.0,0.0,0.0,0.0,0.0,0.0,0.0,0.0,0.0,0.0,0.0,0.0,0.0,0.0,-5.8622,0.0,0.0,-7.1442,-7.657,-8.0649,-8.4185,-8.7215,-8.8012,-8.7934,-8.7118,-8.6982,-8.7506,-8.8789,-8.8905,-8.9294,-9.0208,-9.068,-9.1158,-9.1626,-9.2066,-9.2323,-9.2351,-9.2362,-9.2188,-9.1787,-9.228,-9.2046,-9.1202,-9.0836,-9.0586,-9.0472,-8.8798,-8.8244,-8.855,-8.7737,-8.6886,-8.6012,-8.5582,-8.566,-8.5856,-8.3731,-8.2371,-8.1435,-7.9658,-7.8767,-7.835,0.0,0.0,0.0,0.0,0.0,0.0,0.0,0.0,0.0,0.0,0.0,0.0,0.0,0.0,0.0,0.0,0.0,0.0,0.0,-5.3378,-5.8234,-6.1963,-6.678,-7.0277,-7.2297,-7.5211,-7.6881,-7.7231,-7.8785,-7.9911,-8.061,-8.0921,-8.2009,-8.3641,-8.4534,-8.5855,-8.7525,-8.8225,-8.8924,-8.9429,-8.8807,-8.8373,-8.7691,-8.3051,-8.0628,-7.9505,-7.8154,-7.5375,-7.2312,-7.1819,-6.9369,-6.6453,-6.6031,-6.3748,-6.0809,-5.8392,-5.6953,0.0,0.0,0.0,0.0,0.0,0.0,0.0,0.0,-5.5204,-5.7146,-6.0565,-6.2818,-6.5498,-7.0005,-7.42,-7.8163,-8.1737,-8.5233,-8.7836,-8.8885,-8.9449,-8.9566,-8.91,-8.8905,-8.9061,-8.9702,-8.9974,-9.0402,-9.1097,-9.1192,-9.1546,-9.2287,-9.2312,-9.2327,-9.242,-9.2403,-9.2442,-9.2475,-9.2482,-9.2482,-9.2482,-9.1663,-9.1616,-9.2163,-8.9789,-8.9025,-8.9554,-8.8041,-8.687,-8.5955,-8.5129,-8.5729,-8.69,-8.4441,-8.2684,-8.1317,-8.0072,-7.9221,-7.8585,0.0,0.0,0.0,0.0,0.0,0.0,0.0,0.0,0.0,0.0,0.0,0.0,0.0,0.0,0.0,0.0,0.0,0.0,0.0,-5.4971,-5.9632,-6.4566,-6.8257,-7.1714,-7.4977,-7.6143,-7.7464,-7.9018,-7.9989,-8.0494,-8.0649,-8.2126,-8.3757,-8.5467,-8.6321,-8.7642,-8.9235,-8.9313,-8.9429,-8.9507,-8.939,-8.9351,-8.9098,-8.698,-8.4955,-8.2824,-7.966,-7.5877,-7.2442,-7.3303,-7.1317,-6.8626,-6.9433,-6.8419,-6.5934,-6.1158,-5.809,-5.5502,-5.2006,-5.1773,-5.3028,-5.5087,-5.6291,-5.8389,0.0,-6.4916,-6.6042,-6.9461,-7.218,-7.455,-7.6609,-7.9872,-8.3602,-8.7836,-8.8924,-8.9779,-9.1449,-9.11,-9.0926,-9.1587,-9.1043,-9.0615,-9.0635,-9.1432,-9.1949,-9.2052,-9.2046,-9.217,-9.2365,-9.239,-9.2391,-9.2419,-9.2471,-9.2459,-9.2422,-9.2468,-9.2482,-9.2482,-9.1663,-9.1336,-9.1291,-8.9501,-8.8696,-8.8599,-8.7721,-8.6862,-8.6034,-8.5143,-8.5377,-8.6041,-8.4206,-8.3386,-8.2918,-8.0569,-7.9633,-7.9326,0.0,0.0,0.0,0.0,0.0,0.0,0.0,0.0,0.0,0.0,0.0,0.0,0.0,0.0,0.0,0.0,0.0,0.0,-5.0918,-5.6136,-6.1342,-6.6508,-7.0005,-7.2957,-7.5444,-7.727,-7.8823,-8.0067,-8.0921,-8.1582,-8.2048,-8.2281,-8.3563,-8.57,-8.6088,-8.7448,-8.9546,-9.0051,-9.0556,-9.1022,-9.1022,-9.0711,-9.0012,-8.7836,-8.5191,-8.2111,-7.7655,-7.3974,0.0,0.0,-6.8312,-6.7049,-6.8979,-6.7402,-6.4216,-6.1031,-5.8661,-5.6719,-5.532,-5.5514,-5.6641,-5.8739,-6.1031,-6.3945,-6.8451,-6.9849,-7.1636,-7.657,-7.8823,-8.0766,-8.3485,-8.5544,-8.7564,0.0,-9.0672,-9.1294,-9.1993,-9.1371,-9.0595,-8.9952,-9.0069,-9.0752,-9.2185,-9.2265,-9.2249,-9.2269,-9.2308,-9.2393,-9.2397,-9.2412,-9.2383,-9.2383,-9.2442,-9.2451,-9.2459,-9.2475,-9.2482,-9.2482,-9.217,-9.1952,-9.1866,-9.075,-8.9618,-8.857,-8.7729,-8.7159,-8.6783,-8.5924,-8.608,-8.6666,-8.4948,-8.4558,-8.4714,-8.2137,-8.0263,-7.8858,0.0,0.0,0.0,0.0,0.0,0.0,0.0,0.0,0.0,0.0,0.0,0.0,0.0,0.0,0.0,0.0,0.0,0.0,0.0,-5.5631,-6.1186,-6.6858,-7.0588,0.0,-7.5793,-7.8124,-7.9834,-8.096,-8.1582,-8.2203,-8.2747,-8.2398,-8.3485,-8.57,-8.5933,-8.7487,-8.9895,-9.0517,-9.1294,-9.2071,-9.1566,-9.0866,-8.974,-8.6477,-8.2825,-7.8901,-7.49,-7.1248,0.0,0.0,-6.3867,-6.3206,-6.5809,-6.4488,-6.1652,-5.9904,-5.7884,-5.633,-5.7029,-5.8195,-5.9749,-6.2196,-6.5926,-6.9811,-7.2996,-7.5133,-7.7813,-8.2669,-8.4495,-8.5933,-8.8225,-8.9313,-9.0128,-9.1022,-9.1488,-9.1739,-9.1739,-9.0807,-8.9486,-8.7795,-8.7756,-8.8787,-9.1064,-9.1465,-9.1685,-9.1914,-9.1977,-9.2169,-9.2351,-9.2344,-9.2364,-9.2381,-9.2393,-9.2442,-9.2482,-9.2475,-9.2468,-9.2468,-9.2468,-9.2451,-9.2373,-9.1358,-9.0094,-8.8657,-8.7745,-8.7393,-8.7329,-8.6471,-8.6627,-8.7212,-8.5495,-8.5182,-8.5495,-8.3386,-8.1278,-7.9326,0.0,0.0,0.0,0.0,0.0,0.0,0.0,0.0,0.0,0.0,0.0,0.0,0.0,0.0,0.0,0.0,0.0,0.0,0.0,-5.2756,-5.8195,-6.4993,-6.9344,-7.3229,-7.6609,-7.8396,-8.0144,-8.1854,-8.1892,-8.1892,-8.1931,-8.2708,-8.399,-8.5738,-8.6593,-8.838,-9.075,-9.0789,-9.1294,-9.1954,-9.0245,-8.9118,-8.7836,-8.2747,-7.7619,-7.3035,-7.2025,0.0,0.0,0.0,-5.8622,-5.7029,-5.9555,-6.0293,-5.9865,-5.8156,-5.5242,-5.3106,-5.5631,-5.8156,-6.107,-6.5304,-7.0821,-7.591,-7.8474,-8.232,-8.5855,-8.772,-8.9429,-9.0323,-8.9584,-9.0167,-9.1061,-9.1915,-9.1371,-9.0828,-9.0824,-8.9426,-8.7756,-8.5988,-8.4301,-8.3969,0.0,-8.8302,-9.0163,-9.0898,-9.0953,-9.1333,-9.2247,-9.2265,-9.226,-9.2378,-9.2401,-9.2442,-9.2482,-9.2442,-9.2412,-9.2412,-9.2412,-9.2412,-9.2334,-9.0696,-8.9476,-8.8657,-8.7711,-8.733,-8.7329,-8.6471,-8.6627,-8.7212,-8.5495,-8.4831,-8.4714,-8.3816,-8.2918,-8.1708,0.0,0.0,0.0,0.0,0.0,0.0,0.0,0.0,0.0,0.0,0.0,0.0,0.0,0.0,0.0,0.0,0.0,0.0,0.0,-5.1668,-5.7029,-6.1614,-6.7557,-7.1559,-7.3268,-7.6104,-7.8435,-8.0183,-8.0766,-8.1621,-8.2669,-8.2436,-8.3213,-8.4845,-8.5156,-8.6088,-8.7448,-8.8031,-8.8458,-8.8497,-8.6205,-8.4767,-8.3369,-7.7036,-7.1792,-6.7169,0.0,0.0,0.0,0.0,-5.2756,-5.2484,-5.5048,-5.5087,-5.4194,-5.4155,-5.4543,-5.5786,-5.9516,-6.3634,-6.7907,-7.2219,-7.6531,-8.0572,-8.3679,-8.6399,-8.8225,-8.8302,-8.6904,-8.5272,-8.3835,-8.3369,-8.3446,-8.434,-8.6127,-8.7622,-8.8222,-8.7308,-8.5543,-8.2669,-8.2297,0.0,0.0,0.0,0.0,-8.9084,-8.9807,-9.053,-9.1391,-9.2012,-9.2354,-9.2401,-9.2412,-9.2422,-9.2442,-9.2378,-9.2366,-9.2412,-9.2412,-9.2432,-9.242,-9.0676,-9.01,-9.0296,-8.8252,-8.7706,-8.8188,-8.7329,-8.6783,-8.6471,-8.5885,-8.5299,-8.4636,-8.323,-8.2879,-8.2762,0.0,0.0,0.0,0.0,0.0,0.0,0.0,0.0,0.0,0.0,0.0,0.0,0.0,0.0,0.0,0.0,0.0,0.0,0.0,0.0,-5.3145,-5.7185,-6.2468,-6.5848,-6.7014,-6.95,-7.1636,-7.3385,-7.4822,-7.6415,-7.8124,-7.8513,-7.96,-8.1232,-8.1504,-8.232,-8.3446,-8.399,-8.3718,-8.2669,-8.0028,-7.7775,-7.5288,-6.9306,-6.4566,0.0,0.0,0.0,0.0,-4.9066,-4.8522,-4.8832,-5.0814,-5.1086,-5.1086,-5.2834,-5.5165,-5.8311,-6.3556,-6.8257,-7.2724,-7.7036,-8.0688,-8.3913,-8.6438,-8.8069,-8.8574,-8.6826,-8.3951,-8.0921,-7.8318,-7.6881,-7.6493,-7.764,-7.9932,-8.2204,-8.3988,-8.3773,-8.259,-8.0377,-8.0336,-7.9947,0.0,0.0,0.0,-8.6768,-8.8416,-8.9535,-9.0096,-9.149,-9.2158,-9.191,-9.2159,-9.2354,-9.2339,-9.2341,-9.2354,-9.2412,-9.2061,-9.213,-9.2443,-9.0382,-9.0157,-9.1155,-8.854,-8.7876,-8.8618,-8.7407,-8.6783,-8.6471,-8.5534,-8.5026,-8.4597,-8.2918,-8.2645,-8.284,0.0,0.0,0.0,0.0,0.0,0.0,0.0,0.0,0.0,0.0,0.0,0.0,0.0,0.0,0.0,0.0,0.0,0.0,0.0,0.0,0.0,-5.1785,-5.466,-5.6913,-5.8506,-5.9477,-6.0798,-6.2507,-6.4955,-6.7052,-6.8762,-7.1248,-7.3268,-7.4861,-7.5677,-7.6959,-7.8513,-7.8513,-7.7114,-7.4667,-7.2064,-6.8567,-6.4488,-6.0137,0.0,0.0,0.0,0.0,0.0,-4.6035,-4.6074,-4.6346,-4.7279,-4.8794,-5.0891,-5.4388,-5.7263,-6.0798,-6.7635,-7.1986,-7.5599,-7.9795,-8.3291,-8.5894,-8.6671,-8.7409,-8.6904,-8.3291,-8.0377,-7.7153,-7.2918,-7.0937,-7.0494,-7.2302,-7.3544,-7.5545,-7.8998,-7.9502,-7.9484,-7.9447,-7.8748,-7.8554,-7.929,-7.9427,0.0,-8.4242,0.0,-8.84,-8.8523,-9.0791,-9.1743,-9.1013,-9.1754,-9.2221,-9.2313,-9.2313,-9.2315,-9.2334,-9.1554,-9.1583,-9.228,-8.9899,-8.9711,-9.1077,-8.8579,-8.7954,-8.8579,-8.6822,-8.6549,-8.7017,-8.448,-8.3972,-8.448,-8.2879,-8.2293,-8.2059,0.0,0.0,0.0,0.0,0.0,0.0,0.0,0.0,0.0,0.0,0.0,0.0,0.0,0.0,0.0,0.0,0.0,0.0,0.0,0.0,0.0,0.0,0.0,0.0,0.0,0.0,0.0,0.0,0.0,-6.2274,-6.3401,-6.4683,-6.5537,-6.6003,-6.6858,-6.7441,-6.7829,-6.7868,-6.7519,-6.6703,0.0,-6.2391,-6.0875,0.0,0.0,0.0,0.0,0.0,0.0,-4.623,-4.7279,-4.9143,-5.0658,-5.2756,-5.5476,-5.9555,-6.3478,-6.7674,-7.3268,-7.7308,-8.0649,-8.3641,-8.5078,-8.5583,-8.5156,-8.3757,-8.1232,-7.6493,-7.0937,-6.5809,-6.2157,-6.2716,-6.4658,-6.7665,-7.2569,0.0,-8.1563,-8.2145,-8.1893,-8.1311,-8.1582,-8.1388,-8.0359,-8.1407,0.0,0.0,-8.6243,-8.7895,-8.9178,-9.1121,-9.178,-9.0936,-9.1737,-9.2221,-9.2313,-9.2366,-9.2027,-9.1366,-9.1844,-9.1504,-9.0507,-9.0501,-9.0403,-9.0169,-8.8916,-8.8501,-8.8579,-8.6822,-8.5846,-8.5338,-8.4011,-8.3269,-8.2879,-8.245,-8.2293,-8.2254,0.0,0.0,0.0,0.0,0.0,0.0,0.0,0.0,0.0,0.0,0.0,0.0,0.0,0.0,0.0,0.0,0.0,0.0,0.0,0.0,0.0,0.0,0.0,0.0,0.0,0.0,0.0,0.0,0.0,0.0,0.0,-5.7418,-5.8389,-5.8778,-5.9671,-6.0254,-6.0565,0.0,0.0,0.0,0.0,0.0,0.0,0.0,0.0,0.0,0.0,0.0,0.0,-4.9609,-5.1163,-5.3145,-5.5592,-5.7884,-6.0604,-6.5226,-6.8839,-7.2375,-7.7114,-8.0649,-8.333,-8.4767,-8.5117,-8.4301,-8.1193,-7.9095,-7.5793,-6.8723,-6.3323,-5.8933,-5.5864,-5.7133,-5.9828,0.0,0.0,0.0,-8.0105,-8.1174,-8.1815,-8.2864,-8.3407,-8.3311,-8.2378,-8.3466,-8.4748,0.0,-8.6671,-8.7429,-8.84,-9.0441,-9.1217,-9.0358,-9.1528,-9.2208,-9.2254,-9.2341,-9.2093,-9.1625,-9.1742,-9.1469,-9.0924,-9.0685,-9.054,-9.0345,0.0,-8.8696,-8.854,-8.6392,-8.5456,-8.5221,-8.3582,-8.2918,-8.2762,-8.245,-8.2293,-8.2293,0.0,0.0,0.0,0.0,0.0,0.0,0.0,0.0,0.0,0.0,0.0,0.0,0.0,0.0,0.0,0.0,0.0,0.0,0.0,0.0,0.0,0.0,0.0,0.0,0.0,0.0,0.0,0.0,0.0,0.0,0.0,0.0,0.0,0.0,0.0,0.0,0.0,0.0,0.0,0.0,0.0,0.0,0.0,0.0,0.0,0.0,0.0,0.0,0.0,0.0,-5.6253,-5.7768,-6.1303,-6.3789,-6.6314,-7.117,-7.3773,-7.5949,-8.0144,-8.2903,-8.4573,-8.4573,-8.4146,-8.2203,-7.6454,-7.3773,-6.9966,-6.107,-5.7146,-5.4543,-5.2173,-5.3258,-5.6108,-6.1085,0.0,-7.0484,-7.7679,-7.9427,-8.1136,-8.4204,-8.467,-8.4806,-8.4923,-8.5583,-8.6749,-8.8497,-8.7836,-8.7409,-8.7578,-8.9761,-9.0635,-8.9933,-9.1355,-9.2132,-9.2187,-9.2269,-9.2263,-9.2195,-9.147,-9.147,-9.2,-9.0752,-9.0412,-9.0696,0.0,0.0,-8.8344,-8.5846,-8.526,-8.569,-8.3269,-8.2723,-8.3269,-8.2567,-8.2293,-8.2293,0.0,0.0,0.0,0.0,0.0,0.0,0.0,0.0,0.0,0.0,0.0,0.0,0.0,0.0,0.0,0.0,0.0,0.0,0.0,0.0,0.0,0.0,0.0,0.0,0.0,0.0,0.0,0.0,0.0,0.0,0.0,0.0,0.0,0.0,0.0,0.0,0.0,0.0,0.0,0.0,0.0,0.0,0.0,0.0,0.0,0.0,0.0,0.0,0.0,0.0,-5.9671,-6.2313,-6.647,-6.9927,-7.3152,-7.6881,-7.8707,-8.0261,-8.3835,-8.5156,-8.5467,-8.5467,-8.2825,-7.8979,-7.4395,-6.8296,-6.1924,-5.6019,-5.2212,-4.9571,-4.8416,-5.0215,-5.4641,-6.3153,-6.6966,-7.1995,-8.096,-8.2961,-8.401,-8.533,-8.6127,-8.6826,-8.7564,-8.7759,0.0,0.0,0.0,-8.9411,-9.011,-9.1276,-9.1799,-9.1664,-9.2015,-9.2208,-9.2187,-9.2269,-9.1934,-9.1186,-9.1715,-9.1326,-9.0135,-9.1325,-9.0846,-8.9057,-8.9579,0.0,-8.7486,-8.5573,-8.4909,-8.4831,-8.2996,-8.2371,-8.2489,-8.2332,-8.2293,-8.2293,0.0,0.0,0.0,0.0,0.0,0.0,0.0,0.0,0.0,0.0,0.0,0.0,0.0,0.0,0.0,0.0,0.0,0.0,0.0,0.0,0.0,0.0,0.0,0.0,0.0,0.0,-4.0382,-4.0848,0.0,-4.0848,-4.0848,-4.1191,-4.1362,-4.14,0.0,0.0,0.0,0.0,0.0,0.0,0.0,0.0,0.0,0.0,0.0,0.0,0.0,0.0,0.0,0.0,-5.8778,-6.3245,-7.0238,-7.4472,-7.7347,-7.9911,-8.1582,-8.2941,-8.4573,-8.535,-8.5467,-8.4573,-8.1116,-7.6143,-6.9189,-6.3362,-5.7573,-5.1047,-4.8405,-4.724,-4.7289,-4.9798,-5.3758,-5.9638,-6.3493,-6.8756,-7.7272,-7.9582,-8.1698,-8.5272,-8.6477,-8.7331,-8.8225,-8.8691,-8.9468,-9.0711,0.0,-9.0828,-9.0789,-9.1216,-9.1643,-9.211,-9.2171,-9.2208,-9.2152,-9.2204,-9.2026,-9.1564,-9.1976,-9.1741,-9.1007,-9.1442,-9.0755,-8.9291,-8.9306,0.0,-8.7251,-8.5534,-8.4792,-8.4636,-8.2957,-8.2293,-8.2332,-8.2762,-8.2645,-8.2371,0.0,0.0,0.0,0.0,0.0,0.0,0.0,0.0,0.0,0.0,0.0,0.0,0.0,0.0,0.0,0.0,0.0,0.0,0.0,0.0,0.0,0.0,0.0,0.0,0.0,0.0,0.0,-4.0527,-4.0665,0.0,0.0,0.0,0.0,0.0,-4.072,-4.1686,-4.3286,0.0,0.0,0.0,0.0,-4.588,0.0,0.0,0.0,0.0,0.0,0.0,-4.9765,-5.2472,-5.6356,-6.1497,-6.9849,-7.4861,-7.7969,-7.9756,-8.1698,-8.3485,-8.4185,-8.4884,-8.4962,-8.3019,-7.9057,-7.3307,-6.445,-5.9322,-5.4504,-4.7434,-4.5997,-4.6268,-4.7123,-4.9332,-5.2202,-5.5714,-5.927,-6.4419,-7.2517,-7.5582,-7.9036,-8.4495,-8.6088,-8.7137,-8.8186,-8.8885,0.0,-9.0711,0.0,0.0,-9.11,-9.1061,-9.1371,-9.2071,-9.2152,-9.2152,-9.211,-9.2152,-9.219,-9.219,-9.1957,-9.1995,-9.2274,-9.1417,-9.0599,-8.9896,-8.9267,0.0,0.0,-8.5456,-8.4668,-8.4349,-8.2872,-8.2287,-8.2358,-8.2996,-8.2957,-8.2645,0.0,0.0,0.0,0.0,0.0,0.0,0.0,0.0,0.0,0.0,0.0,0.0,0.0,0.0,0.0,0.0,0.0,0.0,0.0,0.0,0.0,0.0,0.0,0.0,0.0,0.0,0.0,-3.9354,-4.0212,0.0,0.0,0.0,0.0,0.0,0.0,-4.1528,-4.3125,-4.3273,0.0,0.0,0.0,0.0,0.0,0.0,0.0,0.0,0.0,-4.6628,-4.8044,-5.1308,-5.3857,-5.6408,-6.1186,-6.713,-7.2647,-7.4395,-7.7231,-8.0455,-8.3563,-8.4456,-8.3951,-8.1465,-7.6415,-7.0238,-6.3129,-5.7029,-5.1552,-4.6929,-4.5997,-4.6279,-4.7134,-4.6901,-4.871,-5.5258,-5.7298,-6.1279,-7.0533,-7.5322,-7.9251,-8.2903,-8.4806,-8.6477,-8.8147,-8.838,-8.9079,-9.0672,0.0,0.0,-9.1993,-9.1993,-9.2032,-9.211,-9.211,-9.211,-9.211,-9.211,-9.2131,-9.2092,-9.1294,-9.1412,-9.2274,-9.1417,-9.0635,-8.9977,-8.9906,0.0,0.0,-8.5182,-8.4302,-8.3458,-8.2631,-8.2273,-8.224,-8.2358,-8.284,-8.3386,0.0,0.0,0.0,0.0,0.0,0.0,0.0,0.0,0.0,0.0,0.0,0.0,0.0,0.0,0.0,0.0,0.0,0.0,0.0,0.0,0.0,0.0,0.0,0.0,0.0,0.0,-3.8729,-3.9259,-4.0077,0.0,0.0,0.0,0.0,0.0,0.0,-4.1139,-4.2287,-4.2421,0.0,0.0,0.0,0.0,0.0,0.0,0.0,0.0,0.0,0.0,-4.6654,-4.8011,-4.9653,-5.1268,-5.1878,-5.6096,-6.2196,-6.9111,-7.354,-7.6998,-8.0416,-8.2436,-8.3136,-8.1116,-7.49,-6.7907,-6.2624,-5.5942,-4.9959,-4.6657,-4.5997,-4.6113,-4.6434,-4.624,-4.6901,-4.9653,-5.0848,-5.414,-6.2082,-6.5513,-7.0393,-7.9018,-8.1116,-8.3563,0.0,0.0,-8.974,0.0,0.0,0.0,-9.2071,-9.211,-9.211,-9.211,-9.211,-9.211,-9.211,-9.211,-9.211,-9.211,-9.176,-9.1802,-9.2199,-9.0843,-9.0105,-8.9866,-8.8266,0.0,0.0,-8.452,-8.3731,-8.3332,-8.2592,-8.2287,-8.2312,-8.2833,-8.2918,-8.2918,0.0,0.0,0.0,0.0,0.0,0.0,0.0,0.0,0.0,0.0,0.0,0.0,0.0,0.0,0.0,0.0,0.0,0.0,0.0,0.0,0.0,0.0,0.0,0.0,0.0,0.0,-3.7947,-3.883,-3.9621,-4.0109,0.0,0.0,-4.031,-4.031,0.0,0.0,0.0,0.0,0.0,0.0,0.0,0.0,0.0,0.0,0.0,0.0,0.0,0.0,0.0,0.0,0.0,-4.7534,-4.6228,-4.8347,0.0,-6.223,-6.8047,-7.2413,-7.6337,-7.9251,-8.0882,-7.9445,-7.2996,-6.5848,-6.1303,-5.4699,-4.8832,-4.6502,-4.5997,-4.5986,-4.5953,-4.5975,-4.5997,0.0,-4.6918,-4.992,-5.633,-5.9088,-6.4178,-7.4162,0.0,-7.9018,0.0,-8.7992,-9.0206,0.0,0.0,0.0,0.0,-9.1488,-9.1566,-9.2071,-9.1838,-9.1838,-9.211,-9.211,-9.1954,-9.1721,-9.1449,-9.1394,-9.137,-8.9956,-8.9235,-8.8997,-8.7164,0.0,0.0,-8.3888,-8.3225,-8.2952,-8.246,-8.228,-8.2358,-8.3185,-8.3308,-8.323,0.0,0.0,0.0,0.0,0.0,0.0,0.0,0.0,0.0,0.0,0.0,0.0,0.0,0.0,0.0,0.0,0.0,0.0,0.0,0.0,0.0,0.0,0.0,0.0,0.0,0.0,0.0,-3.7712,-3.8591,-3.947,-4.031,-4.031,-4.031,-4.031,0.0,0.0,0.0,0.0,0.0,0.0,0.0,0.0,0.0,0.0,0.0,0.0,0.0,0.0,0.0,0.0,0.0,0.0,0.0,-4.5735,-4.7001,0.0,-5.9871,-6.6431,-7.1559,-7.4822,-7.657,-7.5754,-7.0354,-6.3906,-5.8778,-5.295,-4.8133,-4.6346,-4.5997,-4.5964,-4.5918,-4.5956,-4.5975,-4.5919,-4.7416,-5.0386,-5.5592,-5.9244,-6.3323,0.0,0.0,-7.2763,-7.8823,-8.5505,0.0,0.0,0.0,0.0,0.0,-9.0012,-9.0323,-9.2071,-9.1255,-9.1216,-9.211,-9.211,-9.1682,-9.0789,-8.9934,-8.9566,-8.9579,-8.8762,-8.7994,0.0,0.0,0.0,0.0,-8.3312,-8.2844,-8.2116,-8.2172,-8.2192,-8.2318,-8.3178,-8.405,-8.4792,0.0,0.0,0.0,0.0,0.0,0.0,0.0,0.0,0.0,0.0,0.0,0.0,0.0,0.0,0.0,0.0,0.0,0.0,0.0,0.0,0.0,0.0,0.0,0.0,0.0,0.0,0.0,0.0,0.0,-3.947,-4.031,-4.031,-4.031,-4.031,-4.031,-4.0463,0.0,0.0,0.0,0.0,0.0,0.0,0.0,0.0,0.0,0.0,0.0,0.0,0.0,0.0,0.0,0.0,0.0,0.0,0.0,-4.8021,-5.3081,-5.8963,-6.3036,-6.6042,-6.7829,-6.6975,-6.2896,-5.8389,-5.5553,-5.1114,-4.7262,-4.6177,-4.5854,-4.5786,-4.5781,-4.5866,-4.628,-4.7417,-4.8153,-4.9998,-5.396,-5.7962,0.0,-6.9228,-7.6415,-8.2048,0.0,0.0,0.0,0.0,0.0,0.0,0.0,-8.9468,-8.9468,-9.1138,-9.0944,-9.1216,-9.211,-9.211,-9.1643,-9.0789,-9.0517,-9.0071,-8.9528,-8.8728,-8.8273,0.0,0.0,0.0,0.0,-8.2893,-8.2298,-8.2116,-8.2172,-8.221,-8.2319,-8.256,-8.3191,-8.3894,0.0,0.0,0.0,0.0,0.0,0.0,0.0,0.0,0.0,0.0,0.0,0.0,0.0,0.0,0.0,0.0,0.0,0.0,0.0,0.0,0.0,0.0,0.0,0.0,0.0,0.0,0.0,0.0,0.0,0.0,0.0,0.0,-4.0769,-4.0731,-4.0463,-4.031,0.0,0.0,0.0,0.0,0.0,0.0,-4.1745,0.0,0.0,0.0,0.0,0.0,0.0,0.0,0.0,0.0,0.0,0.0,0.0,0.0,-4.8321,-5.2298,-5.6911,-6.006,-6.1963,-6.1725,-5.8425,-5.4802,-5.3014,-4.9495,-4.6419,-4.5916,-4.5781,-4.5665,-4.5616,-4.5795,-4.6215,-4.7148,-4.7456,-4.8735,-5.2109,-5.6242,0.0,-6.9359,0.0,0.0,0.0,0.0,0.0,0.0,0.0,0.0,0.0,-8.873,-8.8458,-8.9818,-8.9856,-9.04,-9.1605,-9.1605,-9.1333,-9.0789,-9.0478,-8.9856,-8.9002,-8.8206,-8.7698,0.0,0.0,0.0,0.0,-8.2559,-8.2036,-8.2116,-8.2172,-8.2257,-8.2332,-8.2645,-8.3269,-8.3972,0.0,0.0,0.0,0.0,0.0,0.0,0.0,0.0,0.0,0.0,0.0,0.0,0.0,0.0,0.0,0.0,0.0,0.0,0.0,0.0,0.0,0.0,0.0,0.0,0.0,0.0,0.0,-3.8897,-3.8973,-4.0272,-4.2679,0.0,0.0,-4.1457,-4.0731,-4.0348,0.0,0.0,0.0,0.0,0.0,0.0,0.0,0.0,0.0,0.0,0.0,0.0,0.0,0.0,0.0,0.0,0.0,0.0,0.0,0.0,0.0,0.0,0.0,-5.6032,-5.8037,-5.8723,-5.5878,-5.25,-5.0841,-4.7973,0.0,-4.568,-4.5665,-4.5616,-4.5494,-4.568,-4.5849,-4.5683,-4.5928,-4.7245,-5.0443,-5.4882,0.0,0.0,-7.5217,0.0,0.0,0.0,0.0,0.0,0.0,0.0,0.0,-8.7759,-8.7254,-8.7992,-8.8069,-8.8963,-9.0672,-9.0711,-9.0672,-9.0595,-8.9818,-8.9002,-8.8186,-8.737,-8.6515,0.0,0.0,0.0,0.0,-8.2309,-8.2036,-8.2116,-8.2172,-8.2257,-8.2371,-8.3152,-8.4011,-8.4785,0.0,0.0,0.0,0.0,0.0,0.0,0.0,0.0,0.0,0.0,0.0,0.0,0.0,0.0,0.0,0.0,0.0,0.0,0.0,0.0,0.0,0.0,0.0,0.0,0.0,0.0,0.0,-3.8018,-3.8667,-3.9966,-4.18,-4.2297,0.0,0.0,0.0,0.0,0.0,0.0,0.0,0.0,0.0,0.0,0.0,0.0,0.0,0.0,-4.2316,-4.1992,0.0,0.0,0.0,0.0,0.0,0.0,0.0,0.0,-4.3611,-4.4068,-4.6283,0.0,-4.8841,-4.9003,-4.8292,-4.7426,0.0,-4.6194,-4.553,-4.553,-4.5477,-4.538,-4.5339,-4.5457,-4.5988,-4.7203,-4.8099,-4.9589,-5.2296,-6.0403,0.0,-7.4871,-7.9946,0.0,0.0,0.0,0.0,0.0,0.0,0.0,0.0,-8.6205,-8.5777,-8.535,-8.5972,-8.7448,-8.9779,-8.9818,-8.9507,-8.8885,-8.8691,-8.8147,-8.7292,-8.7098,-8.6515,0.0,0.0,0.0,-8.3038,-8.2309,-8.2036,-8.2116,-8.2172,-8.2257,-8.2332,-8.2528,-8.3483,-8.4629,0.0,0.0,0.0,0.0,0.0,0.0,0.0,0.0,0.0,0.0,0.0,0.0,0.0,0.0,0.0,0.0,0.0,0.0,0.0,0.0,0.0,0.0,0.0,0.0,0.0,0.0,0.0,0.0,0.0,-4.0234,0.0,0.0,0.0,0.0,0.0,0.0,0.0,0.0,0.0,0.0,-4.0427,0.0,0.0,0.0,0.0,0.0,-4.1323,-4.1074,0.0,-4.1762,-4.1877,-4.1648,0.0,0.0,0.0,0.0,-4.3158,-4.3483,-4.3632,-4.4366,-4.5163,-4.5539,-4.5599,-4.5582,-4.5512,-4.5477,-4.5419,-4.5419,-4.5339,-4.5277,-4.5277,-4.5419,-4.5879,-4.7126,-4.851,-5.1222,-5.6368,0.0,-6.988,-7.6503,-8.028,0.0,0.0,0.0,0.0,0.0,0.0,0.0,0.0,-8.5381,-8.5149,-8.4684,-8.5536,-8.6754,-8.8341,-8.9118,-8.9274,-8.8846,-8.8497,-8.7836,-8.6982,-8.6166,-8.5544,0.0,0.0,0.0,-8.3038,-8.2342,-8.2065,-8.2116,-8.2201,-8.2273,-8.2293,-8.2273,-8.3302,-8.4561,0.0,0.0,0.0,0.0,0.0,0.0,0.0,0.0,0.0,0.0,0.0,0.0,0.0,0.0,0.0,0.0,0.0,0.0,0.0,0.0,0.0,0.0,0.0,0.0,0.0,0.0,0.0,0.0,0.0,0.0,0.0,0.0,-4.3061,0.0,0.0,0.0,0.0,0.0,0.0,-4.031,-4.031,0.0,0.0,0.0,0.0,0.0,0.0,0.0,0.0,-4.1074,-4.1304,-4.1457,-4.2183,0.0,0.0,0.0,0.0,0.0,-4.2908,-4.3558,-4.4482,-4.5091,-4.5361,-4.5458,-4.5319,-4.5277,-4.5277,-4.5277,-4.5277,-4.5316,-4.5468,-4.5668,-4.6129,-4.6942,-4.9171,-5.3621,-6.1621,-6.5175,-6.9393,-7.6056,0.0,0.0,0.0,0.0,0.0,0.0,0.0,0.0,0.0,-8.4686,-8.4648,-8.4802,-8.541,-8.6068,-8.6708,-8.8261,-8.9098,-8.9118,-8.8302,-8.7525,-8.6749,-8.5117,-8.434,-8.4146,0.0,0.0,-8.2882,-8.2323,-8.2104,-8.2104,-8.2218,-8.228,-8.2273,-8.2192,-8.3147,-8.4345,0.0,0.0,0.0,0.0,0.0,0.0,0.0,0.0,0.0,0.0,0.0,0.0,0.0,0.0,0.0,0.0,0.0,0.0,0.0,0.0,0.0,0.0,0.0,0.0,0.0,0.0,0.0,0.0,0.0,0.0,-4.3023,-4.4322,-4.4169,-4.2756,0.0,0.0,-4.031,-4.031,-4.031,-4.031,-4.031,0.0,0.0,0.0,0.0,0.0,0.0,0.0,0.0,-4.0463,-4.0501,-4.0501,-4.0654,0.0,0.0,0.0,0.0,0.0,-4.245,-4.3445,-4.4077,-4.421,-4.4784,-4.5319,-4.5298,-4.5277,-4.5277,-4.5277,-4.5277,-4.5507,0.0,-4.6942,-4.7936,0.0,0.0,-6.0054,0.0,0.0,-7.3031,0.0,0.0,0.0,0.0,0.0,0.0,0.0,0.0,0.0,0.0,-8.3259,-8.3182,-8.3886,-8.354,-8.4055,-8.556,-8.6568,-8.7142,-8.737,-8.6515,-8.601,-8.5855,-8.4845,-8.399,0.0,0.0,-8.2708,-8.2105,-8.209,-8.2065,-8.2022,-8.2162,-8.2182,-8.214,-8.2128,-8.2663,-8.3423,0.0,0.0,0.0,0.0,0.0,0.0,0.0,0.0,0.0,0.0,0.0,0.0,0.0,0.0,0.0,0.0,0.0,0.0,0.0,0.0,0.0,0.0,0.0,0.0,0.0,0.0,0.0,0.0,0.0,-4.1762,-4.3482,-4.4246,-4.394,-4.2756,0.0,-4.1036,-4.031,-4.031,-4.031,-4.031,0.0,0.0,0.0,0.0,0.0,0.0,0.0,0.0,0.0,0.0,-4.031,-4.031,-4.031,0.0,0.0,0.0,0.0,0.0,-4.138,-4.2717,-4.4017,-4.4017,-4.4972,-4.5812,-4.5392,-4.5277,-4.5277,-4.5277,-4.5277,0.0,0.0,0.0,-5.0894,-5.6243,0.0,-6.4764,-6.9234,-7.1351,-7.322,0.0,0.0,0.0,0.0,0.0,0.0,0.0,0.0,0.0,0.0,0.0,-8.2698,-8.4003,-8.3297,-8.3572,-8.4927,-8.5004,-8.5473,-8.6282,-8.5428,-8.4767,-8.4262,-8.3446,-8.2825,-8.2436,0.0,-8.2242,-8.1911,-8.1991,-8.2022,-8.2007,-8.2116,-8.2128,-8.2143,-8.2571,-8.2614,-8.2548,0.0,0.0,0.0,0.0,0.0,0.0,0.0,0.0,0.0,0.0,0.0,0.0,0.0,0.0,0.0,0.0,0.0,0.0,0.0,0.0,0.0,0.0,0.0,0.0,0.0,0.0,-3.7827,-3.9317,-4.054,-4.2259,-4.4322,-4.4093,-4.3558,0.0,0.0,-4.1036,-4.031,-4.031,-4.031,-4.031,0.0,0.0,0.0,0.0,0.0,0.0,0.0,0.0,0.0,0.0,0.0,0.0,0.0,0.0,0.0,-4.031,-4.0731,-4.1113,-4.0692,-4.2259,-4.4017,-4.4017,-4.5125,-4.6271,-4.6424,-4.6309,-4.6347,-4.692,-4.692,0.0,0.0,-5.1009,0.0,-6.2319,-6.6139,-6.912,0.0,0.0,0.0,0.0,0.0,0.0,0.0,0.0,0.0,0.0,0.0,0.0,0.0,0.0,-8.2264,-8.3945,-8.3027,-8.3096,-8.4407,-8.3616,-8.3927,-8.5328,-8.4476,-8.3757,-8.3058,-8.2281,-8.1892,-8.1892,-8.1892,-8.1892,-8.1892,-8.1959,-8.1975,-8.1975,-8.2051,-8.2078,-8.2129,-8.2692,-8.247,-8.197,0.0,0.0,0.0,0.0,0.0,0.0,0.0,0.0,0.0,0.0,0.0,0.0,0.0,0.0,0.0,0.0,0.0,0.0,0.0,0.0,0.0,0.0,0.0,0.0,0.0,-3.7941,-3.9279,-4.0234,-4.2603,-4.4246,-4.5201,-4.4399,-4.3558,-4.2756,0.0,-4.1036,-4.031,-4.031,-4.031,-4.031,-4.031,0.0,0.0,0.0,0.0,0.0,0.0,0.0,0.0,0.0,0.0,0.0,0.0,0.0,-4.031,-4.031,-4.0348,-4.054,-4.1227,-4.2679,-4.4017,-4.4017,-4.4704,-4.6194,-4.9251,-4.9366,-4.948,-5.1773,-5.1658,-5.1429,0.0,-5.6396,-6.0867,-6.4611,-6.9349,0.0,0.0,0.0,0.0,0.0,0.0,0.0,0.0,0.0,0.0,0.0,0.0,0.0,0.0,0.0,0.0,-8.3028,-8.1678,-8.1869,-8.377,-8.2368,-8.253,-8.4219,-8.3542,-8.3174,-8.3058,-8.2281,-8.1892,-8.1892,-8.1892,-8.1892,-8.1892,-8.1959,-8.1943,-8.1911,-8.1959,-8.1943,-8.1911,-8.1989,-8.1931,-8.1892,0.0,0.0,0.0,0.0,0.0,0.0,0.0,0.0,0.0,0.0,0.0,0.0,0.0,0.0,0.0,0.0,0.0,0.0,0.0,0.0,0.0,0.0,0.0,-3.3875,-3.6434,-3.8132,-3.9928,-4.1839,-4.3291,-4.4169,-4.4475,-4.3634,0.0,0.0,0.0,-4.1036,-4.031,-4.031,-4.031,-4.031,-4.031,-4.031,0.0,0.0,0.0,0.0,0.0,0.0,0.0,0.0,-4.031,-4.031,-4.031,-4.031,-4.031,-4.031,-4.031,-4.0387,-4.0692,-4.2335,-4.4017,-4.4017,-4.5048,-4.6806,-4.9633,-5.0474,-5.1047,-5.2499,-5.3798,-5.4982,-5.5823,0.0,-6.4611,-6.7973,0.0,0.0,0.0,0.0,0.0,0.0,0.0,0.0,0.0,0.0,0.0,0.0,0.0,0.0,0.0,0.0,0.0,-8.2951,-8.1458,-8.1221,-8.2514,-8.1735,-8.1659,-8.2316,-8.2355,-8.2359,-8.232,-8.2048,-8.1892,-8.1892,-8.1892,-8.1892,-8.1892,-8.1929,-8.1929,-8.1892,-8.1929,-8.1929,-8.1892,-8.1892,-8.1892,-8.1892,0.0,0.0,0.0,0.0,0.0,0.0,0.0,0.0,0.0,0.0,0.0,0.0,0.0,0.0,0.0,0.0,0.0,0.0,0.0,0.0,0.0,0.0,0.0,-3.3455,-3.6031,-3.7483,-3.947,-4.203,-4.31,-4.3634,-4.3596,0.0,0.0,0.0,-4.1609,-4.1189,-4.0692,-4.0692,-4.054,-4.031,-4.031,-4.031,0.0,0.0,0.0,0.0,0.0,0.0,0.0,0.0,-4.031,-4.031,-4.031,-4.031,-4.031,-4.031,-4.031,-4.0348,-4.0616,-4.2106,-4.3673,-4.394,-4.5468,-4.7799,-5.1123,-5.2346,-5.3416,-5.5556,-5.716,-5.8421,-5.9338,-6.2701,0.0,0.0,0.0,0.0,0.0,0.0,0.0,0.0,0.0,0.0,0.0,0.0,0.0,0.0,0.0,0.0,0.0,0.0,0.0,0.0,-8.1079,-8.0848,-8.1601,-8.1347,-8.1269,-8.1426,-8.1755,-8.1892,-8.1892,-8.1892,-8.1892,-8.1892,-8.1892,-8.1892,-8.1892,-8.1892,-8.1892,-8.1892,-8.1892,-8.1892,-8.1892,-8.1892,-8.1892,-8.1892,0.0,0.0,0.0,0.0,0.0,0.0,0.0,0.0,0.0,0.0,0.0,0.0,0.0,0.0,0.0,0.0,0.0,0.0,0.0,0.0,0.0,0.0,0.0,-3.2592,-3.5114,-3.6069,-3.775,-4.031,-4.1991,-4.2794,-4.2756,-4.1915,0.0,0.0,-4.1877,-4.1495,-4.1495,-4.1495,-4.1036,-4.031,-4.031,-4.031,-4.031,0.0,0.0,0.0,0.0,0.0,0.0,0.0,-4.031,-4.031,-4.031,-4.031,-4.031,-4.031,-4.031,-4.0501,-4.1266,-4.2144,-4.3023,-4.3825,-4.5965,-4.9175,-5.418,-5.5365,-5.6855,-6.1898,-6.2242,-6.1898,-6.2777,-6.4305,0.0,-6.9884,0.0,0.0,0.0,0.0,0.0,0.0,0.0,0.0,0.0,0.0,0.0,0.0,0.0,0.0,0.0,0.0,0.0,0.0,-8.0506,-8.0716,-8.1214,-8.1214,-8.1426,-8.1892,-8.1892,-8.1892,-8.1892,-8.1892,-8.1892,-8.1892,-8.1892,-8.1892,-8.1892,-8.1892,-8.1892,-8.1892,-8.1892,-8.1892,-8.1892,-8.1892,-8.1892,-8.1892,0.0,0.0,0.0,0.0,0.0,0.0,0.0,0.0,0.0,0.0,0.0,0.0,0.0,0.0,0.0,0.0,0.0,0.0,0.0,0.0,0.0,0.0,0.0,0.0,0.0,0.0,-3.8018,-4.1151,-4.1648,-4.1877,0.0,0.0,0.0,-4.1915,-4.2259,-4.2068,-4.1495,-4.1495,-4.1036,-4.031,-4.031,-4.031,-4.031,0.0,0.0,0.0,0.0,0.0,0.0,0.0,0.0,0.0,-4.031,-4.031,-4.031,-4.031,-4.0692,-4.1189,-4.1418,-4.2985,-4.4743,-4.5545,-4.8143,-5.1467,-5.5326,-5.6243,-5.7848,-6.3503,-6.4955,-6.5261,-6.5528,-6.74,0.0,-7.1871,0.0,0.0,0.0,0.0,0.0,0.0,0.0,0.0,0.0,0.0,0.0,0.0,0.0,0.0,0.0,0.0,0.0,0.0,-8.0506,-8.0611,-8.0907,-8.1128,-8.135,-8.1613,-8.1796,-8.1892,-8.1892,-8.1892,-8.1892,-8.1892,-8.1892,-8.1892,-8.1892,-8.1892,-8.1892,-8.1892,-8.1892,-8.1892,-8.1892,-8.1892,-8.1892,-8.1892,0.0,0.0,0.0,0.0,0.0,0.0,0.0,0.0,0.0,0.0,-2.6211,-2.7128,0.0,0.0,0.0,0.0,0.0,0.0,0.0,0.0,0.0,0.0,0.0,0.0,0.0,-3.5174,-3.7483,0.0,0.0,0.0,0.0,0.0,-4.1686,-4.203,-4.2908,-4.2794,-4.203,-4.203,-4.1342,-4.031,-4.031,-4.031,-4.031,0.0,0.0,0.0,0.0,0.0,0.0,0.0,0.0,0.0,-4.031,-4.031,-4.031,-4.031,-4.1113,-4.2106,-4.2412,-4.4093,-4.6156,-4.7646,-5.0054,-5.3148,-5.7199,-5.9911,-6.2892,-6.7477,-6.8279,-6.8394,-6.9082,-6.9846,0.0,0.0,0.0,0.0,0.0,0.0,0.0,0.0,0.0,0.0,0.0,0.0,0.0,0.0,0.0,0.0,0.0,0.0,0.0,0.0,-7.9856,-7.9925,-8.0811,-8.0713,-8.0975,-8.1484,-8.1775,-8.1892,-8.1892,-8.1892,-8.1892,-8.1892,-8.1892,-8.1892,-8.1892,-8.1892,-8.1892,-8.1892,-8.1892,-8.1892,-8.1854,-8.1504,-8.1582,-8.1854,0.0,0.0,0.0,0.0,0.0,0.0,0.0,0.0,0.0,0.0,-2.6632,-2.7625,0.0,0.0,0.0,0.0,0.0,0.0,0.0,0.0,0.0,0.0,0.0,0.0,0.0,0.0,0.0,0.0,0.0,0.0,0.0,0.0,-4.203,-4.2832,-4.3711,-4.3634,-4.2794,-4.2794,-4.1839,-4.031,-4.031,-4.031,-4.031,-4.031,0.0,0.0,0.0,0.0,0.0,0.0,0.0,0.0,-4.031,-4.031,-4.031,-4.031,-4.1495,-4.2985,-4.3787,-4.5277,-4.7264,-4.9862,-5.2155,-5.4982,-5.9759,-6.5184,-6.9807,-7.1985,0.0,-7.1107,-7.2597,-7.1642,-7.1412,0.0,0.0,0.0,0.0,0.0,0.0,0.0,0.0,0.0,0.0,0.0,0.0,0.0,0.0,0.0,0.0,0.0,0.0,-8.02,-7.8787,-7.8853,-8.0581,-8.0058,-8.028,0.0,-8.1543,-8.1659,-8.1659,-8.1815,-8.1854,-8.1776,-8.1854,-8.1854,-8.1776,-8.1854,-8.1892,-8.1892,-8.1892,-8.1854,-8.1698,-8.0882,-8.1116,-8.1659,0.0,0.0,0.0,0.0,0.0,0.0,0.0,0.0,0.0,0.0,0.0,0.0,0.0,0.0,0.0,0.0,0.0,0.0,0.0,0.0,0.0,0.0,0.0,0.0,0.0,0.0,0.0,0.0,0.0,0.0,0.0,0.0,0.0,-4.287,-4.436,-4.4208,-4.2794,-4.2794,-4.1839,-4.031,-4.031,-4.031,-4.031,-4.031,-4.031,0.0,0.0,0.0,0.0,0.0,0.0,0.0,-4.031,-4.031,-4.031,-4.031,-4.1495,-4.2985,-4.3787,-4.5736,-4.8296,-5.1467,-5.6549,-6.1363,-6.377,-6.6865,-6.8967,-6.8203,-7.0381,-7.2329,-7.2024,-7.2215,0.0,0.0,0.0,0.0,0.0,0.0,0.0,0.0,0.0,0.0,0.0,0.0,0.0,0.0,0.0,0.0,0.0,0.0,0.0,-7.8519,-7.8175,-7.8279,-7.8814,-7.8864,-7.9082,0.0,-7.9757,-7.9872,-7.9911,-8.1271,-8.1543,-8.0921,-8.1582,-8.1504,-8.0921,-8.1621,-8.1892,-8.1892,-8.1892,-8.1465,-8.0844,-8.0688,-8.0727,-8.0766,0.0,0.0,0.0,0.0,0.0,0.0,0.0,0.0,0.0,0.0,0.0,0.0,0.0,0.0,0.0,0.0,0.0,0.0,0.0,0.0,0.0,0.0,0.0,0.0,0.0,0.0,0.0,0.0,0.0,-3.882,-3.9661,-4.18,-4.2794,-4.2832,-4.4131,-4.3978,-4.2756,-4.2335,-4.1457,-4.031,-4.031,-4.031,-4.0272,-3.9852,-3.9928,-4.0272,-3.9852,0.0,0.0,0.0,0.0,0.0,0.0,0.0,-4.031,-4.031,-4.1495,-4.3061,-4.4284,-4.65,-4.9404,-5.3569,-5.8192,-6.2128,-6.3809,-6.5566,-6.6789,-6.6713,-6.9387,-7.1756,-7.1718,0.0,0.0,0.0,0.0,0.0,0.0,0.0,0.0,0.0,0.0,0.0,0.0,0.0,0.0,0.0,0.0,0.0,0.0,-7.6418,-7.657,-7.7335,-7.6609,-7.6863,-7.8315,-7.8132,-7.8155,-7.8386,-7.8981,-7.929,-7.9328,-8.0222,-8.061,-8.0649,-8.1077,-8.1271,-8.1271,-8.1698,-8.1892,-8.1892,-8.1892,-8.1621,-8.1154,-8.0766,-8.0844,-8.1116,0.0,0.0,0.0,0.0,0.0,0.0,0.0,0.0,0.0,0.0,0.0,0.0,0.0,0.0,0.0,0.0,0.0,0.0,0.0,0.0,0.0,0.0,0.0,0.0,0.0,0.0,0.0,0.0,0.0,-3.8667,-4.054,-4.2068,-4.2794,-4.2832,-4.3634,-4.3482,-4.2526,-4.18,-4.1036,-4.031,-4.031,-4.031,-4.0234,-3.9508,-3.9661,-4.0234,-3.947,-3.9699,-4.031,-4.031,0.0,0.0,0.0,0.0,-4.031,-4.031,-4.138,-4.2908,-4.4437,-4.715,-5.0627,-5.525,-5.8421,-6.0752,-6.2166,-6.3236,-6.4382,-6.5757,-6.805,-7.0037,0.0,0.0,0.0,0.0,0.0,0.0,0.0,0.0,0.0,0.0,0.0,0.0,0.0,0.0,0.0,0.0,0.0,0.0,-7.5004,-7.4393,-7.4622,-7.6036,-7.4736,-7.5068,-7.7368,-7.6948,-7.6816,-7.7024,-7.7972,-7.8513,-7.8629,-7.8629,-7.9212,-8.0144,-8.03,-8.0688,-8.1232,-8.1387,-8.1543,-8.1698,-8.1698,-8.1698,-8.1582,-8.0882,-8.1077,-8.1543,0.0,0.0,0.0,0.0,0.0,0.0,0.0,0.0,0.0,0.0,-2.816,-2.8427,0.0,0.0,0.0,0.0,0.0,0.0,0.0,0.0,0.0,0.0,0.0,0.0,0.0,0.0,0.0,0.0,-3.7636,-3.8935,-4.1342,-4.2335,-4.2794,-4.2832,-4.3634,-4.3138,-4.1648,-4.1533,-4.1036,-4.031,-4.031,-4.031,-4.031,-4.0157,-4.0196,-4.0272,-4.0157,-4.0196,-4.031,-4.031,-4.031,0.0,0.0,0.0,-4.031,-4.031,-4.096,-4.1877,-4.287,-4.7111,-5.1964,-5.483,-5.8001,-6.0446,0.0,0.0,-6.3159,0.0,-6.5452,0.0,0.0,0.0,0.0,0.0,0.0,0.0,0.0,0.0,0.0,0.0,0.0,0.0,0.0,0.0,0.0,0.0,0.0,0.0,-7.3323,-7.3208,-7.3246,-7.3476,-7.3284,-7.3357,-7.3696,-7.3976,-7.4115,-7.4166,-7.4654,-7.5288,-7.5988,-7.5988,-7.6842,-7.8396,-7.9134,-7.9095,-7.859,-7.9328,-8.0105,-8.0766,-8.0766,-8.0766,-8.0766,-8.0649,-8.0688,-8.0649,0.0,0.0,0.0,0.0,0.0,0.0,0.0,0.0,0.0,0.0,0.0,-2.9383,0.0,0.0,0.0,0.0,0.0,0.0,0.0,0.0,0.0,0.0,0.0,0.0,0.0,0.0,0.0,0.0,-3.7712,-3.924,-4.2221,-4.2603,-4.3061,-4.3482,-4.3864,-4.3329,-4.2183,-4.1724,-4.1036,-4.031,-4.031,-4.031,-4.0272,-3.9775,-3.989,-4.0234,-3.9737,-3.989,-4.031,-4.031,-4.031,-4.031,-4.031,0.0,0.0,0.0,-4.054,-4.1304,-4.3596,-4.715,-5.1047,-5.4524,-5.6511,-5.7963,-5.9338,-6.0255,-6.0905,-6.1402,0.0,0.0,0.0,0.0,0.0,0.0,0.0,0.0,0.0,0.0,0.0,0.0,0.0,0.0,0.0,0.0,0.0,0.0,0.0,-7.1756,-7.2253,-7.2253,-7.2253,-7.2253,-7.2253,-7.2549,-7.3169,-7.3455,-7.3712,-7.3915,-7.3625,-7.3929,-7.4783,-7.5288,-7.6415,-7.8008,-7.8396,-7.8629,-7.8746,-7.9134,-7.9523,-7.9911,-8.0416,-8.061,-8.0649,-8.1154,-8.1349,-8.1271,0.0,0.0,0.0,0.0,0.0,0.0,0.0,0.0,0.0,0.0,0.0,0.0,0.0,0.0,0.0,0.0,0.0,0.0,0.0,0.0,0.0,0.0,0.0,0.0,0.0,0.0,0.0,-3.7712,-3.7712,-3.9431,-4.2794,-4.2794,-4.3367,-4.4322,-4.4093,-4.3558,-4.2756,-4.1877,-4.1151,-4.0578,-4.0387,-4.031,-4.0234,-3.9584,-3.9852,-4.054,-3.989,-4.0043,-4.0616,-4.0616,-4.0463,-4.031,-4.031,-4.031,0.0,0.0,0.0,-4.096,-4.3864,-4.6347,-4.906,-5.2843,-5.4256,-5.5326,0.0,0.0,-5.8765,0.0,0.0,0.0,0.0,0.0,0.0,0.0,0.0,0.0,0.0,0.0,0.0,0.0,0.0,0.0,0.0,0.0,0.0,0.0,0.0,-7.0037,-7.0686,-7.0724,-7.0724,-7.0724,-7.0724,-7.1127,-7.1888,-7.2172,-7.2491,-7.2918,-7.2452,-7.2685,-7.3579,-7.4434,-7.5638,-7.7075,-7.7464,-7.8046,-7.8629,-7.8629,-7.8785,-7.9018,-7.9678,-8.0067,-8.0377,-8.1232,-8.1582,-8.1582,0.0,0.0,0.0,0.0,0.0,0.0,0.0,0.0,0.0,0.0,0.0,0.0,0.0,0.0,-3.0185,-3.0185,-3.0911,-3.2095,-3.3815,-3.3929,-3.4312,0.0,0.0,0.0,-3.519,0.0,-3.6031,-3.7712,-3.7712,-3.9431,-4.2794,-4.2794,-4.3673,-4.5201,-4.436,-4.3558,-4.2756,-4.1877,-4.1495,-4.138,-4.0616,-4.031,-4.031,-4.0272,-4.0731,-4.1418,-4.138,-4.138,-4.1418,-4.1418,-4.0922,-4.031,-4.031,-4.031,-4.031,0.0,0.0,0.0,-4.245,-4.4169,-4.6118,-4.8754,-5.12,-5.3416,0.0,0.0,0.0,0.0,0.0,0.0,0.0,0.0,0.0,0.0,0.0,0.0,0.0,0.0,0.0,0.0,0.0,0.0,0.0,0.0,0.0,0.0,0.0,-6.805,-6.8088,-6.8088,-6.8088,-6.8088,-6.8088,-6.8088,-6.8196,-6.8552,-6.897,-6.9383,-7.0083,-7.0898,-7.1753,-7.2647,-7.354,-7.4472,-7.6065,-7.6803,-7.6842,-7.6842,-7.7308,-7.8085,-7.8124,-7.8629,-7.9484,-8.0339,-8.0688,-8.0805,0.0,0.0,0.0,0.0,0.0,0.0,0.0,0.0,0.0,0.0,0.0,0.0,0.0,-3.1484,-3.179,-3.179,-3.2095,-3.2745,-3.3929,-3.4006,-3.435,-3.5152,0.0,-3.519,-3.519,-3.5587,-3.6405,-3.7712,-3.808,-3.9527,-4.1991,-4.2526,-4.3405,-4.4475,-4.4704,-4.436,-4.3558,-4.3252,-4.2794,-4.2297,-4.203,-4.1915,-4.1915,-4.1915,-4.2068,-4.2412,-4.2908,-4.2756,-4.2412,-4.2947,-4.2565,-4.18,-4.1266,-4.1074,-4.096,-4.0463,-4.031,-4.054,-4.1648,-4.2794,-4.4437,-4.7494,-4.8945,-5.0168,-5.2461,-5.4448,-5.5823,0.0,0.0,0.0,0.0,0.0,0.0,0.0,0.0,0.0,0.0,0.0,0.0,0.0,0.0,0.0,0.0,0.0,0.0,0.0,0.0,0.0,-6.7133,-6.763,-6.7668,-6.7133,-6.763,-6.7952,-6.81,-6.773,-6.7933,-6.8721,-6.8991,-6.9672,-7.066,-7.1552,-7.2405,-7.3258,-7.4554,-7.5094,-7.5172,-7.6259,-7.657,-7.6493,-7.758,-7.8202,-7.8552,-7.9445,-8.0105,-8.0649,0.0,0.0,0.0,0.0,0.0,0.0,0.0,0.0,0.0,0.0,0.0,0.0,0.0,0.0,-3.2743,-3.3112,-3.3127,-3.3509,-3.435,-3.4388,-3.4585,-3.5069,-3.5425,-3.5577,-3.5508,-3.6254,-3.7128,0.0,-3.8459,-3.9599,-4.1495,-4.2008,-4.2692,-4.3493,-4.4187,-4.4437,-4.4437,-4.4131,-4.3711,-4.3176,-4.2908,-4.2794,-4.2832,-4.31,-4.3367,-4.3749,-4.4551,-4.4513,-4.4131,-4.4666,-4.4131,-4.31,-4.2526,-4.1953,-4.1342,-4.054,-4.031,-4.0425,-4.096,-4.1724,-4.3023,-4.5851,-4.6729,-4.7646,-5.0168,0.0,-5.376,0.0,0.0,0.0,0.0,0.0,0.0,0.0,0.0,0.0,0.0,0.0,0.0,0.0,0.0,0.0,0.0,0.0,0.0,0.0,0.0,0.0,-6.5413,-6.5948,-6.5987,-6.5452,-6.5948,-6.6336,-6.6523,-6.6012,-6.623,-6.7232,-6.7502,-6.8188,-6.9185,-7.0408,-7.1201,-7.1739,-7.3141,-7.4049,-7.4595,-7.5504,-7.5871,-7.5988,-7.6842,-7.7347,-7.7658,-7.8552,-7.9212,-7.9795,0.0,0.0,0.0,0.0,0.0,0.0,0.0,0.0,0.0,0.0,0.0,0.0,0.0,0.0,0.0,-3.3974,-3.4082,-3.4388,-3.5174,-3.5229,-3.5107,-3.4965,-3.5928,-3.6385,-3.6121,-3.7185,-3.8115,0.0,0.0,0.0,0.0,-4.1195,-4.1563,-4.236,-4.2692,-4.3749,-4.5201,-4.436,-4.4017,-4.3978,-4.3214,-4.2908,-4.2985,-4.3825,-4.4628,-4.5468,-4.6309,-4.6577,-4.6538,-4.6577,-4.5468,-4.4093,-4.4017,-4.287,-4.138,-4.0616,-4.0387,-4.0387,0.0,0.0,0.0,-4.3596,-4.4628,-4.5927,-4.8411,0.0,-5.0971,0.0,0.0,0.0,0.0,0.0,0.0,0.0,0.0,0.0,0.0,0.0,0.0,0.0,0.0,0.0,0.0,0.0,0.0,0.0,0.0,-6.2892,-6.2853,-6.2853,-6.2892,-6.2892,-6.2853,-6.2929,-6.3182,-6.3143,-6.3666,-6.4663,-6.5511,-6.636,-6.7209,-6.9146,-6.9938,-6.9895,-7.194,-7.3684,-7.5077,-7.4497,-7.5172,-7.6531,-7.5793,-7.5988,-7.6764,-7.7658,-7.7969,-7.8241,0.0,0.0,0.0,0.0,0.0,0.0,0.0,0.0,0.0,0.0,0.0,0.0,0.0,0.0,-3.5157,-3.6029,-3.574,-3.5609,-3.5837,-3.545,-3.5463,-3.6021,-3.6159,-3.6463,-3.6972,-3.7506,0.0,0.0,0.0,0.0,0.0,0.0,0.0,-4.1525,-4.2807,-4.3627,-4.4083,-4.4009,-4.436,-4.4972,-4.5316,-4.5468,-4.5583,-4.6424,-4.692,-4.7226,-4.8067,-4.799,-4.7532,-4.8181,-4.7226,-4.5621,-4.4399,-4.3291,-4.2412,-4.2183,-4.2106,-4.2106,-4.2106,0.0,0.0,0.0,0.0,0.0,-4.6042,-4.7952,-4.9633,0.0,0.0,0.0,0.0,0.0,0.0,0.0,0.0,0.0,0.0,0.0,0.0,0.0,0.0,0.0,0.0,0.0,0.0,0.0,-6.2204,-6.2624,-6.1975,-6.1975,-6.2242,-6.2892,-6.1707,-6.1697,-6.2978,-6.2327,-6.2498,-6.3433,-6.4277,-6.5202,-6.6128,-6.732,-6.8488,-6.9629,-7.0367,-7.1595,-7.3195,-7.4577,-7.4667,-7.4123,-7.5754,-7.6143,-7.591,-7.6764,-7.7464,-7.8163,0.0,0.0,0.0,0.0,0.0,0.0,0.0,0.0,0.0,0.0,0.0,0.0,0.0,0.0,0.0,-3.6864,-3.6625,-3.6427,-3.6427,-3.6099,-3.6101,-3.6512,-3.681,-3.7159,-3.7558,-3.8191,0.0,0.0,0.0,0.0,0.0,0.0,0.0,0.0,0.0,-4.261,-4.295,-4.3057,-4.4106,-4.5681,-4.6266,-4.6729,-4.715,-4.8028,-4.8334,-4.8487,-4.971,-4.9595,-4.8984,-4.9862,-4.8754,-4.6691,-4.4666,-4.3673,-4.3252,-4.2908,-4.2794,-4.2794,-4.2794,-4.2794,-4.2985,-4.3825,0.0,0.0,-4.5086,-4.6691,-4.822,0.0,0.0,0.0,0.0,0.0,0.0,0.0,0.0,0.0,0.0,0.0,0.0,0.0,0.0,0.0,0.0,0.0,0.0,-5.9338,-6.0255,-6.0599,-6.0064,-6.0714,-6.1172,-6.1325,-6.0714,-6.0867,-6.186,-6.1363,-6.1516,-6.2357,-6.2853,-6.382,-6.5109,-6.6035,-6.7149,-6.8369,-6.9001,-6.9962,-7.1262,-7.3062,-7.3643,-7.3579,-7.5094,-7.5599,-7.5599,-7.6415,-7.727,-7.8124,0.0,0.0,0.0,0.0,0.0,0.0,0.0,0.0,0.0,0.0,0.0,0.0,0.0,0.0,0.0,0.0,-3.7055,-3.7004,-3.7004,-3.6953,0.0,-3.6768,-3.7642,-3.8128,-3.8042,-3.8925,0.0,0.0,0.0,0.0,0.0,0.0,0.0,0.0,0.0,0.0,-4.2066,-4.2168,-4.3679,-4.6038,-4.6397,-4.706,-4.7938,-4.8938,-4.9243,-4.9419,-5.11,-5.1123,-5.0397,-5.0971,-4.9748,-4.7494,-4.4972,-4.4208,-4.4131,-4.3329,-4.3061,-4.3061,-4.3061,-4.3061,-4.3252,-4.3978,-4.4131,0.0,-4.5125,-4.5851,-4.6844,-4.8449,0.0,0.0,0.0,0.0,0.0,0.0,0.0,0.0,0.0,0.0,0.0,0.0,0.0,0.0,0.0,-5.7772,-5.781,-5.7886,-5.7886,-5.7886,-5.7886,-5.93,-5.9759,-5.8994,-5.972,-6.0179,-6.0255,-6.0255,-6.0676,-6.1478,-6.1554,-6.2395,-6.3953,-6.4918,-6.581,-6.6629,-6.7705,-6.8668,-6.9613,-7.0699,-7.225,-7.3894,-7.4222,-7.4744,-7.5426,-7.6376,-7.7192,-7.8008,0.0,0.0,0.0,0.0,0.0,0.0,0.0,0.0,0.0,0.0,0.0,0.0,0.0,0.0,0.0,0.0,-3.7923,-3.7623,-3.7623,-3.7156,0.0,-3.7866,-3.7902,-3.8181,-3.8859,-3.8876,0.0,0.0,0.0,0.0,0.0,0.0,0.0,0.0,0.0,0.0,-4.2627,-4.3521,-4.4486,-4.5462,-4.6431,-4.7297,-4.8239,-5.0031,-5.0263,-4.991,-5.1852,-5.1582,-5.013,-4.8945,-4.8678,-4.8411,-4.5851,-4.5507,-4.5851,-4.5048,-4.4819,-4.4819,-4.4819,-4.4819,-4.4857,-4.501,-4.5048,0.0,-4.5239,-4.543,-4.5812,0.0,0.0,0.0,0.0,0.0,0.0,0.0,0.0,0.0,0.0,0.0,0.0,0.0,0.0,0.0,0.0,-5.6855,-5.7122,-5.7848,-5.7886,-5.7886,-5.7886,-5.8192,-5.8307,-5.8154,-5.8307,-5.8689,-5.9338,-5.9338,-5.9797,-6.0637,-6.1287,-6.1784,-6.2128,-6.3064,-6.425,-6.5681,-6.5915,-6.7333,-6.9509,-6.9783,-7.0555,-7.1866,-7.4305,-7.4828,-7.4421,-7.6107,-7.6803,-7.7192,-2.9609,-3.0246,0.0,0.0,0.0,0.0,0.0,0.0,0.0,0.0,0.0,0.0,-3.7955,-3.8102,-3.8432,0.0,0.0,0.0,0.0,0.0,0.0,0.0,-3.9542,-3.9637,-4.0111,-3.9963,0.0,0.0,0.0,0.0,0.0,0.0,0.0,0.0,0.0,-4.2569,-4.276,-4.3578,-4.4655,-4.5876,-4.6769,-4.7532,-4.8281,-4.9844,-5.0099,-4.975,-5.138,-5.1789,-5.1238,-4.9137,-4.8754,-4.8793,-4.7073,-4.6233,-4.5889,-4.5889,-4.5621,-4.5277,-4.5277,-4.5277,-4.5277,-4.5277,-4.5277,0.0,0.0,-4.5277,-4.5507,-4.6347,-4.6538,-4.6691,0.0,0.0,0.0,0.0,0.0,0.0,0.0,0.0,0.0,0.0,0.0,0.0,0.0,-5.5365,-5.5708,-5.6587,-5.7008,-5.7084,-5.6664,-5.7466,-5.7695,-5.7275,-5.7657,-5.8077,-5.8498,-5.8918,-5.9338,-5.9759,-6.0599,-6.1211,-6.1593,-6.2051,-6.2968,-6.4153,-6.4153,-6.5397,-6.7496,-6.8032,-6.8981,-7.0382,-7.302,-7.4053,-7.4227,-7.5582,-7.6648,-7.7464,-3.0467,-3.1091,0.0,0.0,0.0,0.0,0.0,0.0,0.0,0.0,0.0,-3.7551,-3.9019,-3.9166,-3.957,-4.0487,-4.0304,0.0,-4.1515,-4.1295,-4.1111,-4.1111,-4.1111,-4.1111,-4.1111,-4.1111,0.0,0.0,0.0,0.0,0.0,0.0,0.0,0.0,0.0,-4.2746,-4.3113,-4.356,-4.4736,-4.6372,-4.7108,-4.7645,-4.8115,-4.9399,-4.9521,-4.9251,-5.044,-5.1699,-5.2422,-4.9939,-4.9289,-4.9366,-4.8181,-4.6882,-4.5889,-4.6347,-4.5927,-4.5277,-4.5277,-4.5277,-4.5277,-4.5277,-4.5277,-4.5277,0.0,0.0,0.0,-4.6118,0.0,0.0,0.0,0.0,0.0,0.0,0.0,0.0,0.0,0.0,0.0,0.0,0.0,0.0,0.0,-5.376,-5.4142,-5.4868,-5.567,-5.5823,-5.5174,-5.6587,-5.7084,-5.6396,-5.7046,-5.7504,-5.7657,-5.8307,-5.8803,-5.9109,-5.9797,-6.0561,-6.1363,-6.1363,-6.1936,-6.2892,-6.2892,-6.3962,-6.5749,-6.6576,-6.7841,-6.9506,-7.1695,-7.316,-7.4207,-7.5118,-7.6436,-7.7775,-3.1384,-3.1898,-3.2485,0.0,0.0,0.0,0.0,0.0,0.0,0.0,0.0,-3.9827,-4.0744,-4.0855,-4.1442,-4.2947,-4.1809,-4.1625,-4.313,-4.1882,-4.1111,-4.1111,-4.1111,-4.1111,-4.1111,-4.1111,-4.1111,0.0,0.0,0.0,0.0,0.0,0.0,0.0,-4.2983,-4.3789,-4.445,-4.4525,-4.5111,-4.6065,-4.7148,-4.7616,-4.7809,-4.9437,-4.9305,-4.8394,-4.9542,-5.1166,-5.2422,-4.9939,-5.0092,-5.0894,-4.8563,-4.7685,-4.7379,-4.6691,-4.5927,-4.5277,-4.5277,-4.5277,-4.5277,-4.5277,-4.5277,-4.5277,-4.5277,0.0,-4.5316,-4.543,0.0,-4.5316,-4.543,0.0,0.0,0.0,0.0,0.0,0.0,0.0,0.0,0.0,0.0,0.0,0.0,0.0,-5.2996,-5.3072,-5.3913,-5.4333,-5.4256,-5.5174,-5.5632,-5.5556,-5.5632,-5.6014,-5.674,-5.6816,-5.7619,-5.9109,-5.9224,-5.972,-6.0523,-6.0523,-6.1402,-6.2892,-6.2892,-6.4305,-6.656,-6.6667,-6.7821,-6.9673,-7.1596,-7.2853,-7.379,-7.484,-7.5915,-7.6959,-3.2155,-3.2742,-3.3293,-3.3293,0.0,0.0,0.0,0.0,0.0,0.0,-3.99,-4.0377,-4.1662,-4.1809,-4.2433,-4.4048,-4.3167,-4.2983,-4.4121,-4.313,-4.2506,-4.2506,-4.2506,-4.2506,-4.2506,-4.2506,-4.2506,0.0,-4.2506,0.0,0.0,0.0,0.0,0.0,-4.3828,-4.4378,-4.4782,-4.57,-4.603,-4.5957,-4.6947,-4.7161,0.0,-4.894,-4.9415,-4.9117,-4.9399,-5.0616,-5.1926,0.0,-5.0665,0.0,-5.0168,-4.8984,-4.7723,-4.7379,-4.6653,-4.6003,-4.6003,-4.6385,-4.6615,-4.6118,-4.6385,-4.65,-4.5507,-4.5277,-4.5277,-4.5277,0.0,0.0,0.0,0.0,0.0,0.0,-4.4934,0.0,0.0,0.0,0.0,0.0,0.0,0.0,0.0,0.0,0.0,0.0,0.0,-5.2843,-5.3301,-5.418,-5.4868,-5.5403,-5.5403,-5.5556,-5.5899,-5.6855,-5.7695,-5.8421,-5.9376,-6.0064,-6.0408,-6.0408,-6.1019,-6.2166,-6.2166,-6.3312,-6.5299,-6.6292,-6.7514,-6.8932,-7.0667,-7.2045,-7.3071,-7.3524,-7.4654,-7.6065,-3.3587,-3.388,-3.4211,-3.4431,0.0,0.0,0.0,0.0,0.0,-4.012,-4.0414,-4.1185,-4.28,-4.3351,-4.4378,-4.6214,-4.5626,-4.5406,-4.5993,-4.4856,-4.3938,-4.3497,-4.3497,-4.3497,-4.3497,-4.3497,-4.3497,0.0,0.0,0.0,0.0,0.0,0.0,0.0,0.0,-4.4635,-4.5112,-4.6287,-4.6691,-4.6617,-4.7205,-4.7278,-4.7181,-4.8375,-4.9114,-4.9483,-4.924,-5.0165,-5.1446,-5.1217,-5.0899,0.0,-5.1123,-4.9824,-4.8181,-4.8181,-4.7532,-4.6882,-4.6882,-4.715,-4.7341,-4.6959,0.0,0.0,-4.5851,-4.5621,-4.5583,-4.5354,-4.5468,0.0,0.0,0.0,-4.5201,-4.4972,0.0,-4.4208,0.0,-4.4093,0.0,0.0,0.0,0.0,0.0,0.0,0.0,-5.0512,-5.0779,-5.1276,-5.2079,-5.3148,-5.4142,-5.5021,-5.5288,-5.5403,-5.5403,-5.6625,-5.7466,-5.7925,-5.9109,-5.995,-6.0408,-6.0408,-6.0981,-6.1975,-6.1975,-6.293,-6.4611,-6.5834,-6.7063,-6.8244,-6.9472,-7.0709,-7.1893,-7.2422,-7.3685,-7.5172,-3.6009,-3.5532,-3.521,-3.6083,-3.689,0.0,0.0,0.0,-4.0157,-4.0965,-4.1735,-4.2837,-4.4452,-4.603,-4.7939,-5.0398,-4.9848,-4.9407,-4.9407,-4.7168,-4.5112,-4.3571,-4.3497,-4.3497,-4.3497,-4.3497,-4.3497,-4.3497,0.0,0.0,0.0,0.0,0.0,0.0,-4.3534,-4.4378,-4.5847,-4.592,-4.6838,-4.8233,-4.8269,-4.8458,-4.8667,0.0,-4.8147,-4.885,-4.8816,0.0,0.0,-5.0134,-5.0596,0.0,0.0,0.0,0.0,0.0,0.0,0.0,0.0,0.0,0.0,-4.757,0.0,0.0,0.0,0.0,-4.6233,-4.5468,-4.5927,-4.6233,-4.543,-4.5277,-4.501,-4.4169,-4.4743,0.0,0.0,0.0,-4.4972,0.0,0.0,0.0,0.0,0.0,0.0,-4.7914,-4.8716,-4.9519,-5.0359,-5.1964,-5.3225,-5.4104,-5.4982,-5.5403,-5.5403,-5.5441,-5.6282,-5.7886,-5.7963,-5.8842,-6.0408,-6.0408,-6.1287,-6.2853,-6.2853,-6.3809,-6.5375,-6.5413,-6.6407,-6.7928,-6.7967,-6.8771,-7.0088,-7.1932,-7.3297,-7.4356,-3.6927,-3.6853,-3.656,-3.634,-3.6964,-3.7918,-3.9276,-4.0194,-4.1772,-4.4709,-4.5773,-4.7498,-5.0765,-5.161,-5.2491,-5.3849,-5.2747,-5.1756,-5.1206,-4.8379,-4.6471,-4.592,-4.4856,-4.4305,-4.4305,-4.4305,-4.4011,-4.3497,0.0,0.0,0.0,0.0,0.0,0.0,0.0,-4.4892,-4.592,-4.6471,-4.7021,-4.7535,0.0,-4.7573,-4.7684,0.0,0.0,-4.9145,-4.9145,-4.9612,0.0,-5.0812,-5.0899,-5.0894,-5.1697,-5.1391,-5.0741,-5.0741,-5.055,0.0,0.0,0.0,-5.0474,-4.9671,0.0,0.0,0.0,0.0,0.0,0.0,-4.5927,-4.6233,-4.543,-4.5277,-4.5201,-4.4895,-4.4628,-4.4246,0.0,-4.4093,-4.4551,-4.4819,-4.5354,-4.5927,0.0,0.0,0.0,-4.692,-4.7226,-4.799,0.0,-5.055,-5.204,-5.4027,-5.4409,-5.483,-5.5403,-5.5938,-5.6778,-5.7925,-5.8459,-5.93,-6.0408,-6.0408,-6.0981,-6.2089,-6.2662,-6.3541,-6.4688,-6.5796,-6.6995,-6.8167,-6.8883,-6.9847,-7.0866,-7.1379,-7.1939,-7.2763,-3.7771,-3.7918,-3.7734,-3.7221,-3.7808,-3.8689,-3.9717,-4.2029,-4.4488,-4.6801,-4.9334,-5.1903,-5.4546,-5.5354,-5.6014,-5.6822,-5.5941,-5.4509,-5.2564,-5.0729,-4.9077,-4.7609,-4.6544,-4.5993,-4.5993,-4.5149,-4.4452,-4.3938,-4.3644,-4.3497,0.0,0.0,0.0,0.0,0.0,-4.4709,-4.5516,-4.6324,-4.6838,-4.7131,0.0,-4.7131,0.0,0.0,-4.831,-4.8949,0.0,-4.924,-4.9769,-5.0502,-5.0786,-5.0894,-5.1658,-5.1964,-5.1964,-5.1697,-5.1811,-5.204,-5.204,-5.2193,0.0,-5.1391,-5.0741,0.0,-4.822,0.0,-4.7532,0.0,0.0,-4.6729,-4.5889,-4.5468,-4.5277,-4.5277,-4.4819,-4.4475,0.0,-4.4208,-4.4322,-4.5201,-4.5277,-4.5507,0.0,-4.5583,-4.5507,-4.6042,-4.608,-4.6806,0.0,0.0,-5.1047,-5.3569,-5.3951,-5.4524,-5.5403,-5.5899,-5.674,-5.7925,-5.8421,-5.9262,-6.0408,-6.0408,-6.0828,-6.1669,-6.251,-6.3388,-6.4305,-6.5681,-6.6957,-6.8167,-6.8924,-6.9856,-7.0789,-7.1098,-7.1785,-7.2763,-3.8542,-3.8726,-3.8762,-3.8762,-3.9423,-3.9974,-4.001,-4.4672,-4.7976,-4.7425,-5.2197,-5.5721,-5.5904,-5.7299,-5.8547,-5.9391,-5.9391,-5.7703,-5.3812,-5.4179,-5.2784,-4.882,-4.86,-4.8526,-4.8453,-4.6104,-4.4856,-4.4782,-4.3901,0.0,0.0,0.0,0.0,0.0,-4.3497,0.0,-4.4745,-4.5516,-4.6324,-4.7131,-4.7168,-4.7168,-4.7168,-4.7168,-4.7645,-4.8306,-4.8306,-4.8746,-4.9302,-4.9302,-5.0317,-5.1419,-5.0641,-5.152,-5.2704,-5.204,-5.2346,-5.2919,-5.2957,-5.2384,-5.1964,-5.269,0.0,0.0,0.0,0.0,-4.9901,0.0,0.0,0.0,-4.6729,-4.5889,-4.5354,-4.5316,-4.5277,-4.5277,-4.5277,-4.459,-4.436,-4.5201,-4.5277,-4.5277,-4.5277,-4.5277,-4.5277,-4.5277,-4.5277,-4.6003,0.0,0.0,-5.0168,-5.2652,-5.3569,-5.4486,-5.5403,-5.5403,-5.6243,-5.7886,-5.7886,-5.8765,-6.0408,-6.0408,-6.0828,-6.1593,-6.2471,-6.3312,-6.4191,-6.4993,-6.633,-6.7852,-6.8091,-6.8886,-6.9996,-7.1105,-7.2685,-7.42,-3.8652,-3.9166,-3.957,-3.957,-4.0267,-4.1001,-4.1589,-4.4415,-4.7535,-5.0362,-5.4106,-5.7629,-6.0639,-6.1337,-6.1924,-6.2768,-6.1704,-6.0309,-5.8657,-5.7079,-5.5464,-5.3775,-5.2601,-5.1389,-5.0178,-4.8343,-4.6801,-4.559,-4.4195,-4.3497,-4.3497,0.0,0.0,0.0,0.0,-4.3938,-4.4709,-4.4929,-4.5847,-4.713,-4.7755,-4.8012,-4.8012,0.0,-4.8122,-4.8344,-4.8605,-4.8781,-4.8949,-4.924,-4.9988,-5.0892,-5.1575,-5.2531,-5.365,-5.4931,-5.5059,-5.4868,-5.5441,-5.5059,-5.4333,-5.3874,-5.2957,-5.2002,0.0,0.0,0.0,0.0,0.0,0.0,0.0,0.0,-4.6003,-4.5392,-4.5277,-4.5277,-4.5277,-4.5125,-4.5048,-4.5277,-4.5277,-4.5277,-4.5277,-4.5277,-4.5277,-4.5277,-4.5277,0.0,0.0,0.0,0.0,-5.1849,-5.2728,-5.3874,-5.5403,-5.5403,-5.6243,-5.7886,-5.7886,-5.8765,-6.0408,-6.0408,-6.0485,-6.0752,-6.1593,-6.2433,-6.3312,-6.4153,-6.549,-6.7087,-6.7899,-6.9296,-7.087,-7.0714,-7.2142,-7.42,-3.9166,-4.0451,-4.1368,-4.1001,-4.28,-4.4305,-4.4378,-4.6177,-4.871,-5.2087,-5.5941,-5.9245,-6.152,-6.3025,-6.409,-6.4567,-6.3429,-6.1887,-6.0015,-5.8951,-5.7703,-5.6198,-5.4913,-5.3518,-5.1903,-4.9884,-4.7902,-4.5883,-4.4635,-4.3828,-4.3497,0.0,0.0,0.0,0.0,-4.3754,-4.4232,-4.4929,-4.5773,-4.6654,-4.7462,-4.7792,0.0,-4.7792,-4.8012,-4.8344,-4.8532,-4.8676,-4.885,-4.9015,-4.9963,-5.1136,-5.1651,-5.2873,-5.4296,-5.5248,-5.5479,-5.5517,-5.5938,-5.5747,-5.5288,-5.4791,-5.4295,-5.3722,-5.2881,-5.269,-5.2461,0.0,0.0,0.0,0.0,0.0,-4.6691,-4.5468,-4.5277,-4.5277,-4.5277,-4.5277,-4.5277,-4.5277,-4.5277,-4.5277,-4.5277,-4.5277,-4.5277,-4.5277,-4.5277,0.0,0.0,0.0,0.0,-5.1505,-5.2384,-5.3454,-5.483,-5.5556,-5.6587,-5.7886,-5.7886,-5.8765,-6.0408,-6.0408,-6.0408,-6.0446,-6.1249,-6.2089,-6.2968,-6.3847,-6.5375,-6.7355,-6.8855,-7.0204,-7.128,-7.0965,-7.2297,-7.42,-3.99,-4.1809,-4.313,-4.2433,-4.5553,-4.8086,0.0,-4.9297,0.0,-5.3408,0.0,-6.0603,-6.0713,-6.3282,-6.5044,-6.5154,-6.4383,-6.2732,-5.9869,-6.0346,-5.9685,-5.7373,-5.6602,-5.539,-5.3555,-5.1132,-4.8673,-4.6214,-4.5223,-4.4305,-4.3497,0.0,0.0,0.0,-4.3497,-4.3534,-4.3754,-4.5259,-4.5957,-4.614,-4.6948,-4.7278,-4.7278,-4.7278,-4.7719,-4.8306,-4.8306,-4.8495,-4.8746,-4.8746,-4.9958,-5.149,-5.1261,-5.274,-5.4541,-5.4459,-5.4906,-5.5441,-5.5517,-5.5479,-5.5403,-5.5403,-5.5403,-5.5212,-5.4448,-5.4256,-5.4065,-5.3301,-5.2499,-5.1658,0.0,0.0,-4.7302,-4.5698,-4.5354,-4.5277,-4.5277,-4.5392,-4.543,-4.5316,-4.5392,0.0,0.0,-4.5277,-4.5277,0.0,0.0,0.0,0.0,0.0,0.0,-5.1162,-5.2155,0.0,-5.4256,0.0,-5.7084,-5.8077,-5.8077,-5.888,-6.0408,-6.0408,-6.0408,-6.0446,-6.1249,-6.2089,-6.2968,-6.3847,-6.5605,-6.7959,-6.9913,-7.0854,-7.1144,-7.1469,-7.2647,-7.4045,-4.0855,-4.1772,-4.247,-4.2323,-4.5076,-4.8416,-5.1646,-5.3518,-5.4913,-5.6051,-5.9208,-6.163,-6.2328,-6.2915,-6.3539,-6.4237,-6.3539,-6.2805,-6.2218,-6.2328,-6.1594,-5.9869,-5.9648,-5.818,-5.5244,-5.2784,-5.0362,-4.7902,-4.5736,-4.4305,-4.3497,-4.3497,-4.3497,-4.3497,-4.3497,-4.3864,-4.4562,-4.5516,0.0,-4.6985,-4.7792,-4.8086,-4.8086,-4.8086,-4.8196,-4.8306,-4.8306,-4.8344,-4.842,-4.842,-4.9084,-5.0195,-5.134,-5.2473,-5.3736,-5.5614,-5.5785,-5.5556,-5.6205,-5.5899,-5.5403,-5.5403,-5.5403,-5.5365,-5.5212,-5.5174,-5.5135,-5.4982,-5.4256,-5.3416,-5.2499,0.0,0.0,0.0,0.0,-4.5277,-4.5277,-4.5851,-4.6042,-4.5392,-4.5889,-4.6042,-4.5354,0.0,0.0,0.0,0.0,0.0,0.0,0.0,0.0,0.0,0.0,0.0,0.0,0.0,-5.7351,-5.888,-5.888,-5.9415,-6.0408,-6.0408,-6.0408,-6.0446,-6.1249,-6.2089,-6.2968,-6.3847,-6.5261,-6.708,-6.8411,-6.9393,-7.0197,-7.124,-7.2258,-7.3229,-4.1735,-4.2727,-4.3828,-4.4635,-4.7829,0.0,0.0,-5.7152,-5.84,-5.7556,-5.8767,-6.0052,-6.086,-6.2438,-6.3649,-6.4053,-6.3723,-6.3282,-6.2842,-6.2401,-6.1667,-6.0456,-6.0015,-5.829,-5.506,-5.3445,-5.1022,-4.7682,-4.6104,-4.4709,-4.3497,-4.3497,-4.3497,-4.3497,-4.3938,-4.4342,0.0,0.0,0.0,-4.7205,-4.7976,-4.8306,-4.8306,-4.8306,-4.8306,-4.8306,-4.8306,-4.86,-4.8893,-4.8453,-4.915,-5.037,-5.1227,-5.241,-5.3674,-5.4994,-5.5117,-5.492,-5.5513,-5.5379,-5.514,-5.5351,-5.5403,-5.5403,-5.5403,-5.5403,-5.5403,-5.5403,-5.5059,-5.4371,-5.3034,-5.0779,0.0,0.0,0.0,0.0,-4.6538,-4.6538,-4.6347,-4.5965,-4.6271,-4.6347,-4.5965,-4.5545,0.0,0.0,0.0,0.0,0.0,0.0,0.0,0.0,0.0,0.0,0.0,0.0,0.0,-5.8498,-5.8918,-5.9568,-6.0408,-6.0408,-6.0408,-6.0446,-6.1249,-6.2089,-6.3045,-6.4764,-6.5987,-6.6858,-6.8421,-6.9335,-6.9919,-7.1068,-7.2344,-7.3618,-4.3461,-4.4452,-4.5847,-4.7829,-5.1096,-5.4216,-5.6455,-5.9391,-6.0786,-5.9208,-5.9024,-5.9281,-5.9905,-6.2291,-6.3796,-6.3796,-6.3796,-6.3539,-6.2842,-6.2034,-6.1227,-6.0456,-5.9648,-5.7776,-5.473,-5.3702,-5.1389,-4.7609,-4.6471,-4.5149,-4.3754,-4.3571,-4.3571,-4.3791,0.0,0.0,0.0,0.0,-4.7205,-4.7425,-4.8049,-4.8306,-4.8306,-4.8306,-4.8306,-4.8343,-4.8526,-4.9003,-4.9517,-4.9003,-4.9701,-5.0882,-5.1417,-5.2419,-5.3572,-5.4225,-5.4397,-5.4463,-5.4806,-5.4933,-5.499,-5.5313,-5.5403,-5.5403,-5.5403,-5.5403,-5.5403,-5.5403,-5.5403,-5.4906,-5.3339,-5.1849,0.0,0.0,0.0,0.0,0.0,-4.7379,-4.6997,-4.6806,-4.6768,-4.6691,-4.6538,0.0,0.0,0.0,0.0,0.0,0.0,0.0,0.0,0.0,0.0,-5.2231,-5.4065,0.0,-5.8001,0.0,-5.8994,-5.9835,-6.0637,-6.0637,-6.0752,-6.0981,-6.1784,-6.2624,-6.3579,-6.5605,-6.6407,-6.6629,-6.8474,-6.9321,-6.9615,-7.0827,-7.2386,-7.3894,-4.7168,-4.7278,0.0,0.0,0.0,0.0,-5.6565,-5.8914,-6.097,-6.2218,-6.2365,-6.2401,-6.2475,-6.2768,-6.2915,-6.2915,-6.2915,-6.2915,-6.2805,-6.2034,-6.1227,-6.0456,-5.9648,-5.8033,-5.5537,-5.3995,-5.1903,-4.926,-4.7021,-4.5443,-4.4562,-4.3828,-4.3901,0.0,0.0,0.0,0.0,-4.702,-4.7535,-4.8196,-4.8269,-4.8306,-4.8306,-4.8306,-4.8306,-4.8416,-4.9187,-4.9517,-4.9701,-5.0362,-5.0655,-5.0993,-5.2047,-5.2457,-5.2864,-5.4333,-5.4746,-5.4836,-5.5233,-5.5351,-5.5377,-5.5403,-5.5403,-5.5403,-5.5403,-5.5403,-5.5403,-5.5403,-5.5403,-5.5097,-5.4142,-5.3187,-5.2079,0.0,0.0,0.0,0.0,-4.8411,-4.8563,-4.7761,-4.7685,-4.7379,-4.6577,-4.5774,-4.5277,0.0,-4.5277,0.0,0.0,0.0,0.0,-4.9137,0.0,-5.162,-5.4065,-5.6625,0.0,-5.8994,-5.9873,-6.0714,-6.1478,-6.1478,-6.1936,-6.2701,-6.3579,-6.442,-6.5184,-6.5413,-6.5528,-6.5711,-6.7592,-6.8356,-6.8564,-7.0573,-7.1939,-7.2889,0.0,0.0,0.0,0.0,0.0,0.0,0.0,-6.0493,-6.152,-6.2658,-6.2805,-6.2805,-6.2805,-6.2805,-6.2805,-6.2805,-6.2805,-6.2805,-6.2805,-6.2034,-6.1227,-6.0456,-5.9648,-5.8327,-5.6345,-5.473,-5.2711,-5.0288,-4.8306,-4.6691,-4.5406,-4.5076,0.0,0.0,0.0,-4.6507,-4.7131,-4.7645,-4.8012,-4.8343,-4.8857,-4.9077,-4.9114,-4.9627,-4.9811,-4.9848,-5.0178,-5.0618,-5.1096,-5.1389,-5.1499,-5.1614,-5.2032,-5.2555,-5.3038,-5.3645,-5.3833,-5.398,-5.4597,-5.4754,-5.4844,-5.5286,-5.5403,-5.5403,-5.5403,-5.5403,-5.5403,-5.5403,-5.5403,-5.5288,-5.4944,-5.418,-5.3378,0.0,0.0,0.0,0.0,-4.9595,-4.9328,-4.7952,-4.7799,-4.7685,-4.7302,-4.608,-4.5507,-4.5965,0.0,0.0,0.0,0.0,0.0,-4.9748,0.0,-5.2805,-5.4868,-5.6893,-5.8077,-5.8383,-5.9759,-6.0561,-6.0905,-6.1363,-6.2357,-6.3694,-6.4038,-6.4649,-6.5413,-6.5413,-6.5413,-6.5566,-6.7331,-6.81,-6.8433,-7.0247,-7.1626,-7.2752,-5.2968,0.0,-5.4142,0.0,-5.7813,-5.8437,-6.119,-6.119,-6.1337,-6.2658,-6.2585,-6.2548,-6.2768,-6.2585,-6.2548,-6.2805,-6.2805,-6.2695,-6.2475,-6.1704,-6.0896,-6.0089,-5.9281,0.0,-5.6822,-5.5464,-5.3702,-5.1499,-4.9627,-4.7976,0.0,0.0,0.0,0.0,-4.6874,-4.7241,-4.7498,-4.8086,-4.8306,-4.8343,-4.8967,-4.9224,-4.9297,-5.0141,-5.0435,-5.0508,-5.0986,-5.1499,-5.205,-5.227,-5.2344,-5.2344,-5.2344,-5.2747,-5.3225,-5.3314,-5.3318,-5.3481,-5.4123,-5.4364,-5.456,-5.5085,-5.5286,-5.5403,-5.5403,-5.5403,-5.5403,-5.5403,-5.5403,-5.5403,-5.5403,-5.4906,-5.4409,-5.4142,0.0,0.0,0.0,-5.0894,-5.0321,-4.8411,-4.8181,-4.8067,-4.7837,-4.6729,-4.6271,0.0,0.0,0.0,0.0,0.0,0.0,0.0,0.0,0.0,0.0,-5.6931,-5.8001,-5.8268,-5.972,-6.0523,-6.079,-6.186,-6.3159,-6.4535,-6.4535,-6.4879,-6.5413,-6.5413,-6.5413,-6.5566,-6.7247,-6.7982,-6.8321,-7.0067,-7.1595,-7.2909,-5.5978,-5.6088,-5.6822,-6.0823,-6.0236,-5.9722,-6.1337,-6.0272,-6.0089,-6.2511,-6.2108,-6.1924,-6.2732,-6.2108,-6.1924,-6.2732,-6.2805,-6.2475,-6.1667,-6.086,-6.0052,0.0,0.0,-5.7629,-5.6822,-5.5978,-5.4803,-5.3188,-5.0765,0.0,-4.8233,0.0,-4.6324,-4.7095,-4.7131,-4.7572,-4.8306,-4.8306,-4.8306,-4.8306,-4.8306,-4.8306,-4.8416,-4.926,-4.9591,-4.9811,-5.1389,-5.1977,-5.2123,-5.2931,-5.3188,-5.3188,-5.3188,-5.3188,-5.3272,-5.3602,-5.3682,-5.3795,-5.4193,-5.4528,-5.4806,-5.4806,-5.5113,-5.5403,-5.5403,-5.5403,-5.5403,-5.5403,-5.5403,-5.5403,-5.5403,-5.5403,-5.5097,-5.4256,0.0,0.0,0.0,-5.227,-5.1849,-4.9366,-4.906,-4.8754,-4.7876,-4.7799,0.0,0.0,0.0,0.0,0.0,0.0,0.0,-5.0206,-5.1162,0.0,-5.4104,-5.6625,-5.8307,-5.9109,-5.9988,-6.0828,-6.1631,-6.3388,-6.4611,-6.5375,-6.5375,-6.5375,-6.5413,-6.5413,-6.5413,-6.5566,-6.7247,-6.7897,-6.8119,-7.0009,-7.1785,-7.3332,-5.7997,-5.8253,-5.8621,-6.0456,-6.0382,-6.0382,-6.1447,-6.0713,-6.0493,-6.1814,-6.1263,-6.108,-6.1887,-6.2254,-6.2511,0.0,-6.2805,-6.2475,0.0,-6.086,-6.0052,-5.9245,-5.8437,-5.7886,-5.7629,-5.6822,-5.5904,-5.484,0.0,0.0,0.0,-4.9481,-4.937,-4.9627,-4.9627,-4.9774,-4.9958,-4.9407,-4.9481,-4.9994,-4.9994,-5.0325,-5.0912,-5.1756,-5.205,-5.2123,-5.2637,-5.2821,-5.2858,-5.3115,-5.3225,-5.3146,-5.3103,-5.3103,-5.3188,-5.3355,-5.3318,-5.3322,-5.3644,-5.3796,-5.4055,-5.49,-5.5454,-5.5768,-5.5797,-5.5587,-5.5556,-5.6091,-5.5785,-5.5556,-5.6129,-5.5785,-5.5097,-5.4256,-5.46,0.0,-5.2652,0.0,-5.2308,-5.0971,-5.0283,-5.0054,-5.0359,-4.9862,0.0,0.0,0.0,0.0,0.0,0.0,0.0,0.0,-5.3951,0.0,-5.5785,-5.7734,-5.8842,-5.9109,-5.9988,-6.1134,-6.2548,-6.3656,-6.4649,-6.5413,-6.5413,-6.5413,-6.5413,-6.5413,-6.5757,-6.6407,-6.7477,-6.8241,-6.8929,-7.0094,-7.1291,-7.2544,-5.9355,-5.9648,-6.0015,-6.1117,-6.1043,-6.1117,-6.1924,-6.086,-6.0346,-6.1447,-6.0896,-6.0713,-6.152,-6.2328,0.0,-6.2805,-6.2805,-6.2475,-6.163,-6.086,-6.0052,-5.9245,-5.8437,-5.7997,-5.7997,0.0,0.0,-5.6051,-5.4436,-5.2821,-5.1242,-5.1242,-5.1096,-5.0802,-5.0802,-5.0618,-5.0325,-4.9811,-4.9884,-5.0362,-5.0362,-5.0839,-5.1646,-5.2454,-5.2747,-5.2784,-5.3115,-5.3225,-5.3225,-5.3146,-5.3103,-5.3103,-5.306,-5.306,-5.3103,-5.306,-5.3017,-5.314,-5.3613,-5.385,-5.4235,-5.5324,-5.5913,-5.6252,-5.645,-5.6407,-5.6473,-5.6969,-5.6434,-5.6014,-5.6511,-5.5938,-5.5212,-5.4677,-5.5059,-5.4906,-5.3492,0.0,-5.3225,-5.1773,0.0,0.0,0.0,-5.1391,-5.1238,0.0,0.0,0.0,0.0,0.0,0.0,-5.3263,-5.5135,0.0,-5.7084,-5.8421,-5.9262,-5.9606,-6.0446,-6.1745,-6.3427,-6.3962,-6.4649,-6.5413,-6.5413,-6.5413,-6.5413,-6.5413,-6.591,-6.6789,-6.7591,-6.8432,-6.9311,-7.0113,-7.1242,-7.2472,-6.0015,-6.0382,0.0,0.0,-6.2071,0.0,-6.2548,-6.0786,-5.9905,-6.1337,-6.086,-6.0713,-6.152,-6.2291,-6.2768,-6.2805,0.0,0.0,0.0,-6.0896,-6.0126,-5.9245,-5.8474,-5.807,-5.7997,-5.7997,-5.7593,-5.6822,-5.5317,-5.3739,-5.216,-5.216,-5.172,-5.0986,-5.0986,-5.0545,-4.9848,-4.9774,-4.9774,-4.9848,-4.9774,-5.0251,-5.1059,-5.1793,-5.2087,-5.216,-5.2931,-5.3182,-5.3182,-5.306,-5.298,-5.298,-5.298,-5.3017,-5.3047,-5.2923,-5.3003,-5.3273,-5.4078,-5.457,-5.5087,-5.5906,-5.6405,-5.6812,-5.7224,-5.7566,-5.7832,-5.7936,-5.7248,-5.6664,-5.6702,-5.6014,-5.5479,-5.5403,-5.5403,-5.5097,-5.4218,-5.4791,-5.4448,0.0,0.0,0.0,0.0,-5.2537,-5.2957,0.0,0.0,0.0,0.0,0.0,-5.2652,-5.4218,-5.5174,-5.6396,-5.7963,-5.8803,-5.9644,-6.0485,-6.1363,-6.2624,-6.4191,-6.4267,-6.4688,-6.5413,-6.5413,-6.5413,-6.5413,-6.5452,-6.5987,-6.6865,-6.7668,-6.8508,-6.9387,-7.0113,-7.145,-7.2936,0.0,0.0,-6.0529,-6.0896,-6.1337,-6.1447,-6.1043,-6.1006,-6.0933,-6.0713,-6.0529,-6.0713,-6.152,-6.1777,-6.2144,-6.2768,-6.2805,-6.2475,-6.163,-6.141,-6.0676,-5.9281,-5.9024,-5.8621,-5.7997,-5.7997,-5.7593,-5.6822,-5.6418,-5.5427,-5.3812,-5.3812,-5.3408,-5.2637,-5.2637,-5.2527,-5.2307,-5.1683,-5.1793,-5.2307,-5.1683,-5.1903,-5.2674,-5.2858,-5.2931,-5.2931,-5.303,-5.306,-5.306,-5.2893,-5.285,-5.2806,-5.2761,-5.3117,-5.3672,-5.3932,-5.3888,-5.3945,-5.4748,-5.4921,-5.5139,-5.5962,-5.6595,-5.7023,-5.7417,-5.7291,-5.7262,-5.8066,-5.7764,-5.7406,-5.7554,-5.6893,-5.6091,-5.5517,-5.5403,-5.5097,-5.4218,-5.4295,0.0,0.0,-5.3683,-5.3989,-5.4448,-5.4677,-5.4524,0.0,0.0,0.0,0.0,-5.4944,-5.5594,-5.6014,-5.7466,-5.8421,-5.8803,-5.9644,-6.0485,-6.1325,-6.2853,-6.3809,-6.4229,-6.484,-6.5222,-6.5413,-6.5413,-6.5413,-6.5452,-6.6139,-6.6865,-6.7706,-6.8547,-6.9387,-7.0151,-7.0342,-7.1068,-7.21,-5.9134,-5.9869,-6.0529,-6.0896,-6.1594,-6.1998,-6.1557,-6.1227,-6.1043,-6.097,-6.0639,-6.0713,-6.152,-6.1924,-6.2181,-6.2254,-6.2585,-6.2622,-6.2181,-6.1447,-6.0676,-5.9795,-5.9061,-5.8437,-5.7997,-5.7997,-5.7776,-5.7336,-5.7336,-5.6528,-5.495,-5.495,-5.4326,-5.3225,-5.3225,-5.3004,-5.2637,-5.2197,-5.2234,-5.2601,-5.216,-5.2491,-5.3225,-5.3225,-5.3146,-5.3103,-5.306,-5.2937,-5.2893,-5.2761,-5.2935,-5.3263,-5.3135,-5.3717,-5.449,-5.5085,-5.4894,-5.4646,-5.5447,-5.5618,-5.5789,-5.6648,-5.7316,-5.7798,-5.8042,-5.8164,-5.8363,-5.8916,-5.8515,-5.7992,-5.7701,-5.6968,-5.613,-5.5331,-5.4836,-5.4444,-5.4078,-5.4001,0.0,-5.4104,-5.4448,-5.4868,-5.5365,-5.5403,-5.5212,-5.4715,-5.5135,0.0,-5.525,-5.6473,-5.7199,-5.7199,-5.8421,-5.93,-5.9682,-6.0523,-6.1363,-6.2204,-6.3541,-6.4382,-6.4764,-6.5184,-6.5605,-6.5987,-6.5566,-6.5643,-6.6025,-6.6522,-6.7171,-6.7973,-6.8852,-6.9693,-7.0457,-7.0839,-7.1565,-7.2406,-5.9098,-5.9942,-6.0786,-6.1484,-6.2291,-6.2732,-6.2475,-6.1484,-6.0933,-6.1374,-6.0823,-6.075,-6.1667,-6.2181,-6.2254,-6.1814,-6.2401,-6.2695,-6.2475,-6.141,-6.0603,-6.0236,-5.9024,-5.8253,-5.7997,-5.7997,-5.7997,-5.7997,-5.7997,-5.7189,-5.5574,-5.5574,-5.473,-5.3146,-5.3225,-5.2821,-5.216,-5.216,-5.216,-5.216,-5.216,-5.2601,-5.3146,-5.3146,-5.3103,-5.2937,-5.2937,-5.2923,-5.2943,-5.2808,-5.3271,-5.3961,-5.3961,-5.4506,-5.5316,-5.6102,-5.5873,-5.5486,-5.6188,-5.6418,-5.6696,-5.7389,-5.8023,-5.8508,-5.8549,-5.914,-5.9681,-5.9786,-5.9252,-5.8489,-5.7573,-5.6815,-5.5943,-5.4882,-5.4086,-5.3613,-5.3688,0.0,-5.396,-5.418,-5.5007,-5.5606,-5.5721,-5.5759,-5.5785,-5.5785,-5.5785,-5.6091,0.0,-5.7619,-5.8077,-5.8077,-5.888,-5.9644,-6.037,-6.1325,-6.2166,-6.293,-6.3923,-6.4726,-6.5413,-6.5413,-6.5872,-6.6674,-6.591,-6.6101,-6.6904,-6.7018,-6.7477,-6.8165,-6.9043,-6.9807,-7.0533,-7.1374,-7.2176,-7.2941,-5.9208,-6.0419,-6.1447,-6.1557,-6.2291,-6.2365,-6.097,-6.1704,-6.1998,-6.075,-6.0493,-6.097,-6.2475,-6.152,-6.1263,-6.2511,-6.2732,-6.2218,-6.086,-6.1814,-6.152,-5.9501,-5.9795,-5.9391,-5.8033,-5.7997,-5.7997,-5.7997,-5.7997,-5.7189,-5.5574,-5.5574,-5.4686,-5.306,-5.3146,-5.3072,-5.284,-5.2962,-5.3004,-5.3004,-5.3004,-5.3036,-5.306,-5.306,-5.2937,-5.2806,-5.268,-5.3108,-5.3608,-5.3541,-5.4085,-5.4737,-5.4737,-5.5245,-5.5897,-5.6006,-5.6441,-5.6912,-5.712,-5.7157,-5.7094,-5.7202,-5.7388,-5.7498,-5.7831,-5.8238,-5.8665,-5.914,-5.9323,-5.9005,-5.7655,-5.727,-5.6436,-5.4162,-5.3669,-5.3395,-5.2712,0.0,-5.3955,-5.4714,-5.5627,-5.6511,-5.7197,-5.7385,-5.7504,-5.7504,-5.7504,-5.7581,-5.7695,-5.8459,-5.8918,-5.8918,-5.9759,-6.0255,-6.0408,-6.1936,-6.2777,-6.293,-6.4458,-6.5261,-6.5413,-6.5413,-6.5872,-6.6713,-6.656,-6.698,-6.7782,-6.8508,-6.889,-6.9082,-6.9884,-7.0304,-7.0533,-7.1374,-7.1794,-7.21,-5.8731,-5.9869,-6.0933,-6.0933,-6.1581,-6.1972,-6.1741,-6.1911,-6.1972,-6.1741,-6.1337,-6.1484,-6.2695,-6.2144,-6.1765,-6.2045,-6.2448,-6.2008,-6.0396,-6.1435,-6.1484,-5.9905,-5.9795,-5.9208,-5.8033,-5.7997,-5.7997,-5.7997,-5.795,-5.7281,-5.6145,-5.6145,-5.5477,-5.4261,-5.3989,-5.3806,-5.3726,-5.3329,-5.3146,-5.3103,-5.3103,-5.3017,-5.2893,-5.2893,-5.3061,-5.3299,-5.2817,-5.338,-5.435,-5.3856,-5.4508,-5.5486,-5.5486,-5.6029,-5.6645,-5.6645,-5.6899,-5.7188,-5.7289,-5.7239,-5.7188,-5.7188,-5.7338,-5.7583,-5.7763,-5.8051,-5.8412,-5.8868,-5.9064,-5.8878,-5.7962,-5.7393,-5.6564,-5.4942,-5.4018,0.0,0.0,-5.3832,-5.4572,-5.4962,-5.6321,-5.7291,-5.7549,-5.7766,-5.7886,-5.7886,-5.7886,-5.8077,-5.8536,-5.8918,-5.9338,-5.9797,-6.0599,-6.1058,-6.1058,-6.2739,-6.3579,-6.3618,-6.4802,-6.5413,-6.5413,-6.5872,-6.633,-6.6713,-6.6713,-6.7171,-6.7935,-6.8317,-6.8776,-6.9273,-7.0113,-7.0419,-7.0533,-7.1374,-7.1985,-7.2559,-5.8124,-5.9187,-6.0286,-6.0286,-6.103,-6.1835,-6.2375,-6.2032,-6.1885,-6.2425,-6.1948,-6.1875,-6.2682,-6.2558,-6.2215,-6.1675,-6.2237,-6.2091,-6.0847,-6.1471,-6.1447,-6.0456,-5.9601,-5.8794,-5.795,-5.795,-5.7904,-5.7904,-5.781,-5.7361,-5.6603,-5.6603,-5.6164,-5.5359,-5.4906,-5.4613,-5.4532,-5.3989,-5.3609,-5.3522,-5.3522,-5.3397,-5.3308,-5.3308,-5.3617,-5.3961,-5.3344,-5.4023,-5.5051,-5.4436,-5.516,-5.6283,-5.6283,-5.6681,-5.7188,-5.7188,-5.7188,-5.7188,-5.7188,-5.7188,-5.7188,-5.7188,-5.7437,-5.7715,-5.781,-5.8006,-5.8319,-5.8706,-5.8788,-5.8684,-5.8165,-5.76,-5.6774,-5.5535,0.0,0.0,0.0,-5.4427,-5.516,-5.5738,-5.713,-5.8092,-5.8128,-5.8349,-5.8459,-5.8459,-5.8459,-5.8765,-5.9376,-5.9415,-5.9797,-6.0637,-6.1287,-6.1707,-6.1898,-6.3427,-6.4191,-6.4191,-6.5222,-6.5605,-6.5413,-6.6292,-6.6713,-6.6713,-6.6713,-6.7286,-6.8203,-6.8203,-6.8699,-6.954,-7.0151,-7.0419,-7.0533,-7.1374,-7.21,-7.2826,-5.7667,-5.8945,-6.004,-6.004,-6.1266,-6.2157,-6.1615,-6.2091,-6.2325,-6.1777,-6.1532,-6.1725,-6.253,-6.1843,-6.1558,-6.2251,-6.2464,-6.253,-6.242,-6.2595,-6.2034,-6.0493,-5.9505,-5.8652,-5.781,-5.7679,-5.7631,-5.7631,-5.7583,-5.7229,-5.6603,-5.6603,-5.6164,-5.5395,-5.5493,-5.5367,-5.5149,-5.5204,-5.5167,-5.503,-5.503,-5.4984,-5.4844,-5.4844,-5.4821,-5.4798,-5.4725,-5.5233,-5.5921,-5.5848,-5.6391,-5.7116,-5.7116,-5.7152,-5.7188,-5.7188,-5.7188,-5.7188,-5.7188,-5.7188,-5.7188,-5.7188,-5.7239,-5.7338,-5.7715,-5.7857,-5.8006,-5.8665,-5.8788,-5.8684,-5.8165,-5.8051,-5.7263,-5.4859,0.0,0.0,-5.433,-5.4401,-5.5303,-5.7599,-5.8283,-5.8856,-5.9652,-6.0006,-6.0217,-6.0217,-6.0217,-6.0217,-6.0293,-6.0293,-6.0676,-6.1478,-6.1554,-6.1975,-6.2815,-6.3732,-6.4191,-6.4191,-6.5834,-6.6178,-6.5413,-6.6292,-6.6713,-6.6713,-6.6713,-6.763,-6.9082,-6.9082,-6.9578,-7.0342,-7.0381,-7.0419,-7.0533,-7.1374,-7.1718,-7.2024,-5.7875,-5.9297,-6.0573,-6.0099,-6.0835,-6.1636,-6.1974,-6.2214,-6.2287,-6.215,-6.2062,-6.212,-6.2412,-6.2141,-6.2016,-6.2291,-6.2291,-6.2344,-6.2344,-6.2397,-6.177,-6.0311,-5.9371,-5.847,-5.7715,-5.7631,-5.7583,-5.7583,-5.7486,-5.734,-5.7097,-5.7097,-5.6915,-5.6624,-5.6254,-5.6035,-5.5905,-5.5477,-5.5212,-5.5073,-5.5073,-5.5025,-5.4919,-5.4919,-5.5209,-5.5522,-5.5051,-5.5703,-5.6681,-5.6174,-5.6536,-5.7188,-5.7188,-5.7188,-5.7188,-5.7188,-5.7188,-5.7188,-5.7188,-5.7188,-5.7333,-5.7804,-5.7949,-5.8,-5.8151,-5.8551,-5.8786,-5.8281,-5.8732,-5.9102,-5.8609,-5.8316,-5.7788,-5.6849,0.0,-5.6082,-5.6082,-5.6635,-5.7314,-5.8116,-5.8887,-5.9512,-5.9681,-5.995,-6.0304,-6.0798,-6.0836,-6.0836,-6.0836,-6.0433,-6.0806,-6.2053,-6.2307,-6.2815,-6.3694,-6.4535,-6.4955,-6.4955,-6.6139,-6.6254,-6.5452,-6.7362,-6.7668,-6.6751,-6.7821,-6.8623,-6.9196,-6.9196,-6.9655,-7.0419,-7.0419,-7.0419,-7.0457,-7.0763,-7.1221,-7.1871,-5.7813,-5.9183,-6.0492,-5.9998,-6.0695,-6.1551,-6.2219,-6.2238,-6.2238,-6.2344,-6.2344,-6.2381,-6.2381,-6.2328,-6.2222,-6.2168,-6.2222,-6.2185,-6.2185,-6.2185,-6.1563,-6.0212,-5.9479,-5.8628,-5.7571,-5.7486,-5.7486,-5.7486,-5.7388,-5.7338,-5.7388,-5.7388,-5.7437,-5.7437,-5.6988,-5.6733,-5.6696,-5.615,-5.58,-5.5704,-5.5704,-5.5644,-5.5631,-5.5631,-5.5957,-5.6319,-5.5812,-5.6319,-5.7116,-5.6536,-5.6717,-5.7188,-5.7188,-5.7188,-5.7188,-5.7188,-5.7188,-5.7188,-5.7188,-5.7369,-5.7695,-5.8275,-5.8383,-5.8456,-5.8709,-5.9216,-5.9393,-5.8665,-5.9134,-5.9678,-5.9562,-5.9283,-5.8953,-5.854,-5.8309,-5.8079,-5.7815,-5.837,-5.8857,-5.8982,-5.9723,-6.0131,-5.9993,-6.0392,-6.0871,-6.1439,-6.1477,-6.1401,-6.1136,-6.0893,-6.1305,-6.2449,-6.2978,-6.3634,-6.4573,-6.5108,-6.5528,-6.5834,-6.6407,-6.6407,-6.5872,-6.7897,-6.8012,-6.6789,-6.8165,-6.8929,-6.9196,-6.889,-6.9425,-7.0419,-7.0419,-7.0419,-7.0419,-7.0724,-7.0992,-7.145,-5.7188,-5.8528,-5.9615,-5.9615,-6.0955,-6.206,-6.2222,-6.2185,-6.2275,-6.2381,-6.2238,-6.2185,-6.2185,-6.206,-6.2005,-6.2005,-6.2114,-6.2185,-6.2185,-6.2185,-6.1547,-6.0063,-5.9889,-5.9023,-5.7424,-5.7239,-5.7188,-5.7188,-5.7188,-5.7239,-5.7388,-5.7388,-5.7437,-5.7583,-5.7583,-5.7534,-5.7388,-5.7388,-5.7289,-5.7188,-5.7188,-5.7188,-5.7188,-5.7188,-5.7188,-5.7188,-5.7188,-5.7188,-5.7188,-5.7188,-5.7188,-5.7188,-5.7188,-5.7188,-5.7188,-5.7188,-5.7188,-5.7188,-5.7188,-5.7804,-5.8383,-5.842,-5.842,-5.8637,-5.9434,-5.9615,-5.9719,-6.0003,-6.0103,-6.0309,-6.1038,-6.1204,-6.0808,-5.9515,-6.0041,-6.0304,-5.944,-5.9328,-5.9628,-6.0529,-6.0753,-6.0823,-6.0823,-6.1681,-6.2277,-6.2277,-6.2277,-6.1936,-6.1141,-6.186,-6.2378,-6.2611,-6.3448,-6.435,-6.5375,-6.5413,-6.5834,-6.6713,-6.6713,-6.6713,-6.6751,-6.7553,-6.7477,-6.6751,-6.7553,-6.8394,-6.912,-6.8279,-6.889,-7.0419,-7.0419,-7.0419,-7.0495,-7.1374,-7.1145,-7.0648,-5.8166,-5.9796,-6.1136,-6.0557,-6.1317,-6.2005,-6.206,-6.206,-6.206,-6.2114,-6.206,-6.206,-6.206,-6.2005,-6.2005,-6.2005,-6.2005,-6.206,-6.206,-6.206,-6.1589,-6.059,-6.001,-5.916,-5.8109,-5.7478,-5.7188,-5.7188,-5.7188,-5.7188,-5.7239,-5.7239,-5.7289,-5.7289,-5.7289,-5.7289,-5.7239,-5.7239,-5.7239,-5.7188,-5.7188,-5.7188,-5.7188,-5.7188,-5.7188,-5.7188,-5.7188,-5.7188,-5.7188,-5.7188,-5.7188,-5.7188,-5.7188,-5.7188,-5.7188,-5.7188,-5.7188,-5.7333,-5.7876,-5.8202,-5.8528,-5.9108,-5.9687,-6.0158,-6.0412,-6.0883,-6.0955,-5.9989,-6.0427,-6.086,-6.0467,-6.0863,-6.106,-6.0699,-6.1087,-6.1355,-6.1093,-6.1055,-6.113,-6.1393,-6.1469,-6.1469,-6.1469,-6.177,-6.2222,-6.2824,-6.2862,-6.2787,-6.2485,-6.2295,-6.244,-6.3078,-6.3622,-6.4318,-6.5182,-6.5314,-6.5528,-6.5796,-6.6407,-6.6713,-6.6751,-6.8165,-6.8661,-6.8508,-6.9311,-6.9807,-7.0037,-6.9769,-6.996,-7.0419,-7.0419,-7.0419,-7.0419,-7.0686,-7.061,-7.0572,-5.8927,-6.0303,-6.139,-6.0883,-6.1498,-6.2005,-6.2005,-6.2005,-6.2005,-6.2005,-6.2005,-6.2005,-6.2005,-6.2005,-6.2005,-6.2005,-6.2005,-6.2005,-6.2005,-6.2005,-6.1643,-6.0846,-6.0339,-5.9542,-5.842,-5.7623,-5.7188,-5.7188,-5.7188,-5.7188,-5.7188,-5.7188,-5.7188,-5.7188,-5.7188,-5.7188,-5.7188,-5.7188,-5.7188,-5.7188,-5.7188,-5.7188,-5.7188,-5.7188,-5.7188,-5.7188,-5.7188,-5.7188,-5.7261,-5.755,-5.7659,-5.7659,-5.7659,-5.7442,-5.7333,-5.7949,-5.7913,-5.784,-5.8673,-5.9108,-5.947,-5.9977,-6.0448,-6.0883,-6.1208,-6.1679,-6.1752,-6.0774,-6.1131,-6.1485,-6.1163,-6.1445,-6.1752,-6.1725,-6.2197,-6.2473,-6.2369,-6.2294,-6.2294,-6.2294,-6.2294,-6.2294,-6.2294,-6.2595,-6.3008,-6.3533,-6.3571,-6.3421,-6.312,-6.3012,-6.3088,-6.3276,-6.3871,-6.4613,-6.5479,-6.5683,-6.6001,-6.6369,-6.6598,-6.7056,-6.7706,-6.8738,-6.9196,-6.9234,-7.0037,-7.0419,-7.0381,-7.0075,-7.0113,-7.0419,-7.0419,-7.0419,-7.0457,-7.0801,-7.0686,-7.0533,-5.9579,-6.0375,-6.0919,-6.0919,-6.1534,-6.2005,-6.2005,-6.2005,-6.2005,-6.2005,-6.2005,-6.2005,-6.2005,-6.2005,-6.2005,-6.2005,-6.2005,-6.2005,-6.2005,-6.2005,-6.1679,-6.0955,-6.0846,-6.0122,-5.8637,-5.784,-5.7369,-5.7297,-5.7297,-5.7297,-5.7297,-5.7224,-5.7188,-5.7188,-5.7188,-5.7188,-5.7188,-5.7188,-5.7188,-5.7188,-5.7188,-5.7188,-5.7188,-5.7188,-5.7188,-5.7188,-5.7188,-5.7188,-5.7333,-5.813,-5.8383,-5.842,-5.8492,-5.7985,-5.7695,-5.918,-5.9072,-5.8673,-5.9506,-6.0267,-6.0846,-6.0919,-6.0919,-6.11,-6.186,-6.2005,-6.2005,-6.2005,-6.2005,-6.2114,-6.25,-6.2603,-6.2598,-6.2524,-6.3221,-6.3611,-6.3268,-6.3195,-6.3195,-6.3195,-6.3195,-6.3195,-6.3195,-6.3871,-6.4322,-6.4397,-6.4397,-6.4096,-6.3345,-6.4021,-6.414,-6.354,-6.4294,-6.5199,-6.6215,-6.6391,-6.694,-6.7827,-6.7171,-6.7668,-6.9196,-6.9196,-6.9234,-6.9349,-7.0075,-7.0419,-7.0342,-6.9616,-6.9731,-7.0419,-7.0419,-7.0419,-7.0495,-7.1298,-7.1068,-7.0533,-6.052,-6.1208,-6.1752,-6.1752,-6.1897,-6.2005,-6.2005,-6.2005,-6.2005,-6.2005,-6.2005,-6.2005,-6.2005,-6.2005,-6.2005,-6.2005,-6.2005,-6.2005,-6.2005,-6.2005,-6.1933,-6.1752,-6.1136,-6.0665,-6.0303,-5.9506,-5.8782,-5.813,-5.813,-5.813,-5.813,-5.7478,-5.7188,-5.7188,-5.7188,-5.7188,-5.7188,-5.7188,-5.7188,-5.7188,-5.7188,-5.7188,-5.7188,-5.7188,-5.7188,-5.7188,-5.7188,-5.7188,-5.7333,-5.813,-5.8383,-5.8528,-5.9144,-5.9216,-5.9144,-5.9506,-5.947,-5.9506,-6.0339,-6.0665,-6.0955,-6.1607,-6.1752,-6.1788,-6.1969,-6.2005,-6.2005,-6.2005,-6.2005,-6.2005,-6.2114,-6.2397,-6.2682,-6.2909,-6.3379,-6.3798,-6.4019,-6.4021,-6.4021,-6.4021,-6.4021,-6.4021,-6.4021,-6.4172,-6.4547,-6.5185,-6.5223,-6.5148,-6.4998,-6.5148,-6.5229,-6.5275,-6.5464,-6.6031,-6.7012,-6.7085,-6.7306,-6.7631,-6.7643,-6.8203,-6.9196,-6.9196,-6.954,-7.0151,-7.0342,-7.0419,-7.0381,-7.0228,-7.0228,-7.0419,-7.0419,-7.0419,-7.0419,-7.061,-7.0572,-7.0533,-6.1317,-6.1716,-6.2005,-6.2005,-6.2005,-6.2005,-6.2005,-6.2005,-6.2005,-6.2005,-6.2005,-6.2005,-6.2005,-6.2005,-6.2005,-6.2005,-6.2005,-6.2005,-6.2005,-6.2005,-6.186,-6.1462,-6.139,-6.1027,-6.0267,-6.0194,-5.9615,-5.8383,-5.8383,-5.8202,-5.7804,-5.7406,-5.7188,-5.7188,-5.7188,-5.7188,-5.7188,-5.7188,-5.7188,-5.7188,-5.7188,-5.7188,-5.7188,-5.7188,-5.7188,-5.7188,-5.7188,-5.7695,-5.842,-5.8818,-5.9216,-5.9615,-6.005,-5.9905,-5.976,-6.052,-6.0484,-6.0375,-6.1172,-6.139,-6.1498,-6.1897,-6.2005,-6.2005,-6.2005,-6.2005,-6.2005,-6.2005,-6.2005,-6.2005,-6.2005,-6.2291,-6.2718,-6.3073,-6.3445,-6.3835,-6.4244,-6.4284,-6.4284,-6.4284,-6.4284,-6.4284,-6.4284,-6.466,-6.4885,-6.4923,-6.5674,-6.5936,-6.5523,-6.5899,-6.6165,-6.6287,-6.6287,-6.6704,-6.7652,-6.7731,-6.7997,-6.8489,-6.8327,-6.8731,-6.9637,-6.9637,-6.99,-7.0419,-7.0419,-7.0419,-7.0419,-7.0419,-7.0419,-7.0419,-7.0419,-7.0419,-7.0419,-7.0419,-7.0419,-7.0495,-6.1897,-6.2005,-6.2041,-6.2186,-6.2114,-6.2078,-6.2186,-6.2114,-6.2005,-6.2005,-6.2005,-6.2005,-6.2005,-6.2005,-6.2078,-6.2186,-6.2114,-6.2078,-6.2223,-6.2223,-6.186,-6.1064,-6.1788,-6.1534,-6.005,-6.0665,-6.0303,-5.8818,-5.8528,-5.813,-5.7587,-5.7333,-5.7188,-5.7188,-5.7188,-5.7188,-5.7188,-5.7188,-5.7188,-5.7188,-5.7188,-5.7188,-5.7188,-5.7188,-5.7188,-5.7224,-5.7369,-5.8347,-5.9615,-5.976,-6.0267,-6.0846,-6.0991,-6.0557,-6.0267,-6.1643,-6.1534,-6.1172,-6.1824,-6.2005,-6.2005,-6.2005,-6.2005,-6.2005,-6.2005,-6.2005,-6.2005,-6.2005,-6.2005,-6.2005,-6.2005,-6.2291,-6.2718,-6.3073,-6.3445,-6.3835,-6.4244,-6.4284,-6.4359,-6.4472,-6.451,-6.451,-6.451,-6.4998,-6.5185,-6.496,-6.6087,-6.6537,-6.5974,-6.6612,-6.6988,-6.6988,-6.6988,-6.7401,-6.8189,-6.8357,-6.8819,-6.946,-6.8941,-6.9171,-7.0109,-7.0109,-7.0213,-7.0419,-7.0419,-7.0419,-7.0419,-7.0419,-7.0419,-7.0419,-7.0419,-7.0419,-7.0419,-7.0419,-7.0419,-7.0419,-6.2005,-6.2005,-6.2223,-6.2911,-6.2476,-6.2259,-6.2911,-6.244,-6.2005,-6.2005,-6.2005,-6.2005,-6.2005,-6.2005,-6.2295,-6.2983,-6.2404,-6.2295,-6.2983,-6.3019,-6.2693,-6.1897,-6.2621,-6.2621,-6.1716,-6.1788,-6.139,-6.0484,-5.9072,-5.8709,-5.9253,-5.784,-5.7188,-5.7188,-5.7188,-5.7188,-5.7188,-5.7188,-5.7188,-5.7188,-5.7188,-5.7188,-5.7188,-5.7188,-5.7188,-5.7297,-5.7985,-5.8818,-5.9724,-6.0412,-6.0738,-6.0919,-6.1643,-6.1788,-6.1752,-6.1969,-6.1933,-6.186,-6.2005,-6.2005,-6.2005,-6.2005,-6.2005,-6.2005,-6.2005,-6.2005,-6.2005,-6.2005,-6.2005,-6.2005,-6.2005,-6.2291,-6.2718,-6.3073,-6.3445,-6.3835,-6.4244,-6.4284,-6.4547,-6.5261,-6.5336,-6.5336,-6.5336,-6.481,-6.5298,-6.7363,-6.7063,-6.7025,-6.7626,-6.7776,-6.7851,-6.7851,-6.7851,-6.8227,-6.9053,-6.9053,-6.9134,-6.9246,-6.9134,-6.9468,-7.0109,-7.0109,-7.0213,-7.0419,-7.0419,-7.0419,-7.0419,-7.0419,-7.0419,-7.0419,-7.0419,-7.0419,-7.0419,-7.0419,-7.0419,-7.0419,-6.2005,-6.2005,-6.2114,-6.2476,-6.2259,-6.215,-6.2476,-6.2259,-6.2005,-6.2005,-6.2005,-6.2005,-6.2005,-6.2005,-6.2331,-6.3128,-6.2875,-6.2802,-6.3164,-6.3599,-6.3309,-6.2078,-6.2766,-6.2802,-6.2041,-6.1571,-6.139,-6.1498,-5.9868,-5.9035,-5.8891,-5.7732,-5.7188,-5.7188,-5.7188,-5.7188,-5.7188,-5.7188,-5.7442,-5.7876,-5.7876,-5.813,-5.8528,-5.8528,-5.8528,-5.8637,-5.947,-5.9977,-6.0412,-6.1208,-6.1498,-6.1534,-6.1897,-6.2005,-6.2005,-6.2005,-6.2005,-6.2005,-6.2005,-6.2005,-6.2005,-6.2005,-6.2331,-6.2549,-6.2114,-6.2367,-6.2549,-6.2114,-6.2005,-6.2005,-6.2005,-6.2464,-6.2929,-6.3084,-6.4033,-6.4608,-6.4359,-6.511,-6.5636,-6.5523,-6.5936,-6.6011,-6.5561,-6.6011,-6.6612,-6.7288,-6.7814,-6.8114,-6.8002,-6.8452,-6.8677,-6.8677,-6.8677,-6.8865,-6.9203,-6.9203,-6.9203,-6.9203,-6.9203,-6.9378,-6.9778,-6.9891,-7.0038,-7.0247,-7.0353,-7.0419,-7.0419,-7.0419,-7.0419,-7.0419,-7.0419,-7.0419,-7.0419,-7.0419,-7.0419,-7.0419]}]]